[[{"header":{"parameterUnit":"m.s-1","parameterCategory":1,"la1":30.6,"la2":29.2853,"lo1":-89.7004,"lo2":-87.6739,"dy":0.0162,"dx":0.0183,"nx":112,"ny":82,"refTime":"2026-05-13T12:00:00:Z","depth":0,"parameterNumber":2,"parameterNumberName":"U-component_of_WINDS"},"data":[0.0,0.0,0.0,0.0,0.0,0.0,0.0,0.0,0.0,0.0,0.0,0.0,0.0,0.0,0.0,0.0,0.0,0.0,0.0,0.0,0.0,0.0,0.0,0.0,0.0,0.0,0.0,0.0,0.0,0.0,0.0,0.0,0.0,0.0,0.0,0.0,0.0,0.0,0.0,0.0,0.0,0.0,0.0,0.0,0.0,0.0,0.0,0.0,0.0,0.0,0.0,0.0,0.0,0.0,0.0,0.0,0.0,0.0,0.0,0.0,0.0,0.0,0.0,0.0,0.0,0.0,0.0,0.0,0.0,0.0,0.0,0.0,0.0,0.0,0.0,0.0,0.0,0.0,0.0,0.0,0.0,0.0,0.0,0.0,0.0,0.0,0.0,0.0,0.0,0.0,0.0,1.3583,1.5691,1.6855,1.6804,1.6092,1.4608,1.2197,0.0,0.0,0.0,0.0,0.0,0.0,0.0,0.0,0.0,0.0,0.0,0.0,0.0,0.0,0.0,0.0,0.0,0.0,0.0,0.0,0.0,0.0,0.0,0.0,0.0,0.0,0.0,0.0,0.0,0.0,0.0,0.0,0.0,0.0,0.0,0.0,0.0,0.0,0.0,0.0,0.0,0.0,0.0,0.0,0.0,0.0,0.0,0.0,0.0,0.0,0.0,0.0,0.0,0.0,0.0,0.0,0.0,0.0,0.0,0.0,0.0,0.0,0.0,0.0,0.0,0.0,0.0,0.0,0.0,0.0,0.0,0.0,0.0,0.0,0.0,0.0,0.0,0.0,0.0,0.0,0.0,0.0,0.0,0.0,0.0,0.0,0.0,0.0,0.0,0.0,0.0,0.0,0.0,0.0,0.0,0.0,0.0,0.0,0.0,0.0,0.0,0.0,0.0,0.0,1.2168,1.581,1.7058,1.7513,1.7226,1.5829,1.4186,1.2364,0.0,0.0,0.0,0.0,0.0,0.0,0.0,0.0,0.0,0.0,0.0,0.0,0.0,0.0,0.0,0.0,0.0,0.0,0.0,0.0,0.0,0.0,0.0,0.0,0.0,0.0,0.0,0.0,0.0,0.0,0.0,0.0,0.0,0.0,0.0,0.0,0.0,0.0,0.0,0.0,0.0,0.0,0.0,0.0,0.0,0.0,0.0,0.0,0.0,0.0,0.0,0.0,0.0,0.0,0.0,0.0,0.0,0.0,0.0,0.0,0.0,0.0,0.0,0.0,0.0,0.0,0.0,0.0,0.0,0.0,0.0,0.0,0.0,0.0,0.0,0.0,0.0,0.0,0.0,0.0,0.0,0.0,0.0,0.0,0.0,0.0,0.0,0.0,0.0,0.0,0.0,0.0,0.0,0.0,0.0,0.0,0.0,0.0,0.0,0.0,0.0,0.0,0.0,1.2069,1.3912,1.6436,1.7363,1.7735,1.7572,1.5864,1.4207,1.2832,1.1024,0.0,0.0,0.0,0.0,0.0,0.0,0.0,0.0,0.0,0.0,0.0,0.0,0.0,0.0,0.0,0.0,0.0,0.0,0.0,0.0,0.0,0.0,0.0,0.0,0.0,0.0,0.0,0.0,0.0,0.0,0.0,0.0,0.0,0.0,0.0,0.0,0.0,0.0,0.0,0.0,0.0,0.0,0.0,0.0,0.0,0.0,0.0,0.0,0.0,0.0,0.0,0.0,0.0,0.0,0.0,0.0,0.0,0.0,0.0,0.0,0.0,0.0,0.0,0.0,0.0,0.0,0.0,0.0,0.0,0.0,0.0,0.0,0.0,0.0,0.0,0.0,0.0,0.0,0.0,0.0,0.0,0.0,0.0,0.0,0.0,0.0,0.0,0.0,0.0,0.0,0.0,0.0,0.0,0.0,0.0,0.0,0.0,0.0,0.0,0.0,0.0,0.0,1.4262,1.5382,1.6817,1.7464,1.7811,1.7811,1.5849,1.4182,1.3115,1.0463,0.0,0.0,0.0,0.0,0.0,0.0,0.0,0.0,0.0,0.0,0.0,0.0,0.0,0.0,0.0,0.0,0.0,0.0,0.0,0.0,0.0,0.0,0.0,0.0,0.0,0.0,0.0,0.0,0.0,0.0,0.0,0.0,0.0,0.0,0.0,0.0,0.0,0.0,0.0,0.0,0.0,0.0,0.0,0.0,0.0,0.0,0.0,0.0,0.0,0.0,0.0,0.0,0.0,0.0,0.0,0.0,0.0,0.0,0.0,0.0,0.0,0.0,0.0,0.0,0.0,0.0,0.0,0.0,0.0,0.0,0.0,0.0,0.0,0.0,0.0,0.0,0.0,0.0,0.0,0.0,0.0,0.0,0.0,0.0,0.0,0.0,0.0,0.0,0.0,0.0,0.0,0.0,0.0,0.0,0.0,0.0,0.0,0.0,0.0,0.0,0.0,0.0,1.4882,1.6287,1.7596,1.7777,1.7811,1.7811,1.5558,1.3801,1.2969,1.0099,0.0,0.0,0.0,0.0,0.0,0.0,0.0,0.0,0.0,0.0,0.0,0.0,0.0,0.0,0.0,0.0,0.0,0.0,0.0,0.0,0.0,0.0,0.0,0.0,0.0,0.0,0.0,0.0,0.0,0.0,0.0,0.0,0.0,0.0,0.0,0.0,0.0,0.0,0.0,0.0,0.0,0.0,0.0,0.0,0.0,0.0,0.0,0.0,0.0,0.0,0.0,0.0,0.0,0.0,0.0,0.0,0.0,0.0,0.0,0.0,0.0,0.0,0.0,0.0,0.0,0.0,0.0,0.0,0.0,0.0,0.0,0.0,0.0,0.0,0.0,0.0,0.0,0.0,0.0,0.0,0.0,0.0,0.0,0.0,0.0,0.0,0.0,0.0,0.0,0.0,0.0,0.0,0.0,0.0,0.0,0.0,0.0,0.0,0.0,0.0,0.0,0.0,1.4611,1.5943,0.0,1.7914,1.7811,1.7811,1.5942,1.4288,1.3097,0.0,0.0,0.0,0.0,0.0,0.0,0.0,0.0,0.0,0.0,0.0,0.0,0.0,0.0,0.0,0.0,0.0,0.0,0.0,0.0,0.0,0.0,0.0,0.0,0.0,0.0,0.0,0.0,0.0,0.0,0.0,0.0,0.0,0.0,0.0,0.0,0.0,0.0,0.0,0.0,0.0,0.0,0.0,0.0,0.0,0.0,0.0,0.0,0.0,0.0,0.0,0.0,0.0,0.0,0.0,0.0,0.0,0.0,0.0,0.0,0.0,0.0,0.0,0.0,0.0,0.0,0.0,0.0,0.0,0.0,0.0,0.0,0.0,0.0,0.0,0.0,0.0,0.0,0.0,0.0,0.0,0.0,0.0,0.0,0.0,0.0,0.0,0.0,0.0,0.0,0.0,0.0,0.0,0.0,0.0,0.0,0.0,0.0,0.0,0.0,0.0,0.0,1.317,1.4563,1.5914,0.0,1.7804,1.7811,1.7811,1.6063,1.4444,1.3179,0.0,0.0,0.0,0.0,0.0,0.0,0.0,0.0,0.0,0.0,0.0,0.0,0.0,0.0,0.0,0.0,0.0,0.0,0.0,0.0,0.0,0.0,0.0,0.0,0.0,0.0,0.0,0.0,0.0,0.0,0.0,0.0,0.0,0.0,0.0,0.0,0.0,0.0,0.0,0.0,0.0,0.0,0.0,0.0,0.0,0.0,0.0,0.0,0.0,0.0,0.0,0.0,0.0,0.0,0.0,0.0,0.0,0.0,0.0,0.0,0.0,0.0,0.0,0.0,0.0,0.0,0.0,0.0,0.0,0.0,0.0,0.0,0.0,0.0,0.0,0.0,0.0,0.0,0.0,0.0,0.0,0.0,0.0,0.0,0.0,0.0,0.0,0.0,0.0,0.0,0.0,0.0,0.0,0.0,0.0,0.0,0.0,0.0,0.0,0.0,0.0,0.0,1.2636,1.4834,1.6413,1.6948,1.7475,1.7811,1.7811,1.577,1.4111,0.0,0.0,0.0,0.0,0.0,0.0,0.0,0.0,0.0,0.0,0.0,0.0,0.0,0.0,0.0,0.0,0.0,0.0,0.0,0.0,0.0,0.0,0.0,0.0,0.0,0.0,0.0,0.0,0.0,0.0,0.0,0.0,0.0,0.0,0.0,0.0,0.0,0.0,0.0,0.0,0.0,0.0,0.0,0.0,0.0,0.0,0.0,0.0,0.0,0.0,0.0,0.0,0.0,0.0,0.0,0.0,0.0,0.0,0.0,0.0,0.0,0.0,0.0,0.0,0.0,0.0,0.0,0.0,0.0,0.0,0.0,0.0,0.0,0.0,0.0,0.0,0.0,0.0,0.0,0.0,0.0,0.0,0.0,0.0,0.0,0.0,0.0,0.0,0.0,0.0,0.0,0.0,0.0,0.0,0.0,0.0,0.0,0.0,0.0,0.0,0.0,0.0,0.0,1.2873,1.4952,1.6483,1.7203,1.7593,1.7811,1.7811,1.6255,1.4714,1.3396,0.0,0.0,0.0,0.0,0.0,0.0,0.0,0.0,0.0,0.0,0.0,0.0,0.0,0.0,0.0,0.0,0.0,0.0,0.0,0.0,0.0,0.0,0.0,0.0,0.0,0.0,0.0,0.0,0.0,0.0,0.0,0.0,0.0,0.0,0.0,0.0,0.0,0.0,0.0,0.0,0.0,0.0,0.0,0.0,0.0,0.0,0.0,0.0,0.0,0.0,0.0,0.0,0.0,0.0,0.0,0.0,0.0,0.0,0.0,0.0,0.0,0.0,0.0,0.0,0.0,0.0,0.0,0.0,0.0,0.0,0.0,0.0,0.0,0.0,0.0,0.0,0.0,0.0,0.0,0.0,0.0,0.0,0.0,0.0,0.0,0.0,0.0,0.0,0.0,0.0,0.0,0.0,0.0,0.0,0.0,0.0,0.0,0.0,0.0,0.0,0.0,0.0,1.2554,1.4526,1.6033,1.6844,1.7188,1.7363,1.7363,1.628,1.4961,1.3489,0.0,0.0,0.0,0.0,0.0,0.0,0.0,0.0,0.0,0.0,0.0,0.0,0.0,0.0,0.0,0.0,0.0,0.0,0.0,0.0,0.0,0.0,0.0,0.0,0.0,0.0,0.0,0.0,0.0,0.0,0.0,0.0,0.0,0.0,0.0,0.0,0.0,0.0,0.0,0.0,0.0,0.0,0.0,0.0,0.0,0.0,0.0,0.0,0.0,0.0,0.0,0.0,0.0,0.0,0.0,0.0,0.0,0.0,0.0,0.0,0.0,0.0,0.0,0.0,0.0,0.0,0.0,0.0,0.0,0.0,0.0,0.0,0.0,0.0,0.0,0.0,0.0,0.0,0.0,0.0,0.0,0.0,0.0,0.0,0.0,0.0,0.0,0.0,0.0,0.0,0.0,0.0,0.0,0.0,0.0,0.0,0.0,0.0,0.0,0.0,0.0,0.0,1.1884,1.3818,1.5298,1.6016,1.6415,1.6618,1.6606,1.5917,1.4893,1.3489,0.0,0.0,0.0,0.0,0.0,0.0,0.0,0.0,0.0,0.0,0.0,0.0,0.0,0.0,0.0,0.0,0.0,0.0,0.0,0.0,0.0,0.0,0.0,0.0,0.0,0.0,0.0,0.0,0.0,0.0,0.0,0.0,0.0,0.0,0.0,0.0,0.0,0.0,0.0,0.0,0.0,0.0,0.0,0.0,0.0,0.0,0.0,0.0,0.0,0.0,0.0,0.0,0.0,0.0,0.0,0.0,0.0,0.0,0.0,0.0,0.7484,0.0,0.0,0.0,0.0,0.0,0.0,0.0,0.0,0.0,0.0,0.0,0.0,0.0,0.0,0.0,0.0,0.0,0.0,0.0,0.0,0.0,0.0,0.0,0.0,0.0,0.0,0.0,0.0,0.0,0.0,0.0,0.0,0.0,0.0,0.0,0.0,0.0,0.0,0.0,0.0,0.0,1.1884,1.3937,1.5238,1.5254,1.5731,1.601,1.5852,1.5164,1.4352,1.3464,1.1251,0.0,0.0,0.0,0.0,0.0,0.0,0.0,0.0,0.0,0.0,0.0,0.0,0.0,0.0,0.0,0.0,0.0,0.0,0.0,0.0,0.0,0.0,0.0,0.0,0.0,0.0,0.0,0.0,0.0,0.0,0.0,0.0,0.0,0.0,0.0,0.0,0.0,0.0,0.0,0.0,0.0,0.0,0.0,0.0,0.0,0.0,0.0,0.0,0.0,0.0,0.0,0.0,0.0,0.0,0.0,0.0,0.0,0.0,0.0,0.0,0.783,0.0,0.0,0.0,0.0,0.0,0.0,0.0,0.0,0.0,0.0,0.0,0.0,0.0,0.0,0.0,0.0,0.0,0.0,0.0,0.0,0.0,0.0,0.0,0.0,0.0,0.0,0.0,0.0,0.0,0.0,0.0,0.0,0.0,0.0,0.0,0.0,0.0,0.0,0.0,0.0,1.1939,1.366,1.4872,1.5116,1.5285,1.5322,1.5223,1.4771,1.4191,1.3455,1.1959,0.0,0.0,0.0,0.0,0.0,0.0,0.0,0.0,0.0,0.0,0.0,0.0,0.0,0.0,0.0,0.0,0.0,0.0,0.0,0.0,0.0,0.0,0.0,0.0,0.0,0.0,0.0,0.0,0.0,0.0,0.0,0.0,0.0,0.0,0.0,0.0,0.0,0.0,0.0,0.0,0.0,0.0,0.0,0.0,0.0,0.0,0.0,0.0,0.0,0.0,0.0,0.0,0.0,0.9155,0.9819,1.0517,1.1827,1.2112,1.1455,0.8922,0.8252,0.8879,0.8488,0.0,0.0,0.0,0.0,0.0,0.0,0.0,0.0,0.0,0.0,0.0,0.0,0.0,0.0,0.0,0.0,0.0,0.0,0.0,0.0,0.0,0.0,0.0,0.0,1.3036,1.2509,0.0,0.0,0.0,0.0,0.0,0.0,0.0,0.0,0.0,0.0,0.0,0.0,1.2187,1.3452,1.4467,1.5053,1.4859,1.4679,1.4645,1.447,1.4101,1.3513,1.2757,1.2044,0.0,0.0,0.0,0.0,0.0,0.0,0.0,0.0,0.0,0.0,0.0,0.0,0.0,0.0,0.0,0.0,0.0,0.0,0.0,0.0,0.0,0.0,0.0,0.0,0.0,0.0,0.0,0.0,0.0,0.0,0.0,0.0,0.1465,0.2283,0.0,0.0,0.0,0.0,0.0,0.0,0.0,0.0,0.0,0.0,0.0,0.0,0.0,0.9731,0.9621,1.0237,1.0539,1.0533,1.1305,1.1651,1.16,1.1923,1.2018,1.1907,1.1392,0.0,1.1247,1.012,0.0,0.0,0.0,0.0,0.0,0.0,0.0,0.0,0.0,0.0,0.0,0.0,0.0,0.0,0.0,0.0,0.0,0.0,0.0,0.0,0.0,0.0,1.4483,1.3948,1.441,1.4647,0.0,1.2255,1.1196,1.0866,1.0056,0.0,0.0,0.0,0.0,0.0,0.0,0.0,1.2949,1.3908,1.4432,1.4345,1.4311,1.4208,1.4035,1.3826,1.3752,1.3836,1.2974,1.2436,1.2324,1.1153,0.0,0.0,0.0,0.0,0.0,0.0,0.0,0.0,0.0,0.0,0.0,0.0,0.0,0.0,0.0,0.0,0.0,0.0,0.0,0.0,0.0,0.0,0.0,0.0,0.0,0.0,0.0,0.0,0.0,0.0609,0.1136,0.1743,0.1782,0.2108,0.0,0.0,0.0,0.0,0.0,0.0,0.0,0.0,0.0,1.0634,1.1133,1.1411,1.146,1.2063,1.2299,1.2207,1.2934,1.3209,1.3097,1.3271,1.3334,1.3317,1.3551,1.3589,1.3373,1.1911,1.1092,1.0667,0.0,0.0,0.0,0.0,0.9028,0.9108,0.9877,1.0479,0.0,1.016,0.0,0.0,0.0,0.0,0.0,0.0,0.0,0.0,0.0,0.0,1.4622,1.5251,1.5356,1.546,1.6063,1.5257,1.3965,0.0,1.2093,1.1521,0.9698,0.0,0.0,0.0,0.0,0.0,1.3875,1.5065,1.5819,1.5736,1.5207,1.4846,1.4746,1.4138,1.3804,1.389,1.3502,1.3283,1.3283,1.2236,1.1523,0.0,0.0,0.0,0.0,0.0,0.0,0.0,0.0,0.0,0.0,0.0,0.0,0.0,0.0,0.0,0.0,0.0,0.0,0.0,0.0,0.0,0.0,0.0,0.0,0.0,0.0,0.0,0.0,0.035,0.0626,0.0894,0.077,0.1167,0.0,0.0,0.0,0.0,0.0,0.0,1.0853,1.1682,1.2415,1.3067,1.357,1.3857,1.393,1.4385,1.4483,1.4279,1.4785,1.4947,1.4798,1.4979,1.4927,1.4707,1.516,1.5328,1.5127,1.3469,1.2534,1.208,1.1454,1.0781,1.0195,1.0534,1.0604,1.0647,1.1475,1.2174,1.2521,1.1425,0.0,1.1289,1.0159,0.0,0.0,0.0,0.0,1.33,1.4295,1.4638,1.509,1.6436,1.6336,1.6303,1.762,1.7426,1.642,0.0,1.4436,1.4045,1.1734,0.0,0.0,0.0,0.0,1.4643,1.5056,1.6156,1.6899,1.6899,1.6055,1.5488,1.5488,1.4553,1.3997,1.406,1.402,1.3983,1.3983,1.3351,1.2966,1.2848,0.0,0.0,0.0,0.0,0.0,0.0,0.0,0.0,0.0,0.0,0.0,0.0,0.0,0.0,0.0,0.0,0.0,0.0,0.0,0.0,0.0,0.0,0.0,0.0,0.0,0.0,0.0,0.0,0.0,-0.0532,-0.0534,0.0,0.0,0.0,0.0,0.6475,0.8344,1.0161,1.2022,1.3877,1.4918,1.4958,1.6755,1.7656,1.7539,1.7567,1.7452,1.7191,1.7215,1.7047,1.6674,1.6805,1.6448,1.5738,1.5954,1.6227,1.6372,1.4574,1.3839,1.3751,1.252,1.1788,1.1404,1.1365,1.1153,1.104,1.2083,1.2563,1.2757,1.3044,1.2406,1.153,1.1712,1.1888,0.0,0.0,1.4414,1.561,1.6363,1.6927,1.7336,1.743,1.7562,1.7725,1.7871,1.7865,1.7799,0.0,1.7513,1.6875,1.5218,0.0,1.455,1.4465,1.4478,1.5047,1.6578,1.6853,1.6899,1.6899,1.6166,1.567,1.567,1.4761,1.427,1.4464,1.4295,1.4175,1.4175,1.4317,1.3946,1.3007,1.3056,0.0,0.0,0.0,0.0,0.0,0.0,0.0,0.0,0.0,0.0,0.0,0.0,0.0,0.0,0.0,0.0,0.0,0.0,0.0,0.0,0.0,0.0,0.0,0.0,0.0,0.0,0.0,0.0,-0.2675,-0.2742,0.0,-0.2048,-0.0316,0.2606,0.7064,0.9479,1.2169,1.5439,1.6467,1.6973,1.6973,1.7644,1.7978,1.793,1.7842,1.775,1.7665,1.7533,1.743,1.738,1.7292,1.7191,1.7089,1.7066,1.7206,1.7367,1.6554,1.6,1.5539,1.4214,1.3539,1.3248,1.2838,1.2607,1.2537,1.2748,1.2972,1.3144,1.3117,1.293,1.2796,1.3198,1.3659,1.4184,1.4882,1.5737,1.6473,1.6643,1.7037,1.753,1.8183,1.8059,1.8109,1.9265,1.9098,1.8903,1.9455,1.8567,1.7352,1.6179,1.62,1.6166,1.5559,1.6245,1.7023,1.7596,1.8124,1.8445,1.8445,1.772,1.7032,1.6514,1.5669,1.4971,1.4524,1.4432,1.4387,1.4387,1.4341,1.4192,1.397,1.3395,1.2243,0.0,0.0,0.0,0.0,0.0,0.0,0.0,0.0,0.0,0.0,0.0,0.0,0.0,0.0,0.0,0.0,0.0,0.0,0.0,0.0,0.0,0.0,0.0,0.0,0.0,0.0,-0.4583,-0.5626,-0.5553,-0.5222,-0.4668,-0.3073,-0.0449,0.3545,0.5629,0.89,1.3928,1.4677,1.6025,1.8369,1.8571,1.8721,1.8877,1.8633,1.8555,1.8642,1.8509,1.8459,1.8465,1.8371,1.8281,1.8174,1.8152,1.8225,1.83,1.7732,1.7397,1.7077,1.5422,1.4496,1.4051,1.3723,1.3404,1.3104,1.2942,1.2916,1.2979,1.2786,1.2778,1.3002,1.374,1.4351,1.4975,1.6008,1.6732,1.726,1.748,1.7829,1.8323,1.904,1.8927,1.897,2.0158,1.9983,1.9775,2.0386,1.9506,1.8397,1.7471,1.759,1.7567,1.6876,1.7591,1.8259,1.8487,1.8968,1.9305,1.9305,1.8583,1.7761,1.6972,1.616,1.5362,1.4543,1.4497,1.4497,1.4497,1.4375,1.4353,1.4497,1.3573,1.2541,1.1396,0.0,0.0,0.0,0.0,0.0,0.0,0.0,0.0,0.0,0.0,0.0,0.0,0.0,0.0,0.0,0.0,0.0,0.0,0.0,0.0,0.0,0.0,0.0,-0.8208,-0.7761,-0.7913,-0.9333,-0.8906,-0.825,-0.7607,-0.6714,-0.5523,-0.4037,-0.3159,0.0284,0.7128,0.8506,1.2129,1.8809,1.9584,2.0108,2.0572,2.0096,1.9999,2.0273,2.0273,2.0168,1.9983,2.0118,1.9725,1.8946,1.9143,1.9227,1.9139,1.8006,1.7913,1.8249,1.5972,1.4536,1.3733,1.3917,1.3402,1.2596,1.2615,1.2439,1.2218,1.2197,1.2039,1.2091,1.3339,1.3944,1.4597,1.6574,1.7489,1.8057,1.8975,1.9493,1.9836,1.9974,2.0142,2.0321,2.0389,2.04,2.0425,2.0492,2.0454,2.0129,1.9277,1.8971,1.8773,1.8583,1.8486,0.0,1.9234,1.9305,1.9314,1.9305,1.8574,1.7775,1.6963,1.6173,1.5365,1.4566,1.4511,1.4508,1.4508,1.4508,1.4511,1.4511,1.3722,1.3021,1.2441,0.0,0.0,0.0,0.0,0.0,0.0,0.0,0.0,0.0,0.0,0.0,0.0,0.0,0.0,0.0,0.0,0.0,0.0,0.0,0.0,0.0,0.0,-1.1091,-0.9966,-0.9441,-0.9768,-1.1332,-1.114,-1.0894,-1.0998,-0.9947,-0.7923,-0.4709,-0.3369,-0.1039,0.2778,0.7959,1.1416,1.2734,1.7179,1.9718,2.0087,1.9383,1.919,1.9495,1.9495,1.9581,1.9705,1.9747,1.9794,1.9852,1.9945,1.9967,1.9858,1.9012,1.8313,1.7602,1.5848,1.4695,1.3939,1.3443,1.2993,1.2673,1.317,1.2955,1.2463,1.2251,1.2598,1.3291,1.4197,1.5304,1.6452,1.7694,1.8565,1.9138,1.93,1.9646,1.9954,1.9993,2.0142,2.0321,2.0389,2.0444,2.0478,2.0501,2.0453,2.031,2.0021,1.9798,1.965,1.9601,1.9495,0.0,1.9504,1.9513,1.9462,1.9329,1.8665,1.792,1.7105,1.6394,1.5656,1.4841,1.4794,1.4756,1.4645,1.4746,1.4794,1.4794,1.395,1.348,0.0,0.0,0.0,0.0,0.0,0.0,0.0,0.0,0.0,0.0,0.0,0.0,0.0,0.0,0.0,0.0,0.0,0.0,0.0,0.0,0.0,0.0,-1.2393,-1.3287,-1.2919,-1.2572,-1.2807,-1.4041,-1.3759,-1.3523,-1.364,-1.3091,-1.1873,-0.9848,-0.9325,-0.7418,-0.3533,0.0484,0.4569,0.8743,1.203,1.5402,1.8818,1.7792,1.7843,1.8982,1.8588,1.882,1.9601,1.9593,1.9786,0.0,2.0163,2.0009,1.9665,1.8761,1.7526,0.0,0.0,0.0,0.0,0.0,1.1853,1.1904,1.2361,1.2134,1.1709,1.2118,1.2606,1.3289,1.4616,1.5783,1.6901,1.7975,1.882,1.9448,1.9544,1.9781,2.0022,2.0106,2.0205,2.0325,2.0392,2.0448,2.0492,2.0458,2.043,0.0,2.031,2.0197,2.0097,2.0012,1.9933,1.9845,1.9698,1.9682,1.9634,1.9522,1.916,1.8453,1.7274,1.6824,0.0,0.0,0.0,1.4877,1.4785,1.4859,0.0,0.0,0.0,0.0,0.0,0.0,0.0,0.0,1.3233,1.3406,0.0,0.0,0.0,0.0,0.0,0.0,0.0,0.0,0.0,0.0,0.0,0.0,0.0,0.0,0.0,0.0,-1.3446,-1.4824,-1.6287,-1.6282,-1.6343,-1.6905,-1.6376,-1.5889,-1.5683,-1.587,-1.6176,-1.6673,-1.7516,-1.5857,-1.0932,0.0,0.0,0.0,0.0,0.9225,1.6314,1.5556,1.6177,1.8224,1.7489,1.7928,1.939,1.9404,1.9568,1.982,1.9802,1.9423,1.8705,1.7498,1.578,1.3898,1.4028,1.3124,1.1622,1.0531,1.0362,1.067,1.089,0.0,0.0,1.1763,1.2255,1.27,1.4641,1.5711,1.6512,1.7759,1.8637,1.9297,1.9712,1.9913,2.005,2.0249,2.0312,2.0335,2.0395,2.0462,2.0493,2.0415,2.0409,2.0386,2.0313,2.0302,2.0241,2.0059,2.0031,1.9983,1.9836,1.9813,1.9823,1.98,0.0,0.0,1.7604,1.7311,1.664,1.5297,1.5212,1.5204,1.5221,1.5212,1.5596,1.6441,1.6341,1.6753,1.7702,1.7643,1.769,1.7789,1.543,1.5161,0.0,0.0,0.0,0.0,0.0,0.0,0.0,0.0,0.0,0.0,0.0,0.0,0.0,0.0,0.0,-1.4067,-1.5367,-1.6533,-1.7528,-1.7989,-1.8177,-1.8025,-1.7364,-1.7024,-1.7302,-1.7233,-1.7235,-1.7388,-1.7724,-1.774,-1.7296,-1.2132,-0.8069,-0.5601,0.1597,0.6933,1.0097,1.2818,1.4564,1.5411,0.0,0.0,1.8065,1.8237,1.8459,1.8708,1.8606,1.7954,1.6892,1.5239,1.3064,1.0734,1.0342,0.9723,0.9111,0.9483,0.9685,0.9828,1.0463,1.051,1.0418,1.1102,1.1924,1.2889,1.4373,1.5565,0.0,1.7913,1.8714,1.9322,1.9831,1.9983,2.005,2.0249,2.034,2.0383,2.0405,2.0501,2.0556,2.0491,2.0439,2.0386,2.0302,2.0302,2.0294,2.0251,2.0241,2.017,1.9983,1.9964,1.9913,1.9811,1.9322,1.8859,1.8545,1.7364,1.6802,1.7145,1.7108,1.71,1.7157,1.7108,1.7184,1.7425,1.7401,1.7495,1.7702,1.7692,1.8047,1.8722,1.7513,1.7148,0.0,0.0,0.0,0.0,0.0,0.0,0.0,0.0,0.0,0.0,0.0,-1.1108,-1.2795,0.0,-1.4183,-1.5827,-1.6968,-1.7808,-1.8239,-1.8758,-1.897,-1.8601,-1.8404,-1.8342,-1.8443,-1.8478,-1.8433,-1.8263,-1.8337,-1.8636,-1.9168,-1.6025,-1.3928,-1.332,-0.7721,-0.2274,0.2842,0.559,0.8477,1.1505,1.3826,1.5563,1.6727,1.658,1.6467,1.641,1.5925,1.4875,1.3397,1.1522,0.9482,0.736,0.5983,0.6167,0.7232,0.7589,0.7775,0.8033,0.9025,0.9412,0.967,1.0636,1.1643,1.2747,1.4132,1.5263,1.6284,1.7423,1.8139,1.8721,1.9419,1.9646,1.9782,2.0078,2.0204,2.0277,2.0385,2.048,2.0544,2.0506,2.0446,2.0379,2.0312,2.0302,2.0302,2.0302,2.0302,2.0259,2.0161,2.0152,2.0125,2.006,1.9753,1.9367,1.8936,1.7819,1.7343,1.777,1.7766,1.7749,1.7749,1.7715,1.7915,1.8337,1.8347,1.8568,1.9004,1.9004,1.9215,1.9638,1.9196,1.9004,0.0,0.0,0.0,0.0,0.0,0.0,0.0,0.0,-1.0508,-1.1858,-1.2312,-1.3043,-1.494,-1.538,-1.5918,-1.7388,-1.8202,-1.8683,-1.8855,-1.9233,-1.9395,-1.9099,-1.9272,-1.9379,-1.928,-1.946,-1.9449,-1.9097,-1.9114,-1.9188,-1.9333,-1.9513,-1.9173,-1.8203,-1.6166,-1.1664,-0.4539,-0.2211,0.1642,0.7065,1.0658,1.3551,1.579,1.5496,1.4883,1.4017,1.2525,1.0833,0.9001,0.7269,0.5578,0.3908,0.1913,0.2677,0.4896,0.5337,0.5742,0.6226,0.7366,0.8083,0.877,1.0133,1.1232,1.2274,1.3707,1.4711,1.5581,1.6674,1.7344,1.7963,1.8809,1.9121,1.93,1.9773,1.9954,2.008,2.0313,2.0433,2.0498,2.0498,2.0458,2.0398,2.0329,2.0321,2.0321,2.0302,2.0302,2.0302,2.0302,2.0302,2.0302,2.0321,2.0321,1.9975,1.9109,1.859,1.8258,1.8161,1.83,1.8355,1.8307,1.8311,1.8604,1.9261,1.9271,1.961,2.0302,2.0302,2.0379,2.0533,2.0533,2.0533,-1.0948,-1.0323,-1.0197,-1.0847,-1.1057,-1.17,0.0,0.0,-1.4545,-1.4738,-1.5949,-1.6836,-1.6413,-1.6906,-1.7704,-1.8655,-1.8787,-1.9031,-1.9745,-1.9897,-1.9945,-1.9952,-1.9674,-1.9599,-1.9865,-1.9867,-1.9809,-1.9709,-1.986,-1.9823,-1.95,-2.027,-2.0023,-1.8507,-1.7227,-1.481,-1.1168,-0.699,-0.2546,0.2149,0.5308,0.9945,1.5813,1.634,1.5154,1.2436,0.8737,0.5886,0.3788,0.308,0.1905,0.0437,-0.0672,-0.0537,0.0615,0.3107,0.4493,0.5276,0.6198,0.7148,0.8169,0.9338,1.0325,1.132,1.279,1.3801,1.4687,1.5817,1.6684,1.7462,1.8218,1.8404,1.8598,1.93,1.9618,1.9833,2.0152,2.0367,2.0498,2.0498,2.0487,2.047,2.04,2.0389,2.0369,2.0312,2.0302,2.0302,2.0302,2.0302,2.0321,2.0379,2.0389,2.0063,1.9252,1.9747,1.9809,1.9101,1.9735,2.0122,2.0108,2.0109,2.0148,2.0235,2.0235,2.0264,2.0302,2.0302,2.0677,2.137,2.137,2.137,-1.34,-1.2811,0.0,0.0,-1.3588,-1.4022,-1.5599,-1.5965,-1.609,-1.6561,-1.7181,-1.7673,-1.7809,-1.8114,-1.861,0.0,-1.9625,-1.9787,-2.0131,-2.0171,-2.0176,-2.0208,-2.0097,-2.0077,-2.0219,-2.0214,-2.0096,-1.9869,-1.9939,-1.9807,-1.9409,-1.9638,-1.9396,-1.8523,-1.7612,-1.6196,-1.421,-1.0647,-0.6682,-0.2329,0.116,0.5096,0.9333,0.9318,0.8134,0.6043,0.3334,0.1813,0.119,0.0518,-0.0702,-0.213,-0.2558,-0.1657,0.0086,0.2023,0.3291,0.4183,0.5488,0.6573,0.7551,0.8712,0.9725,1.0714,1.1905,1.2886,1.3845,1.5038,1.58,1.6487,1.7412,1.7787,1.8084,1.8633,1.9082,1.9507,1.9891,2.0158,2.0373,2.0527,2.0527,2.0494,2.0455,2.0434,2.0388,2.0359,2.0366,2.036,2.036,2.0357,2.0369,2.0398,2.0398,2.0279,1.9985,2.0259,2.0332,2.0028,2.0331,2.0503,2.0464,2.046,2.0436,2.0398,2.0398,2.0646,2.1107,2.1109,2.1556,2.2373,2.2331,2.2592,-1.4997,0.0,0.0,-1.5407,-1.5734,-1.6051,-1.6686,-1.7013,-1.7221,-1.7343,-1.7711,-1.8126,-1.8496,-1.8732,-1.9154,-1.9949,-2.0198,-2.0301,-2.0301,-2.0299,-2.0316,-2.0331,-2.0365,-2.039,-2.0368,-2.0342,-2.0213,-1.9945,-1.9887,-1.9661,-1.9188,-1.9231,-1.9047,-1.8621,-1.7995,-1.7068,-1.5902,-1.3355,-1.0269,-0.6693,-0.3367,-0.0475,0.1932,0.188,0.1133,-0.013,-0.1398,-0.1752,-0.1488,-0.2104,-0.3004,-0.406,-0.3894,-0.2645,-0.0836,0.0575,0.2091,0.3554,0.4725,0.5822,0.6897,0.7912,0.9044,1.0181,1.1031,1.204,1.3109,1.4137,1.4827,1.5512,1.6511,1.693,1.7296,1.7968,1.8503,1.9002,1.9589,1.9899,2.0162,2.0506,2.0527,2.051,2.0517,2.0493,2.0459,2.0459,2.0456,2.0448,2.0435,2.0444,2.0453,2.0426,2.0427,2.0443,2.0467,2.0492,2.0523,2.0566,2.0586,2.0576,2.0527,2.0527,2.0504,2.0457,2.0691,2.1123,2.1727,2.1974,2.2526,2.3356,2.3311,2.3739,0.0,0.0,-1.6426,-1.6445,-1.7051,-1.7628,-1.7664,-1.8318,-1.8474,-1.6875,-1.7881,-1.8816,-1.8073,-1.8557,-1.9352,-2.0158,-2.0307,-2.0297,-2.0297,-2.0297,-2.0317,-2.0388,-2.04,-2.0368,0.0,-2.0192,-2.0076,-2.0003,-1.988,-1.9505,-1.8862,-1.9489,-1.9558,-1.89,-1.8491,-1.772,-1.6586,-1.4855,-1.3047,-1.1074,-0.8898,-0.6841,-0.4966,-0.388,-0.3774,-0.4499,-0.455,-0.4799,-0.5125,-0.5168,-0.5214,-0.5176,-0.4602,-0.4029,-0.3278,-0.1678,0.0883,0.3612,0.3635,0.4744,0.6247,0.6855,0.8191,0.9628,1.0104,1.1275,1.2519,1.302,1.3822,1.4693,1.5461,1.5655,1.6022,1.7384,1.7825,1.823,1.9286,1.9627,1.9869,2.0398,2.0498,2.0517,2.0586,2.0599,2.0585,2.0585,2.0591,2.0565,2.0515,2.0549,2.0568,2.0494,2.0496,2.047,2.0414,2.046,2.0498,2.0498,2.0557,2.0596,2.0596,2.0596,2.0596,2.0586,2.1416,2.1836,2.1797,2.2646,2.3466,2.4255,2.4265,2.4694,0.0,0.0,-1.7504,-1.8078,-1.843,-1.878,-1.9367,-1.9721,-1.96,-1.8458,-1.8691,-1.8837,-1.7989,-1.8047,-1.852,-1.9371,-1.9497,-1.9711,-2.0283,-2.0404,-2.0419,-2.04,-2.0398,0.0,0.0,0.0,0.0,-1.989,-1.9834,-1.9548,-1.8963,-1.9004,-1.9081,-1.9152,-1.8641,-1.7997,-1.7193,-1.5721,-1.3649,-1.0988,-0.8516,-0.6801,-0.5814,-0.5439,-0.5199,-0.5101,-0.5539,-0.5534,-0.5348,-0.5741,-0.5435,-0.4694,-0.4476,-0.4089,-0.3524,-0.2993,-0.1112,0.1422,0.3058,0.42,0.5194,0.6561,0.7363,0.8064,0.9368,1.0292,1.1169,1.233,1.3107,1.3776,1.4627,1.522,1.5711,1.6203,1.7059,1.7961,1.8627,1.9124,1.9611,2.0191,2.0297,2.0336,2.0453,2.0471,2.047,2.047,2.0537,2.0575,2.0511,2.0519,2.0507,2.0433,2.0424,2.0419,2.0398,2.046,2.0496,2.0498,2.0557,2.0596,2.0596,2.1162,2.1465,2.1465,2.2324,2.3008,2.3525,2.3818,2.4403,2.5227,2.5178,2.5312,-1.7313,-1.7867,-1.8503,-1.9347,-1.9561,-1.9716,-2.0266,-2.0163,-1.969,-1.8854,-1.8416,-1.804,-1.7509,-1.7414,-1.7681,-1.8527,-1.8926,-1.9435,-2.0309,-2.0741,-2.1058,-2.13,-2.1049,0.0,0.0,0.0,0.0,-1.9813,-1.9682,-1.9401,-1.8878,-1.8688,-1.86,-1.8583,-1.8135,-1.747,-1.6607,-1.5628,-1.382,-1.1196,-0.8933,-0.7437,-0.67,-0.65,-0.6137,-0.5653,-0.605,-0.609,-0.5947,-0.6343,-0.591,-0.5043,-0.4824,-0.4397,-0.3882,-0.3679,-0.2233,-0.0044,0.2664,0.3822,0.438,0.5885,0.6654,0.728,0.878,0.9688,1.0479,1.1822,1.2507,1.3091,1.4031,1.4641,1.5086,1.5483,1.6283,1.7172,1.8033,1.8591,1.9138,1.9828,2.0025,2.0146,2.0297,2.037,2.0399,2.0399,2.0469,2.0505,2.0469,2.0463,2.0441,2.0369,2.0356,2.036,2.036,2.0398,2.043,2.0426,2.0505,2.0557,2.0557,2.1416,2.1904,2.1904,2.3037,2.3877,2.4404,2.4707,2.5146,2.5703,2.5664,2.5622,-1.8763,-1.9257,-1.95,-2.022,-2.0414,-2.0395,-2.035,-1.9704,-1.8845,-1.7946,-1.7111,-1.6532,0.0,0.0,-1.6835,-1.7691,-1.8558,-1.9467,-2.0425,-2.1266,-2.209,0.0,0.0,0.0,0.0,0.0,0.0,-1.98,0.0,-1.9106,-1.8632,-1.8594,-1.8194,-1.7336,-1.709,-1.6344,-1.5026,-1.4768,-1.3684,-1.1816,-1.0283,-0.9004,-0.7911,-0.7352,-0.6833,-0.6267,-0.6267,-0.6562,-0.6979,-0.6979,-0.6686,-0.6136,-0.5524,-0.4911,-0.4349,-0.3808,-0.2591,-0.0798,0.2323,0.3483,0.3767,0.4865,0.5979,0.7116,0.8252,0.9332,1.0335,1.1425,1.206,1.2673,1.3589,1.3861,1.4193,1.5294,1.5577,1.6022,1.7513,1.8076,1.8494,1.9291,1.9663,1.9935,2.013,2.0286,2.0381,2.0381,2.0398,2.0388,2.0385,2.0389,2.0369,2.0312,2.0302,2.0302,2.0302,2.0302,2.0306,2.0306,2.0423,2.0498,2.0498,2.1435,2.1963,2.1963,2.3613,2.4473,2.4473,2.5303,2.5703,2.5703,2.5703,2.5661,-1.9179,-2.0065,-2.0972,-2.0572,-2.0468,-2.0301,-1.9648,-1.9326,-1.8564,-1.6408,-1.579,-1.5262,0.0,0.0,0.0,-1.6691,-1.7665,0.0,-2.1096,-2.1593,0.0,0.0,0.0,-2.225,-2.1377,-2.1016,0.0,0.0,-1.9573,-1.9256,-1.8623,-1.8594,-1.8194,-1.7336,-1.7003,-1.6414,-1.5461,-1.4157,-1.3103,-1.2324,-1.1159,-1.0263,-0.9568,-0.908,-0.8333,-0.745,-0.745,-0.728,-0.6979,-0.6979,-0.6686,-0.6136,-0.5524,-0.4911,-0.4349,-0.3799,-0.2769,-0.1381,0.0311,0.2092,0.3656,0.3946,0.481,0.5936,0.7074,0.8195,0.9293,1.0335,1.126,1.2102,1.2702,1.3393,1.4052,1.4631,1.519,1.5864,1.6799,1.7457,1.8009,1.8503,1.9098,1.9538,1.9599,1.9875,2.0107,2.0107,2.0234,2.0327,2.033,2.0332,2.0321,2.0302,2.0302,2.0302,2.0302,2.0302,2.03,2.0299,2.0379,2.0451,2.0498,2.1982,2.2793,2.2793,2.4492,2.5371,2.5371,2.5586,2.5703,2.5703,2.5703,2.5661,-2.0168,-2.0683,-2.1021,-2.0572,-2.0194,-1.9704,-1.8828,-1.8044,-1.6957,-1.5112,-1.445,0.0,0.0,0.0,0.0,0.0,0.0,0.0,-2.113,-2.1814,-2.2467,0.0,-2.3427,0.0,-2.1713,-2.1224,-2.0508,0.0,-1.9427,-1.9209,-1.8623,-1.8594,-1.8194,-1.7336,-1.6977,-1.6258,-1.5138,-1.3782,-1.2891,-1.2508,-1.1726,-1.0965,-1.0176,-0.9919,-0.9222,-0.8238,0.0,-0.7701,-0.7363,-0.7105,-0.6686,-0.6136,-0.5524,-0.4911,-0.4347,-0.3796,-0.3176,-0.2325,-0.0624,0.0892,0.2185,0.3238,0.4027,0.4856,0.6518,0.7453,0.8277,0.9778,1.0642,1.126,1.1987,1.2737,1.338,1.3776,1.4519,1.533,1.6045,1.678,1.7445,1.8084,1.8704,1.9151,1.9151,1.9466,1.9739,1.9739,1.9933,2.0098,2.0161,2.0251,2.0302,2.0302,2.0302,2.0302,2.0302,2.0302,2.0302,2.0302,2.034,2.0386,2.0451,2.216,2.3096,2.3096,2.4814,2.5703,2.5703,2.5703,2.5703,2.5703,2.5703,2.5654,-2.1109,-2.1026,-2.0516,-2.0394,-1.9747,-1.8876,-1.7917,-1.6425,-1.4947,-1.3846,0.0,-1.2519,-1.2276,0.0,-1.3981,-1.4857,0.0,-1.8375,-2.0976,-2.2,-2.3054,-2.4615,-2.4181,-2.3348,-2.2288,-2.1445,-2.0458,-1.9252,-1.9221,-1.9057,-1.8566,-1.8556,-1.8153,-1.7336,-1.6926,-1.6039,-1.4582,-1.371,-1.3064,-1.2579,-1.2102,-1.1377,-1.0407,-1.0335,-0.9762,-0.8797,-0.8316,0.0,-0.787,-0.7321,-0.6813,-0.6264,-0.5655,-0.5043,-0.4434,-0.3924,-0.3672,-0.3277,-0.1028,-0.0134,0.0357,0.244,0.3323,0.3978,0.6086,0.682,0.7439,0.9415,1.006,1.033,1.1425,1.1982,1.2431,1.297,1.3756,1.4624,1.536,1.6115,1.6896,1.776,1.8274,1.8601,1.8655,1.8986,1.9281,1.936,1.9592,1.9794,1.9944,2.0134,2.0277,2.0294,2.0302,2.0302,2.0302,2.0302,2.0302,2.0302,2.0302,2.0379,2.0552,2.2182,2.3133,2.3262,2.4863,2.5693,2.5703,2.5703,2.5703,2.5703,2.5703,2.5626,-2.0509,-2.0788,-2.1073,-2.04,-1.9502,-1.8415,-1.6992,-1.5834,0.0,0.0,0.0,-1.1249,-1.0506,-1.1617,0.0,-1.467,0.0,0.0,0.0,0.0,-2.2953,0.0,0.0,0.0,0.0,0.0,0.0,0.0,0.0,-1.8816,-1.829,-1.827,-1.7971,-1.7312,-1.6704,-1.5907,-1.492,-1.4484,-1.3875,-1.3088,-1.2615,-1.206,-1.1505,-1.1041,-1.0321,-0.9359,-0.9279,0.0,-0.7874,-0.7787,-0.7405,-0.681,-0.6261,-0.5655,-0.5087,-0.448,-0.3965,-0.3402,-0.1964,-0.0848,0.0089,0.0491,0.1952,0.3807,0.4808,0.601,0.728,0.8574,0.9244,0.9773,1.0852,1.1175,1.1496,1.2773,1.3505,1.4139,1.5,1.5802,1.6504,1.6927,1.726,1.7563,1.7847,1.8223,1.8651,1.9161,1.937,1.9563,1.9804,1.9963,2.0115,2.0277,2.0302,2.0302,2.0302,2.0302,2.0302,2.0302,2.0302,2.0631,2.1353,2.2394,2.33,2.4082,2.5098,2.5644,2.5703,2.5703,2.5703,2.5703,2.5703,2.5664,-2.0613,-2.0594,-2.047,-2.0087,-1.8979,-1.7558,-1.5986,0.0,0.0,0.0,0.0,-1.0274,-0.9782,0.0,0.0,0.0,0.0,0.0,0.0,0.0,0.0,0.0,0.0,0.0,0.0,0.0,0.0,0.0,0.0,-1.8891,-1.8225,-1.807,-1.7701,-1.7052,-1.673,-1.6082,-1.5047,-1.4669,-1.4181,-1.3547,-1.3076,-1.2508,-1.178,-1.1547,-1.0867,-0.9922,-0.9642,0.0,-0.8679,-0.8115,-0.7746,-0.7405,-0.652,-0.583,-0.5219,-0.4607,-0.4051,-0.3535,-0.2954,-0.1519,-0.0,-0.0,0.1226,0.2842,0.3809,0.5067,0.6359,0.7495,0.8203,0.8848,0.9933,1.0379,1.0838,1.2105,1.316,1.4083,1.4907,1.5543,1.6067,1.6466,1.6767,1.7101,1.7436,1.7765,1.8147,1.86,1.8856,1.9108,1.943,1.9541,1.9734,2.0097,2.0142,2.0188,2.0294,2.0302,2.0302,2.0302,2.0696,2.1131,2.1574,2.2869,2.3789,2.4243,2.5143,2.5615,2.5654,2.5684,2.5703,2.5703,2.5703,2.5664,-2.0552,-2.0282,-1.9762,-1.9762,-1.8478,-1.6784,-1.5179,-1.3526,0.0,0.0,-0.9675,-0.9612,-0.9482,0.0,0.0,0.0,0.0,0.0,0.0,0.0,0.0,0.0,0.0,0.0,0.0,0.0,0.0,0.0,0.0,0.0,-1.8147,-1.7905,-1.7566,-1.7035,-1.6866,-1.6336,-1.5345,-1.4869,-1.4438,-1.4026,-1.3581,-1.2912,-1.2079,-1.1987,-1.1399,-1.0428,-0.9986,0.0,0.0,-0.848,-0.7995,-0.7791,-0.6774,-0.6002,-0.5435,-0.4826,-0.4224,-0.3753,-0.3634,-0.2179,-0.0351,-0.0085,0.0821,0.2,0.3169,0.4248,0.5315,0.6604,0.7154,0.7684,0.8996,0.955,1.0136,1.1571,1.2841,1.3973,1.4783,1.5256,1.5585,1.5966,1.634,1.6704,1.7019,1.7326,1.7642,1.8027,1.8333,1.8652,1.9017,1.9066,1.9278,1.9769,1.9935,2.0059,2.0223,2.0277,2.0369,2.0552,2.1148,2.1688,2.2121,2.3447,2.4274,2.4457,2.5182,2.5564,2.5582,2.5631,2.566,2.566,2.566,2.5643,-1.955,-1.9688,-1.9609,-1.9609,-1.8276,-1.6527,-1.4904,0.0,0.0,-0.9726,-0.9439,-0.9473,-0.934,-0.997,0.0,0.0,0.0,0.0,0.0,0.0,0.0,0.0,0.0,0.0,0.0,0.0,0.0,0.0,0.0,0.0,-1.7833,-1.7803,-1.7758,-1.7712,-1.7117,-1.6567,-1.6103,-1.5389,-1.4845,-1.4438,-1.4026,-1.3536,-1.2964,-1.2614,-1.1872,-1.0943,-1.0862,0.0,0.0,-0.8882,-0.8357,-0.7829,-0.7192,-0.6601,-0.6047,-0.5437,-0.4826,-0.4262,-0.3751,-0.2743,-0.1471,-0.0377,0.0819,0.1978,0.2866,0.3688,0.4637,0.6349,0.6297,0.6187,0.8258,0.8585,0.9062,1.1722,1.2763,1.3417,1.436,1.4876,1.5157,1.5187,1.5595,1.6011,1.634,1.6651,1.7085,1.7656,1.8027,1.8351,1.8614,1.866,1.8815,1.9228,1.9713,2.0012,2.0022,2.0187,2.061,2.1341,2.1466,2.2206,2.3802,2.4023,2.4476,2.5264,2.537,2.5447,2.5507,2.5517,2.5517,2.5517,2.5517,2.5554,-1.8382,-1.8715,-1.8989,-1.8989,-1.7765,-1.6118,-1.4508,0.0,-1.1323,-0.9642,-0.9275,-0.9246,-0.9188,-0.938,-0.9881,-1.0933,-1.1382,-1.2505,0.0,0.0,0.0,0.0,0.0,0.0,0.0,0.0,0.0,0.0,0.0,0.0,-1.7811,-1.7811,-1.762,-1.7216,-1.6942,-1.652,-1.5958,-1.5389,-1.5006,-1.4845,-1.4214,-1.363,-1.3101,-1.2684,-1.2138,-1.1457,-1.0871,0.0,0.0,-0.8861,-0.8227,-0.7921,-0.7353,-0.6737,-0.6181,-0.5919,-0.5219,-0.4301,-0.3778,-0.3298,-0.2546,-0.0649,0.0325,0.1024,0.2612,0.328,0.3745,0.5099,0.5503,0.5857,0.75,0.8647,0.9696,1.0796,1.1701,1.2578,1.3451,1.3782,1.4139,1.493,1.5262,1.558,1.6183,1.6402,1.6644,1.7093,1.7271,1.7522,1.7992,1.8064,1.8261,1.8789,1.9254,1.9653,1.9974,2.0069,2.0514,2.1438,2.1985,2.2822,2.4052,2.4562,2.4995,2.5322,2.538,2.5408,2.5443,2.5482,2.5501,2.5501,2.5501,2.5517,-1.7586,-1.7967,-1.8277,-1.8277,-1.7276,-1.58,0.0,0.0,-1.114,-0.9513,-0.9138,-0.9087,-0.9045,-0.8968,-0.9134,-0.9832,-0.9945,-1.0731,-1.2983,0.0,0.0,0.0,0.0,0.0,0.0,0.0,0.0,0.0,0.0,0.0,-1.7811,-1.7811,-1.7581,-1.7109,-1.6909,-1.6581,-1.6088,-1.5558,-1.5322,-1.5292,-1.4596,-1.3986,-1.3505,-1.2914,-1.2322,-1.1706,-1.0793,0.0,0.0,-0.8755,-0.8067,-0.7824,-0.7285,-0.6727,-0.6158,-0.5997,-0.5318,-0.4393,-0.3843,-0.359,-0.3175,-0.1198,-0.0114,0.0674,0.2108,0.2764,0.3193,0.409,0.4974,0.5876,0.7009,0.8515,0.9831,1.0138,1.0917,1.1825,1.2712,1.3011,1.3438,1.4544,1.4944,1.5277,1.586,1.6148,1.6375,1.6615,1.6746,1.6943,1.7389,1.752,1.7768,1.8287,1.8672,1.913,1.9703,1.9873,2.045,2.1665,2.2307,2.3149,2.426,2.4852,2.5149,2.5149,2.5197,2.5216,2.5216,2.5264,2.5283,2.5292,2.5541,2.5825,-1.7289,-1.7608,-1.7506,-1.7506,-1.6903,-1.5642,0.0,-1.2094,-1.1083,-0.9276,-0.9003,-0.9055,-0.8925,-0.8902,-0.9099,-0.9706,-0.9803,-1.057,-1.2788,0.0,0.0,0.0,0.0,0.0,0.0,0.0,0.0,0.0,0.0,0.0,-1.7811,-1.7811,-1.7811,-1.7789,-1.7142,-1.6789,-1.6789,-1.6143,-1.5799,-1.5799,-1.5322,-1.4883,-1.4442,-1.3454,-1.2532,0.0,0.0,0.0,0.0,-0.8574,-0.7952,-0.7567,-0.7017,-0.6553,-0.6129,-0.553,-0.4993,-0.453,-0.3974,-0.3566,-0.314,-0.2111,-0.0386,0.1283,0.1316,0.2097,0.3126,0.3646,0.4813,0.6069,0.6797,0.7859,0.895,0.9943,1.0614,1.1276,1.2282,1.2834,1.3249,1.3815,1.4564,1.5104,1.5104,1.5775,1.6293,1.6293,1.6588,1.6789,1.6815,1.7101,1.7414,1.767,1.8005,1.8475,1.9151,1.9569,2.0507,2.2186,2.2299,2.3044,2.4719,2.4795,2.4804,2.4804,2.4804,2.4804,2.4804,2.4804,2.4804,2.4832,2.5614,2.6559,-1.4173,-1.4775,-1.533,-1.4822,-1.4132,-1.3222,-1.1875,-1.1015,-1.0201,-0.9117,-0.8936,-0.8957,-0.8902,-0.8891,-0.9134,-0.9819,-0.9932,0.0,0.0,0.0,0.0,0.0,0.0,0.0,0.0,0.0,0.0,0.0,0.0,0.0,-1.7811,-1.7572,-1.7447,-1.7447,-1.6756,-1.6193,-1.5777,-1.5055,-1.4609,-1.4431,-1.3998,-1.3615,-1.3236,-1.261,-1.2069,0.0,0.0,0.0,0.0,-0.8654,-0.7993,-0.7492,-0.7029,-0.6765,-0.6546,-0.6075,-0.5556,-0.5025,-0.453,-0.3795,-0.3038,-0.2769,-0.1299,0.0639,0.1891,0.2495,0.2967,0.3727,0.4769,0.5769,0.6317,0.7552,0.8797,0.9102,0.9859,1.0687,1.1351,1.1856,1.2449,1.3187,1.4076,1.4783,1.5036,1.5595,1.5962,1.5962,1.606,1.6191,1.6429,1.6546,1.6809,1.7367,1.7704,1.8217,1.9127,1.9326,2.0224,2.2182,2.2079,2.2811,2.4714,2.4576,2.4576,2.4804,2.4804,2.4804,2.4804,2.4804,2.5082,2.5633,2.5881,2.677,0.0,-1.3067,-1.3565,-1.3092,-1.2635,-1.2018,-1.0935,-1.0322,-0.9794,-0.9052,-0.8891,-0.8891,-0.8891,-0.8891,-0.9029,-0.9442,-0.9748,0.0,0.0,0.0,0.0,0.0,0.0,0.0,0.0,0.0,0.0,0.0,0.0,0.0,-1.7811,-1.7471,-1.7288,-1.7288,-1.6456,-1.5702,-1.5088,-1.4489,-1.4078,-1.381,-1.3557,-1.3229,-1.2864,-1.2252,-1.1762,0.0,0.0,0.0,0.0,-0.8652,-0.8004,-0.753,-0.6981,-0.6635,-0.6427,-0.5992,-0.5401,-0.4763,-0.4467,-0.3732,-0.2878,-0.2941,-0.1624,0.0202,0.1347,0.2157,0.2826,0.3368,0.4276,0.5204,0.5788,0.707,0.8298,0.8606,0.9359,1.0186,1.0862,1.1436,1.2012,1.2724,1.3617,1.4342,1.4596,1.5134,1.5544,1.5544,1.5704,1.5877,1.6088,1.6219,1.6501,1.7052,1.7382,1.7886,1.8744,1.9171,2.0059,2.1669,2.184,2.2566,2.4126,2.4008,2.398,2.4182,2.4209,2.4263,2.4386,2.4825,2.5598,2.6682,2.6682,2.7427,0.0,-1.2192,-1.2119,-1.2069,-1.206,-1.1679,-1.0246,-0.9916,0.0,-0.9035,-0.8891,-0.8908,-0.8967,-0.8934,-0.8905,-0.8948,-0.9478,0.0,0.0,0.0,0.0,0.0,0.0,0.0,0.0,0.0,0.0,0.0,0.0,0.0,-1.7811,-1.7471,-1.7271,-1.7214,-1.6209,-1.5359,-1.4711,-1.4288,-1.3949,-1.3693,-1.3668,-1.3451,-1.3044,-1.2228,-1.1616,0.0,0.0,0.0,0.0,-0.864,-0.8099,-0.7656,-0.6845,-0.6305,-0.5882,-0.5491,-0.4797,-0.4088,-0.4023,-0.3469,-0.278,-0.2726,-0.1478,-0.0,-0.0,0.1208,0.2623,0.2669,0.3526,0.4583,0.5299,0.646,0.7621,0.8508,0.9119,0.9751,1.0748,1.1356,1.1884,1.236,1.3216,1.3861,1.3894,1.4564,1.5104,1.5104,1.5514,1.5799,1.5799,1.606,1.6402,1.6738,1.7043,1.7486,1.8121,1.9078,2.0023,2.0856,2.1578,2.2332,2.3162,2.3174,2.3174,2.3189,2.3189,2.3337,2.3671,2.4789,2.613,2.7651,2.7715,2.831,-0.9648,0.0,-1.0411,-0.984,-0.9696,-0.9603,0.0,-0.9162,-0.9111,-0.8934,0.0,-0.9069,-0.9641,-0.9281,-0.9455,-1.118,-1.1073,0.0,0.0,0.0,0.0,0.0,0.0,0.0,0.0,0.0,0.0,0.0,0.0,-1.7526,-1.7789,-1.7471,-1.7041,-1.6482,-1.5662,-1.5073,-1.4703,-1.3539,-1.2851,-1.2577,-1.2358,-1.2095,-1.1748,-1.1527,-1.1117,0.0,0.0,0.0,-0.9348,-0.8877,-0.8461,-0.8075,-0.7262,-0.6725,-0.6305,-0.5917,-0.5425,-0.4893,-0.4218,-0.3861,-0.3569,-0.2926,-0.1478,-0.0,-0.0,0.0771,0.1773,0.2499,0.3526,0.4583,0.5299,0.646,0.7621,0.8508,0.9119,0.9677,1.0307,1.084,1.1351,1.1847,1.2689,1.3437,1.3822,1.4564,1.5104,1.5104,1.5514,1.5799,1.5799,1.5877,1.6039,1.6375,1.6501,1.691,1.7815,1.8826,1.9825,2.0834,2.1342,2.2087,2.3162,2.2939,2.2939,2.3189,2.3189,2.3245,2.3323,2.4153,2.506,2.6065,2.6931,2.781,-0.8891,-0.9438,-0.9899,-0.9506,-0.9404,-0.9404,-0.9404,0.0,0.0,0.0,0.0,-0.9128,-0.9857,-0.9572,0.0,0.0,0.0,0.0,0.0,0.0,0.0,0.0,0.0,0.0,0.0,0.0,0.0,0.0,0.0,-1.7368,-1.7549,-1.7392,-1.7043,-1.6499,-1.558,-1.4959,-1.4703,-1.3615,-1.3088,-1.3154,-1.2546,-1.2171,-1.1967,-1.1501,-1.1043,0.0,0.0,0.0,-0.9613,-0.923,-0.885,-0.8467,-0.7676,-0.7114,-0.6695,-0.6125,-0.5637,-0.5166,-0.4503,-0.4018,-0.3565,-0.2924,-0.1746,-0.0536,-0.0134,0.0335,0.0971,0.231,0.3135,0.383,0.476,0.5742,0.6782,0.7858,0.8627,0.9279,0.9799,1.0485,1.1169,1.17,1.2354,1.2979,1.3507,1.4123,1.4564,1.4564,1.5074,1.5485,1.5485,1.5675,1.5934,1.6266,1.6293,1.671,1.7717,1.8621,1.9488,2.0391,2.0956,2.1552,2.2165,2.2188,2.2386,2.2773,2.3257,2.3708,2.4076,2.498,2.58,2.6614,2.7228,2.7736,-0.9035,-0.9607,-1.0111,-0.9883,-0.9916,-1.0001,-1.0001,0.0,0.0,0.0,0.0,0.0,0.0,0.0,0.0,0.0,0.0,0.0,0.0,0.0,0.0,0.0,0.0,0.0,0.0,0.0,0.0,0.0,0.0,-1.7248,-1.7288,-1.7344,-1.7224,-1.6892,-1.5891,-1.5266,-1.5106,-1.4095,-1.3798,-1.4202,-1.3244,-1.2756,-1.2613,-1.1863,-1.1311,-1.0944,0.0,0.0,-0.9944,-0.9561,-0.9155,-0.8728,-0.8055,-0.7506,-0.6995,-0.6279,-0.5689,-0.5241,-0.4689,-0.3978,-0.3229,-0.2823,-0.2049,-0.1138,-0.0268,-0.0,0.0336,0.1848,0.2477,0.2929,0.4009,0.4851,0.5785,0.7101,0.7961,0.8681,0.9346,1.0171,1.0938,1.1547,1.2071,1.2538,1.3012,1.3541,1.3901,1.3901,1.4596,1.5104,1.5104,1.5514,1.5936,1.6309,1.6365,1.6794,1.7858,1.8509,1.915,1.9838,2.0576,2.0999,2.0999,2.1407,2.1794,2.218,2.3279,2.4154,2.4832,2.5983,2.6887,2.754,2.7721,2.7803,-0.9667,-1.0377,-1.0631,-0.9382,-0.954,-1.0001,-1.0001,0.0,0.0,0.0,0.0,0.0,0.0,0.0,0.0,0.0,0.0,0.0,0.0,0.0,0.0,0.0,0.0,0.0,0.0,0.0,0.0,0.0,0.0,-1.701,-1.7288,-1.7572,-1.7581,-1.7215,-1.6714,-1.6602,-1.6903,-1.4716,-1.3653,-1.3786,-1.3115,-1.2508,-1.1969,-1.2373,-1.2078,-1.124,0.0,-1.1152,-1.0279,-0.9653,-0.9155,-0.8761,-0.8359,-0.7744,-0.7054,-0.6575,-0.6152,-0.563,-0.45,-0.3756,-0.3229,-0.2823,-0.2049,-0.1138,-0.0268,-0.0,0.0067,0.0336,0.1502,0.2861,0.346,0.4387,0.5553,0.7046,0.7497,0.7968,0.9244,0.9637,1.0021,1.0938,1.1542,1.2071,1.2544,1.3325,1.3901,1.3901,1.4596,1.5104,1.5104,1.5514,1.6016,1.6593,1.6646,1.7172,1.8457,1.8679,1.9027,1.9693,2.0518,2.0999,2.0999,2.1407,2.162,2.1726,2.2862,2.3532,2.3671,2.5079,2.5834,2.597,2.6938,2.7387,-0.9201,-0.9662,-0.9848,-0.9565,-1.0377,-1.1248,-1.1248,0.0,0.0,0.0,0.0,0.0,0.0,0.0,0.0,0.0,0.0,0.0,0.0,0.0,0.0,0.0,0.0,0.0,0.0,0.0,0.0,0.0,0.0,0.0,-1.7035,-1.7511,-1.7658,-1.732,-1.6898,-1.6894,-1.7312,-1.5778,-1.4939,-1.4842,-1.4145,-1.3298,-1.2374,-1.3229,-1.2771,-1.1339,0.0,-1.1471,-1.0378,-1.0078,-0.9615,-0.9095,-0.8717,-0.8236,-0.7681,-0.7054,-0.6305,-0.5488,-0.4874,-0.4234,-0.356,-0.2909,-0.2414,-0.1812,-0.0403,-0.0,-0.0,-0.0,0.0937,0.2111,0.2872,0.3897,0.5003,0.6117,0.6908,0.7706,0.8829,0.9279,0.9785,1.0786,1.1207,1.1616,1.236,1.2842,1.3229,1.348,1.4058,1.4438,1.4438,1.5006,1.5667,1.6305,1.6581,1.7242,1.8597,1.8702,1.8986,1.9645,2.0085,2.0405,2.0616,2.1047,2.1368,2.159,2.2781,2.3596,2.3985,2.5076,2.5803,2.6201,2.6744,2.6971,-0.8917,-0.9027,-0.912,-1.003,0.0,-1.1899,-1.2432,0.0,0.0,0.0,0.0,0.0,0.0,0.0,0.0,0.0,0.0,0.0,0.0,0.0,0.0,0.0,0.0,0.0,0.0,0.0,0.0,0.0,0.0,0.0,-1.6789,-1.744,-1.7681,-1.7424,-1.7126,-1.7101,-1.7415,-1.6688,-1.609,-1.5643,-1.518,-1.4145,-1.269,-1.3798,-1.326,-1.1452,-1.2036,-1.1661,-1.0592,-1.047,-1.0046,-0.9457,-0.9089,-0.8629,-0.8075,-0.7355,-0.6393,-0.5428,-0.5247,-0.4744,-0.3988,-0.3126,-0.2775,-0.2385,-0.0804,-0.0168,-0.0,-0.0,0.0637,0.1506,0.2466,0.3498,0.4485,0.514,0.6224,0.7347,0.8121,0.8829,0.9593,1.0475,1.0824,1.1276,1.2174,1.2431,1.2656,1.3129,1.3615,1.3901,1.3901,1.4596,1.5348,1.6037,1.6612,1.7473,1.8822,1.8934,1.9144,1.9652,1.9682,1.9846,2.0158,2.0591,2.0983,2.129,2.2468,2.3441,2.4168,2.4912,2.5723,2.6556,2.6556,2.6581,-0.9528,-0.9421,-0.9238,-1.0665,-1.0597,0.0,-1.2846,-1.2177,0.0,-1.3425,0.0,0.0,0.0,0.0,0.0,0.0,0.0,0.0,0.0,0.0,0.0,0.0,0.0,0.0,0.0,0.0,0.0,0.0,0.0,0.0,-1.6789,-1.744,-1.7789,-1.7758,-1.7738,-1.7729,-1.7758,-1.7037,-1.6185,-1.5245,-1.5561,-1.4495,-1.2293,-1.3673,-1.3367,-1.1784,-1.2138,-1.1878,-1.1182,-1.064,-1.0146,-0.9747,-0.9457,-0.8701,-0.7681,-0.7262,-0.6575,-0.5789,-0.5366,-0.4935,-0.4406,-0.3551,-0.2997,-0.2501,-0.1504,-0.0637,-0.0,-0.0,0.0639,0.1511,0.2468,0.3368,0.4122,0.4574,0.5481,0.6446,0.6997,0.7998,0.8918,0.9514,1.036,1.1169,1.1737,1.2216,1.2656,1.3129,1.3615,1.3901,1.3901,1.4596,1.5348,1.6037,1.7018,1.8186,1.9503,1.9615,1.9637,1.9682,1.9682,1.9718,1.9754,2.0124,2.0374,2.0374,2.1588,2.2519,2.3216,2.3943,2.4907,2.6041,2.6041,2.6289,-0.8914,-0.8781,-0.8688,-1.0614,-1.0893,0.0,0.0,-1.3295,-1.3496,0.0,0.0,0.0,0.0,0.0,0.0,0.0,0.0,0.0,0.0,0.0,0.0,0.0,0.0,0.0,0.0,0.0,0.0,0.0,0.0,0.0,-1.7101,-1.7557,-1.76,-1.7126,-1.7109,-1.7109,-1.7109,-1.6843,-1.6273,-1.5447,-1.5604,-1.477,-1.3164,-1.4123,-1.3623,-1.207,-1.2455,-1.2105,-1.1273,-1.1043,-1.0644,-1.0103,-0.9319,-0.8473,-0.7686,-0.7525,-0.6798,-0.5913,-0.5987,-0.5404,-0.4503,-0.3921,-0.3259,-0.2532,-0.157,-0.0704,-0.0,-0.0,0.0235,0.0839,0.2314,0.3047,0.3627,0.457,0.5371,0.6176,0.7303,0.814,0.8878,0.9399,1.0069,1.072,1.1207,1.1468,1.1836,1.2644,1.2924,1.312,1.3419,1.3993,1.46,1.5236,1.6882,1.8431,1.9607,1.9682,1.9682,1.9682,1.9682,1.9682,1.9682,2.0097,2.0314,2.0314,2.1042,2.1951,2.3111,2.3367,2.4188,2.5494,2.5844,2.6085,-0.862,-0.8527,-0.8629,-1.0605,0.0,0.0,-1.3396,-1.4141,-1.4729,0.0,0.0,0.0,0.0,0.0,0.0,0.0,0.0,0.0,0.0,0.0,0.0,0.0,0.0,0.0,0.0,0.0,0.0,0.0,0.0,0.0,0.0,-1.7207,-1.7109,-1.6385,-1.636,-1.636,-1.636,-1.636,-1.6086,-1.5595,-1.5358,-1.4633,-1.3492,-1.4204,-1.3664,-1.2228,-1.249,-1.2179,-1.1445,-1.1242,-1.0815,-1.016,-0.9325,-0.8612,-0.8026,-0.7913,-0.7132,-0.6125,-0.6397,-0.5747,-0.473,-0.4186,-0.3523,-0.2794,-0.1974,-0.0939,-0.0,-0.0,-0.0,0.0371,0.1993,0.2714,0.3279,0.4365,0.5172,0.6023,0.7131,0.8062,0.8801,0.9159,0.9799,1.0467,1.0905,1.1014,1.1351,1.2354,1.2502,1.2685,1.3123,1.3615,1.4253,1.5192,1.6641,1.8064,1.9339,1.9442,1.9522,1.9682,1.9682,1.9682,1.9682,1.9965,2.0124,2.0124,2.0439,2.1188,2.2329,2.2329,2.313,2.4647,2.5005,2.5395,-0.8883,-0.8891,-0.9264,0.0,0.0,0.0,0.0,-1.4511,0.0,0.0,0.0,0.0,0.0,0.0,0.0,0.0,0.0,0.0,0.0,0.0,0.0,0.0,0.0,0.0,0.0,0.0,0.0,0.0,0.0,0.0,0.0,-1.6321,-1.636,-1.5604,-1.5587,-1.5587,-1.5587,-1.5587,-1.5587,-1.5578,-1.4859,-1.3981,-1.3046,-1.3757,-1.3395,-1.2197,-1.2197,-1.2052,-1.1754,-1.1148,-1.0503,-0.9873,-0.9534,-0.9149,-0.8761,-0.8421,-0.7535,-0.6518,-0.6514,-0.5975,-0.5151,-0.4283,-0.3784,-0.3416,-0.2856,-0.1444,-0.0,-0.0,-0.0,0.0272,0.147,0.2386,0.3175,0.3841,0.4857,0.5783,0.6126,0.7516,0.8675,0.8679,0.9562,1.0428,1.0905,1.0976,1.1314,1.2354,1.2508,1.265,1.3123,1.3621,1.4513,1.6137,1.6303,1.7012,1.874,1.8893,1.9125,1.9646,1.9682,1.9682,1.9682,1.9682,1.9682,1.9682,1.9682,2.0026,2.0715,2.073,2.1622,2.3374,2.3414,2.4053,-0.8273,-0.888,0.0,0.0,0.0,0.0,0.0,0.0,0.0,0.0,0.0,0.0,0.0,0.0,0.0,0.0,0.0,0.0,0.0,0.0,0.0,0.0,0.0,0.0,0.0,0.0,0.0,0.0,0.0,0.0,0.0,-1.6105,-1.5587,-1.4859,-1.4834,-1.4834,-1.4834,-1.4834,-1.4834,-1.4826,-1.4596,-1.4331,-1.4049,-1.3559,-1.3019,-1.2475,-1.2271,-1.2052,-1.1754,-1.1148,-1.0777,-1.0521,-0.9706,-0.9149,-0.8761,-0.8421,-0.7715,-0.6875,-0.6605,-0.6156,-0.5578,-0.4695,-0.4178,-0.3721,-0.2937,-0.1871,-0.077,-0.0168,-0.0,0.0272,0.147,0.2613,0.3527,0.4046,0.447,0.5054,0.599,0.6881,0.7747,0.8549,0.9279,0.9917,1.0423,1.0505,1.072,1.1351,1.1768,1.2288,1.3088,1.3699,1.4518,1.5761,1.6203,1.6946,1.8232,1.8696,1.8968,1.9125,1.9486,1.9682,1.9682,1.9682,1.9682,1.9682,1.9682,2.0026,2.0715,2.1178,2.1909,2.294,2.3725,2.4317,-0.9066,0.0,0.0,0.0,0.0,0.0,0.0,0.0,0.0,0.0,0.0,0.0,0.0,0.0,0.0,0.0,0.0,0.0,0.0,0.0,0.0,0.0,0.0,0.0,0.0,0.0,0.0,0.0,0.0,0.0,0.0,-1.5334,-1.4834,-1.409,-1.4064,-1.4064,-1.4064,-1.4064,-1.4064,-1.4064,-1.4064,-1.4064,-1.4048,-1.3443,-1.2952,-1.2572,-1.2202,-1.1876,-1.1564,-1.1101,-1.0818,-1.0636,-0.9887,-0.9283,-0.8789,-0.8578,-0.7907,-0.7054,-0.6635,-0.6244,-0.5762,-0.488,-0.4312,-0.3828,-0.2962,-0.2033,-0.1104,-0.0235,-0.0,0.0238,0.1326,0.2608,0.3698,0.4089,0.4303,0.4739,0.5919,0.6628,0.7287,0.8185,0.8999,0.9602,0.9922,1.0162,1.0467,1.0943,1.1616,1.243,1.3422,1.3883,1.4523,1.5594,1.5984,1.6606,1.7693,1.8059,1.8373,1.8574,1.9088,1.9369,1.9369,1.9603,1.9682,1.9682,1.9682,1.9892,2.0303,2.0707,2.1373,2.2334,2.3013,2.3618,-1.0543,0.0,0.0,0.0,0.0,0.0,0.0,0.0,0.0,0.0,0.0,0.0,0.0,0.0,0.0,0.0,0.0,0.0,0.0,0.0,0.0,0.0,0.0,0.0,0.0,0.0,0.0,0.0,0.0,0.0,0.0,-1.4281,-1.409,-1.3422,-1.3405,-1.3405,-1.3405,-1.3405,-1.3405,-1.3405,-1.3405,-1.3405,-1.3405,-1.3405,-1.3104,-1.2572,-1.2058,-1.1652,-1.1326,-1.1048,-1.0739,-1.0403,-1.0072,-0.949,-0.8844,-0.8816,-0.8125,-0.7143,-0.6665,-0.6275,-0.582,-0.4947,-0.4377,-0.3858,-0.3026,-0.2134,-0.1239,-0.0268,-0.0,0.0204,0.1074,0.2408,0.3637,0.4049,0.4221,0.4652,0.5787,0.6459,0.7039,0.7697,0.8671,0.9439,0.9478,0.9961,1.0467,1.0943,1.1836,1.2836,1.39,1.4092,1.4569,1.558,1.5737,1.6163,1.7142,1.7271,1.751,1.798,1.8535,1.8848,1.8893,1.9406,1.9682,1.9682,1.9682,1.9682,1.9682,1.9802,2.0498,2.1695,2.1814,2.2488,0.0,-1.0221,0.0,0.0,0.0,0.0,0.0,0.0,0.0,0.0,0.0,0.0,0.0,0.0,0.0,0.0,0.0,0.0,0.0,0.0,0.0,0.0,0.0,0.0,0.0,0.0,0.0,0.0,0.0,0.0,-1.4393,-1.3911,-1.3566,-1.3413,-1.3405,-1.3405,-1.3405,-1.3405,-1.3405,0.0,-1.3405,-1.3405,-1.3405,-1.3405,-1.3104,-1.2591,-1.2251,-1.1961,-1.1681,-1.1355,-1.1041,-1.0763,-1.0409,-0.9874,-0.9235,-0.8926,-0.8484,-0.7893,-0.6845,-0.6457,-0.6244,-0.5425,-0.4634,-0.3926,-0.3479,-0.2902,-0.205,-0.0436,-0.0,0.0204,0.1074,0.2092,0.3039,0.3591,0.373,0.3968,0.4652,0.5257,0.5982,0.6994,0.8084,0.8999,0.9439,0.9961,1.0467,1.0943,1.1542,1.2323,1.3328,1.4224,1.4991,1.5624,1.6082,1.6426,1.6667,1.707,1.7347,1.747,1.798,1.8458,1.8893,1.9406,1.9682,1.9682,1.9682,1.9682,1.9682,2.0752,2.141,2.1717,2.2727,2.334,0.0,0.0,0.0,0.0,0.0,0.0,0.0,0.0,0.0,0.0,0.0,0.0,0.0,0.0,0.0,0.0,0.0,0.0,0.0,0.0,0.0,0.0,0.0,0.0,0.0,0.0,0.0,0.0,0.0,-1.3785,-1.3971,-1.3616,-1.3405,-1.3405,-1.3405,-1.3405,-1.3405,-1.3405,-1.3405,-1.3405,-1.3405,-1.3405,-1.3405,-1.3269,-1.2997,-1.2591,-1.2312,-1.2052,-1.1776,-1.1445,-1.1134,-1.0873,-1.0532,-1.0002,-0.9343,-0.8953,-0.8578,-0.8138,-0.6905,-0.6484,-0.6366,-0.5554,-0.4701,-0.3958,-0.3784,-0.3243,-0.2424,-0.1005,-0.0336,0.0101,0.0556,0.1355,0.2265,0.3124,0.3614,0.3999,0.4328,0.5087,0.591,0.6501,0.7558,0.848,0.9039,0.976,1.0467,1.0943,1.1468,1.2261,1.3537,1.4401,1.5185,1.6001,1.6346,1.6515,1.6515,1.6752,1.6915,1.6915,1.7429,1.782,1.8138,1.865,1.9169,1.9682,1.9682,1.9682,1.9682,2.0722,2.1388,2.1717,2.2704,2.331,0.0,0.0,0.0,0.0,0.0,0.0,0.0,0.0,0.0,0.0,0.0,0.0,0.0,0.0,0.0,0.0,0.0,0.0,0.0,0.0,0.0,0.0,0.0,0.0,0.0,0.0,0.0,0.0,0.0,-1.3405,-1.3405,-1.3405,-1.3405,-1.3405,-1.3405,-1.3405,-1.3405,-1.3405,-1.3405,-1.3405,-1.3405,-1.3405,-1.3396,-1.3173,-1.2916,-1.2657,-1.2424,-1.2149,-1.184,-1.1571,-1.1242,-1.0873,-1.0581,-1.0084,-0.9428,-0.8981,-0.8629,-0.8213,-0.6931,-0.6484,-0.6366,-0.5554,-0.4765,-0.4088,-0.4023,-0.3377,-0.2521,-0.1776,-0.0804,-0.0,-0.0,0.0699,0.1655,0.275,0.3641,0.4219,0.4269,0.5219,0.6047,0.6047,0.7105,0.8197,0.876,0.9637,1.0433,1.0835,1.1389,1.2325,1.378,1.449,1.5318,1.6366,1.6515,1.6515,1.6515,1.6515,1.6515,1.6515,1.6915,1.7188,1.7312,1.7747,1.8419,1.9406,1.9509,1.959,1.9708,2.0386,2.1077,2.1706,2.2401,2.3024,0.0,0.0,0.0,0.0,0.0,0.0,0.0,0.0,0.0,0.0,0.0,0.0,0.0,0.0,0.0,0.0,0.0,0.0,0.0,0.0,0.0,0.0,0.0,0.0,0.0,0.0,0.0,0.0,-1.3439,-1.3405,-1.3405,-1.3405,-1.3405,-1.3405,-1.3405,-1.3405,-1.3405,-1.3405,-1.3405,-1.3405,-1.3405,-1.3405,-1.3405,-1.3363,-1.3191,-1.2942,-1.2914,-1.2615,-1.2136,-1.2107,-1.1623,-1.0897,-1.0849,-1.0416,-0.9738,-0.9062,-0.8761,-0.8529,-0.7011,-0.6484,-0.6366,-0.5554,-0.4953,-0.4441,-0.4121,-0.3397,-0.2671,-0.2555,-0.1309,-0.0,-0.0,0.0874,0.1951,0.2868,0.3643,0.4098,0.3761,0.4618,0.5435,0.5435,0.7123,0.876,0.9319,0.9878,1.0317,1.0395,1.1136,1.2127,1.3327,1.4252,1.5235,1.6361,1.6515,1.6515,1.6515,1.6515,1.6515,1.6515,1.6558,1.6837,1.7271,1.7388,1.7706,1.8295,1.8779,1.9273,1.9794,2.0448,2.1099,2.1744,2.2373,2.3025,-0.8407,-1.0301,-1.1899,0.0,0.0,0.0,0.0,0.0,0.0,0.0,0.0,0.0,0.0,0.0,0.0,0.0,0.0,0.0,0.0,0.0,0.0,0.0,0.0,0.0,0.0,0.0,0.0,0.0,-1.3405,-1.3405,-1.3405,-1.3405,-1.3405,-1.3405,-1.3405,-1.3405,-1.3405,-1.3405,-1.3405,-1.3405,-1.3405,-1.3405,-1.3405,-1.3405,-1.3251,-1.3005,-1.3005,-1.2786,-1.2404,-1.2251,-1.1867,-1.1319,-1.1024,-1.0619,-1.011,-0.9378,-0.8981,-0.864,-0.755,-0.6875,-0.6397,-0.5824,-0.5169,-0.4538,-0.4121,-0.3558,-0.2999,-0.2758,-0.1746,-0.0608,-0.014,0.0893,0.2074,0.3147,0.3539,0.3683,0.3634,0.4751,0.5913,0.6207,0.7588,0.8756,0.8999,0.976,1.0361,1.0596,1.1231,1.2224,1.3603,1.4371,1.5229,1.6373,1.6515,1.6515,1.6515,1.6515,1.6515,1.6515,1.6515,1.6595,1.6837,1.6831,1.7106,1.7692,1.818,1.8721,1.929,1.9982,2.0769,2.1729,2.2406,2.3009,-0.8463,-0.97,-1.0519,0.0,0.0,0.0,0.0,0.0,0.0,0.0,0.0,0.0,0.0,0.0,0.0,0.0,0.0,0.0,0.0,0.0,0.0,0.0,0.0,0.0,0.0,0.0,0.0,0.0,-1.3405,-1.3405,-1.3405,-1.3405,-1.3405,-1.3405,-1.3405,-1.3405,-1.3405,-1.3405,-1.3405,-1.3405,-1.3405,-1.3405,-1.3405,-1.3405,-1.3286,-1.3103,-1.3103,-1.2961,-1.2676,-1.2404,-1.202,-1.1549,-1.108,-1.0643,-1.0204,-0.9601,-0.9209,-0.8844,-0.7993,-0.7227,-0.6562,-0.606,-0.5386,-0.4666,-0.4153,-0.3756,-0.3364,-0.2859,-0.2014,-0.1116,-0.0212,0.1116,0.2492,0.3385,0.3485,0.3479,0.3934,0.5053,0.6173,0.6852,0.7931,0.8675,0.8549,0.9595,1.0561,1.0913,1.1453,1.2362,1.3891,1.4349,1.5053,1.6343,1.6374,1.6331,1.6479,1.6515,1.6515,1.6515,1.6515,1.6515,1.6515,1.6515,1.6722,1.7156,1.7659,1.8259,1.892,1.9727,2.0567,2.1506,2.2336,2.292,-0.6453,-0.7408,0.0,0.0,0.0,0.0,0.0,0.0,0.0,0.0,0.0,0.0,0.0,0.0,0.0,0.0,0.0,0.0,0.0,0.0,0.0,0.0,0.0,0.0,0.0,0.0,0.0,0.0,-1.3405,-1.3405,-1.3405,-1.3405,-1.3405,-1.3405,-1.3405,-1.3405,-1.3405,-1.3405,-1.3405,-1.3405,-1.3405,-1.3405,-1.3405,-1.3405,-1.3396,-1.3379,-1.3379,-1.3234,-1.2969,-1.2695,-1.2079,-1.1298,-1.1017,-1.0503,-0.9873,-0.9528,-0.9375,-0.9203,-0.8078,-0.739,-0.6857,-0.6144,-0.5613,-0.5119,-0.425,-0.3991,-0.3798,-0.2926,-0.2014,-0.1106,-0.0236,0.1755,0.3539,0.3567,0.3602,0.3869,0.4964,0.5262,0.569,0.6807,0.7931,0.859,0.8207,0.9644,1.0933,1.1057,1.1714,1.266,1.3937,1.3927,1.4521,1.6287,1.6002,1.5864,1.6466,1.6515,1.6515,1.6515,1.6515,1.6515,1.6515,1.6515,1.6491,1.6566,1.7112,1.7951,1.8981,2.0195,2.0772,2.0897,2.2114,2.2701,-0.6428,-0.7239,0.0,0.0,0.0,0.0,0.0,0.0,0.0,0.0,0.0,0.0,0.0,0.0,0.0,0.0,0.0,0.0,0.0,0.0,0.0,0.0,0.0,0.0,0.0,0.0,0.0,0.0,0.0,-1.3405,-1.3405,-1.3405,-1.3405,-1.3405,-1.3405,-1.3405,-1.3405,-1.3405,-1.3405,-1.3405,-1.3405,-1.3405,-1.3405,-1.3405,-1.3405,-1.3405,-1.3405,-1.3346,-1.3226,-1.2789,-1.2412,-1.2046,-1.1212,-1.0746,-1.0478,-0.9919,-0.9587,-0.9316,-0.8645,-0.7977,-0.7331,-0.654,-0.6002,-0.5484,-0.4342,-0.3993,-0.3833,-0.2957,-0.2458,-0.1861,-0.0386,0.1798,0.3602,0.3607,0.3949,0.4502,0.5161,0.561,0.6087,0.6852,0.7652,0.8189,0.8129,0.9044,1.0219,1.1485,1.1919,1.2523,1.3755,1.4179,1.4778,1.582,1.6095,1.6287,1.6472,1.6515,1.6515,1.6515,1.6515,1.6515,1.6515,1.6515,1.6515,1.6515,1.7432,1.8103,1.8499,1.9285,2.0066,2.0802,2.1279,2.169,-0.5896,0.0,0.0,0.0,0.0,0.0,0.0,0.0,0.0,0.0,0.0,0.0,0.0,0.0,0.0,0.0,0.0,0.0,0.0,0.0,0.0,0.0,0.0,0.0,0.0,0.0,0.0,0.0,0.0,0.0,-1.3405,-1.3405,-1.3405,-1.3405,-1.3405,-1.3405,-1.3405,-1.3437,-1.3437,-1.3396,-1.3446,-1.3437,-1.3405,-1.3405,-1.3405,-1.3405,-1.3405,-1.3405,-1.3363,-1.2826,-1.2537,-1.2337,-1.1401,-1.0907,-1.0691,-1.0242,-0.9783,-0.9348,-0.8932,-0.831,-0.7564,-0.6755,-0.6217,-0.5665,-0.4374,-0.3993,-0.3833,-0.2957,-0.2698,-0.2412,-0.1231,0.1017,0.3087,0.3494,0.428,0.4964,0.5262,0.5784,0.6349,0.6898,0.7492,0.7867,0.7758,0.8853,1.0232,1.1649,1.2109,1.2656,1.3674,1.4149,1.4692,1.5493,1.5958,1.6287,1.6472,1.6515,1.6515,1.6515,1.6515,1.6515,1.6515,1.6515,1.6515,1.6515,1.7633,1.8204,1.8204,1.9171,1.9904,2.0446,2.0924,2.1445,0.0,0.0,0.0,0.0,0.0,0.0,0.0,0.0,0.0,0.0,0.0,0.0,0.0,0.0,0.0,0.0,0.0,0.0,0.0,0.0,0.0,0.0,0.0,0.0,0.0,0.0,0.0,0.0,-1.3379,-1.3379,-1.3405,-1.3405,-1.3405,-1.3405,-1.3405,-1.3405,-1.3405,-1.3524,-1.3524,-1.3413,-1.354,-1.3549,-1.3421,-1.3421,-1.3396,-1.3405,-1.3405,-1.3405,-1.3363,-1.2826,-1.2416,-1.2048,-1.152,-1.0943,-1.0403,-1.0403,-0.9976,-0.9348,-0.8953,-0.8333,-0.7593,-0.6785,-0.6248,-0.5696,-0.4403,-0.3993,-0.3833,-0.2957,-0.2665,-0.2666,-0.2643,-0.0398,0.2146,0.3338,0.4475,0.526,0.5305,0.5784,0.6349,0.6898,0.7489,0.7704,0.7147,0.9107,1.0943,1.1499,1.2341,1.3079,1.3663,1.3768,1.4272,1.5448,1.5582,1.5814,1.6429,1.6472,1.6472,1.6515,1.6515,1.6515,1.6515,1.6515,1.6515,1.6515,1.7614,1.8185,1.8204,1.9908,2.0453,1.985,2.1086,2.2053,-0.5496,0.0,0.0,0.0,0.0,0.0,0.0,0.0,0.0,0.0,0.0,0.0,0.0,0.0,0.0,0.0,0.0,0.0,0.0,0.0,0.0,0.0,0.0,0.0,0.0,0.0,0.0,0.0,-1.2997,-1.3199,-1.3379,-1.3405,-1.3405,-1.3405,-1.3405,-1.3405,-1.3405,-1.3524,-1.3586,-1.3556,-1.3739,-1.3724,-1.354,-1.354,-1.3486,-1.3405,-1.3405,-1.3405,-1.3363,-1.2826,-1.2545,-1.2376,-1.1593,-1.108,-1.0739,-1.0483,-1.0135,-0.9659,-0.9035,-0.8679,-0.8328,-0.7282,-0.6665,-0.6083,-0.483,-0.4237,-0.3831,-0.2948,-0.2213,-0.1543,-0.0907,0.1051,0.3019,0.3499,0.4146,0.4781,0.5216,0.5784,0.6349,0.6898,0.715,0.7356,0.7716,0.882,1.0008,1.1097,1.1821,1.2327,1.2611,1.3299,1.4097,1.4875,1.4971,1.5383,1.6423,1.6101,1.6051,1.6472,1.6515,1.6515,1.6515,1.6515,1.6515,1.6515,1.7237,1.7808,1.8204,1.9471,2.0003,1.9798,2.0683,2.1397,-0.6343,0.0,0.0,0.0,0.0,0.0,0.0,0.0,0.0,0.0,0.0,0.0,0.0,0.0,0.0,0.0,0.0,0.0,0.0,0.0,0.0,0.0,0.0,0.0,0.0,-1.2037,-1.2352,-1.2741,-1.2906,-1.3121,-1.3388,-1.3405,-1.3405,-1.3405,-1.3405,-1.3421,-1.3486,-1.3632,-1.3685,-1.3608,-1.389,-1.385,-1.3526,-1.357,-1.3533,-1.3405,-1.3405,-1.3405,-1.3363,-1.2934,-1.2695,-1.2525,-1.1803,-1.1249,-1.0873,-1.0691,-1.0217,-0.9607,-0.9008,-0.8706,-0.8428,-0.7438,-0.6815,-0.6267,-0.4979,-0.4331,-0.3831,-0.295,-0.1504,-0.0,0.0907,0.2221,0.334,0.3542,0.4187,0.487,0.5219,0.5953,0.6644,0.6937,0.6979,0.7224,0.796,0.8737,0.9669,1.0902,1.1528,1.1851,1.1938,1.2735,1.3547,1.4379,1.4669,1.528,1.6404,1.6188,1.6145,1.6472,1.6515,1.6515,1.6515,1.6515,1.6515,1.6515,1.7087,1.7652,1.8204,1.9064,1.9585,1.9798,2.0201,2.0726,-0.7425,-0.7543,0.0,0.0,0.0,0.0,-0.7616,-0.7559,0.0,0.0,0.0,0.0,0.0,0.0,0.0,0.0,0.0,0.0,0.0,0.0,0.0,0.0,0.0,0.0,-1.1636,-1.1923,-1.2332,-1.2869,-1.2969,-1.3121,-1.3388,-1.3405,-1.3405,-1.3405,-1.3405,-1.3462,-1.3593,-1.3804,-1.3818,-1.367,-1.4051,-1.3959,-1.3471,-1.3588,-1.3549,-1.3405,-1.3405,-1.3405,-1.3379,-1.3103,-1.2842,-1.2553,-1.2037,-1.146,-1.0897,-1.0897,-1.0292,-0.9396,-0.9008,-0.8634,-0.8218,-0.7472,-0.6905,-0.6263,-0.5039,-0.436,-0.3833,-0.2957,-0.0835,0.1406,0.2435,0.2987,0.3317,0.3536,0.4377,0.5189,0.5298,0.6164,0.694,0.6979,0.7063,0.7311,0.8043,0.8801,0.9695,1.0844,1.1294,1.1533,1.1533,1.2037,1.2813,1.3901,1.4406,1.5169,1.6292,1.6342,1.6367,1.6472,1.6515,1.6515,1.6515,1.6515,1.6515,1.6515,1.7087,1.762,1.8116,1.8668,1.9171,1.9629,1.9781,2.0123,-0.9435,-0.946,-0.9418,-0.8779,0.0,0.0,0.0,-0.7098,0.0,0.0,0.0,0.0,0.0,0.0,0.0,0.0,0.0,0.0,0.0,0.0,0.0,0.0,0.0,0.0,-1.1334,-1.1431,-1.1717,-1.2312,-1.2757,-1.3121,-1.3388,-1.3405,-1.3405,-1.3405,-1.3405,-1.3462,-1.3593,-1.3804,-1.3969,-1.4087,-1.4329,-1.4219,-1.3798,-1.3827,-1.368,-1.3405,-1.3405,-1.3405,-1.3379,-1.3103,-1.2842,-1.2572,-1.2251,-1.163,-1.0897,-1.0897,-1.0422,-0.9744,-0.9402,-0.9041,-0.8629,-0.8213,-0.7355,-0.6324,-0.537,-0.4573,-0.3833,-0.2957,-0.1268,0.0633,0.2263,0.2834,0.3023,0.3308,0.3913,0.4594,0.5182,0.587,0.6474,0.6894,0.7405,0.7908,0.8472,0.9054,0.9681,1.036,1.0786,1.1035,1.1035,1.1466,1.2184,1.3276,1.3072,1.364,1.5676,1.5428,1.5526,1.6447,1.6515,1.6515,1.6515,1.6515,1.6515,1.6515,1.7087,1.7432,1.7545,1.8097,1.8417,1.853,1.9516,1.9751,-1.0665,-1.0555,-1.0462,-1.0094,0.0,0.0,0.0,0.0,-0.766,0.0,0.0,0.0,0.0,0.0,0.0,0.0,0.0,0.0,0.0,0.0,0.0,0.0,0.0,0.0,-1.0624,-1.1042,-1.1608,-1.2336,-1.2767,-1.3121,-1.3388,-1.3405,-1.3405,-1.3405,-1.3462,-1.3572,-1.3745,-1.3955,-1.4101,-1.4201,-1.4399,-1.4236,-1.3751,-1.3847,-1.3711,-1.3405,-1.3405,-1.3405,-1.3379,-1.3251,-1.2952,-1.2572,-1.2312,-1.1824,-1.1259,-1.1001,-1.057,-1.0084,-0.9581,-0.9128,-0.8734,-0.8421,-0.7477,-0.6324,-0.5459,-0.4338,-0.3274,-0.2826,-0.1401,0.0432,0.2228,0.2812,0.2985,0.322,0.4002,0.4788,0.5214,0.5996,0.6686,0.6937,0.769,0.8398,0.8639,0.9159,0.9681,1.0201,1.0459,1.0596,1.0596,1.0827,1.1368,1.2441,1.2503,1.3138,1.4752,1.511,1.5469,1.604,1.6365,1.6515,1.6515,1.6515,1.6515,1.6515,1.6804,1.6948,1.6948,1.7231,1.7652,1.821,1.8795,1.9079,0.0,0.0,0.0,0.0,0.0,-0.9524,0.0,0.0,0.0,-0.8798,0.0,0.0,0.0,0.0,0.0,0.0,0.0,0.0,0.0,0.0,0.0,0.0,0.0,0.0,0.0,-1.0463,-1.1247,-1.2264,-1.2464,-1.2761,-1.3286,-1.3363,-1.3405,-1.3405,-1.3518,-1.3663,-1.3899,-1.406,-1.4175,-1.4257,-1.442,-1.4223,-1.3715,-1.3847,-1.3747,-1.3487,-1.3462,-1.3446,-1.3446,-1.3446,-1.3148,-1.2657,-1.2384,-1.2007,-1.1556,-1.108,-1.0691,-1.0297,-0.9706,-0.923,-0.885,-0.85,-0.7428,-0.6098,-0.5217,-0.3891,-0.2716,-0.2695,-0.1401,0.0432,0.2225,0.2788,0.2939,0.3286,0.4215,0.5131,0.5321,0.6216,0.6979,0.6979,0.7931,0.872,0.872,0.9239,0.9799,1.0239,1.0283,1.0283,1.0283,1.0283,1.0684,1.1633,1.2174,1.2864,1.3867,1.4814,1.5473,1.568,1.6114,1.6409,1.6515,1.6515,1.6515,1.6515,1.6515,1.6515,1.6515,1.6515,1.6986,1.7884,1.7997,1.8204,0.0,0.0,0.0,0.0,-1.151,0.0,0.0,0.0,-0.8411,-0.726,0.0,0.0,0.0,0.0,0.0,0.0,0.0,0.0,0.0,0.0,0.0,0.0,0.0,0.0,0.0,-0.9285,-0.978,-1.1254,-1.1062,-1.1515,-1.2975,-1.3269,-1.3405,-1.3405,-1.3404,-1.3582,-1.3899,-1.3918,-1.4114,-1.4464,-1.4497,-1.4375,-1.4136,-1.3969,-1.3885,-1.3827,-1.3639,-1.357,-1.357,-1.357,-1.3337,-1.2924,-1.2657,-1.2061,-1.1318,-1.1001,-1.0691,-1.0353,-0.997,-0.9607,-0.9262,-0.8877,-0.7192,-0.5183,-0.4392,-0.3462,-0.2716,-0.2695,-0.1401,0.0432,0.2217,0.2703,0.2879,0.3426,0.4271,0.5058,0.5539,0.6343,0.6979,0.6979,0.7931,0.872,0.872,0.9518,1.0244,1.0278,1.0283,1.0283,1.0283,1.0283,1.0525,1.1054,1.1593,1.2284,1.3323,1.3927,1.4689,1.563,1.5756,1.6007,1.6497,1.6515,1.6515,1.6515,1.6515,1.6515,1.6515,1.6515,1.6584,1.6722,1.7237,1.7244,0.0,0.0,0.0,0.0,0.0,0.0,-0.9464,0.0,-0.8849,0.0,0.0,0.0,0.0,0.0,0.0,0.0,0.0,0.0,0.0,0.0,0.0,0.0,0.0,0.0,0.0,0.0,0.0,0.0,-1.0287,-1.0731,-1.2498,-1.2766,-1.3079,-1.3508,-1.3741,-1.3931,-1.4074,-1.4188,-1.4329,-1.4497,-1.4497,-1.4105,-1.3408,-1.3868,-1.3707,-1.3101,-1.3448,-1.3593,-1.3593,-1.3526,-1.3286,-1.2969,-1.2695,-1.228,-1.1753,-1.1141,-1.0818,-1.0612,-1.0072,-0.9692,-0.9224,-0.8112,-0.6589,-0.5057,-0.424,-0.3403,-0.2716,-0.2695,-0.1401,0.0432,0.2215,0.269,0.2853,0.3462,0.401,0.4632,0.5497,0.6121,0.6644,0.6937,0.7931,0.872,0.872,0.9602,1.0283,1.0283,1.0283,1.0283,1.0283,1.0539,1.0687,1.0611,1.1542,1.2267,1.2401,1.3448,1.4418,1.5211,1.5819,1.6277,1.6509,1.6515,1.6515,1.6515,1.6515,1.6515,1.6515,1.6515,1.6515,1.6528,1.6766,1.6908,-1.3405,0.0,0.0,0.0,0.0,0.0,0.0,0.0,0.0,0.0,0.0,0.0,0.0,0.0,0.0,0.0,0.0,0.0,0.0,0.0,0.0,0.0,0.0,0.0,0.0,0.0,0.0,0.0,0.0,-0.9853,-1.1785,-1.2284,-1.2751,-1.3288,-1.3826,-1.414,-1.4197,-1.4123,-1.4233,-1.4497,-1.4279,-1.3823,-1.3191,-1.3664,-1.3542,-1.2976,-1.3246,-1.3478,-1.367,-1.3518,-1.3286,-1.2969,-1.2695,-1.2443,-1.2086,-1.1233,-1.0897,-1.0801,-1.0122,-0.9607,-0.8996,-0.7492,-0.6173,-0.5057,-0.424,-0.3403,-0.2716,-0.2695,-0.1401,0.0432,0.2215,0.269,0.2874,0.3539,0.3971,0.4538,0.5605,0.6149,0.6605,0.715,0.7897,0.8557,0.8882,0.9681,1.0283,1.0283,1.0283,1.0283,1.0283,1.0616,1.0725,1.0505,1.1579,1.2216,1.1993,1.3143,1.416,1.4872,1.5906,1.6515,1.6515,1.6515,1.6515,1.6515,1.6515,1.6515,1.6515,1.6515,1.6515,1.6515,1.6515,1.6716,0.0,0.0,0.0,-1.151,0.0,0.0,0.0,0.0,-0.9777,0.0,0.0,0.0,0.0,0.0,0.0,0.0,0.0,0.0,0.0,0.0,0.0,0.0,0.0,0.0,0.0,0.0,0.0,0.0,0.0,0.0,-1.0743,-1.1897,-1.2508,-1.2526,-1.344,-1.3997,-1.4197,-1.3434,-1.3536,-1.4488,-1.3712,-1.3632,-1.4134,-1.3377,-1.344,-1.4081,-1.3143,-1.3169,-1.3876,-1.367,-1.3353,-1.2969,-1.2695,-1.2443,-1.2086,-1.1233,-1.0897,-1.0801,-1.0122,-0.9416,-0.8607,-0.7405,-0.6173,-0.5057,-0.424,-0.3403,-0.2716,-0.2695,-0.1401,0.0432,0.2215,0.269,0.2913,0.3773,0.444,0.5106,0.5981,0.6617,0.715,0.7746,0.7916,0.8234,0.9279,0.9917,1.0283,1.0283,1.0283,1.0283,1.0283,1.0322,1.05,1.0943,1.1473,1.1993,1.2431,1.2926,1.3722,1.484,1.5906,1.6515,1.6515,1.6515,1.6515,1.6515,1.6515,1.6515,1.6515,1.6515,1.6515,1.6515,1.6515,1.6515,0.0,0.0,-1.3159,-1.2145,0.0,0.0,0.0,0.0,0.0,0.0,0.0,0.0,0.0,0.0,0.0,0.0,0.0,0.0,0.0,0.0,0.0,0.0,0.0,0.0,0.0,0.0,0.0,0.0,-0.7408,0.0,0.0,-1.103,-1.178,-1.2795,-1.326,-1.3541,-1.3596,-1.3333,-1.3099,-1.2912,-1.2636,-1.2566,-1.2674,-1.2497,-1.2786,-1.3443,-1.2917,-1.3165,-1.3885,-1.3589,-1.3388,-1.3226,-1.277,-1.2533,-1.2356,-1.1498,-1.115,-1.108,-1.0452,-0.9603,-0.8634,-0.7708,-0.6567,-0.5432,-0.4654,-0.3786,-0.3034,-0.2773,-0.1395,0.0432,0.2215,0.269,0.2911,0.3796,0.401,0.4432,0.5889,0.6149,0.6382,0.7151,0.7901,0.8557,0.8922,0.9721,1.0283,1.0283,1.0283,1.0283,1.0283,1.0878,1.1099,1.0577,1.1836,1.2538,1.2066,1.3119,1.4123,1.4859,1.5561,1.6139,1.6503,1.6515,1.6515,1.6515,1.6515,1.6515,1.6515,1.6515,1.6515,1.6515,1.6515,1.6674,-1.3405,-1.3405,0.0,-1.2474,-1.1908,0.0,-1.0229,0.0,0.0,0.0,0.0,0.0,0.0,0.0,0.0,0.0,0.0,0.0,0.0,0.0,0.0,0.0,0.0,0.0,0.0,0.0,-0.5793,-0.7668,0.0,0.0,0.0,0.0,-1.1288,-1.257,-1.3059,-1.3436,-1.3719,-1.3161,-1.2766,-1.2527,-1.1948,-1.1734,-1.1858,-1.1735,-1.2182,-1.3036,-1.2582,-1.2841,-1.3583,-1.3576,-1.3372,-1.3031,-1.2892,-1.2818,-1.263,-1.1659,-1.1159,-1.0872,-1.0103,-0.9387,-0.864,-0.7723,-0.6678,-0.5652,-0.4833,-0.4006,-0.3227,-0.2806,-0.1396,0.0432,0.2215,0.2819,0.3103,0.3828,0.4056,0.4517,0.5903,0.6111,0.6272,0.7138,0.7901,0.8517,0.8918,0.9558,1.0079,1.0278,1.0283,1.0283,1.0283,1.0883,1.1142,1.0878,1.1794,1.2312,1.2071,1.3313,1.4236,1.4595,1.5285,1.5856,1.6214,1.6415,1.6515,1.6515,1.6515,1.6515,1.6515,1.6515,1.6515,1.6515,1.6515,1.6795]},{"header":{"parameterUnit":"m.s-1","parameterCategory":1,"la1":30.6,"la2":29.2853,"lo1":-89.7004,"lo2":-87.6739,"dy":0.0162,"dx":0.0183,"nx":112,"ny":82,"refTime":"2026-05-13T12:00:00:Z","depth":0,"parameterNumber":3,"parameterNumberName":"V-component_of_WINDS"},"data":[0.0,0.0,0.0,0.0,0.0,0.0,0.0,0.0,0.0,0.0,0.0,0.0,0.0,0.0,0.0,0.0,0.0,0.0,0.0,0.0,0.0,0.0,0.0,0.0,0.0,0.0,0.0,0.0,0.0,0.0,0.0,0.0,0.0,0.0,0.0,0.0,0.0,0.0,0.0,0.0,0.0,0.0,0.0,0.0,0.0,0.0,0.0,0.0,0.0,0.0,0.0,0.0,0.0,0.0,0.0,0.0,0.0,0.0,0.0,0.0,0.0,0.0,0.0,0.0,0.0,0.0,0.0,0.0,0.0,0.0,0.0,0.0,0.0,0.0,0.0,0.0,0.0,0.0,0.0,0.0,0.0,0.0,0.0,0.0,0.0,0.0,0.0,0.0,0.0,0.0,0.0,0.7802,0.9014,0.9731,0.98,1.04,0.99,0.7808,0.0,0.0,0.0,0.0,0.0,0.0,0.0,0.0,0.0,0.0,0.0,0.0,0.0,0.0,0.0,0.0,0.0,0.0,0.0,0.0,0.0,0.0,0.0,0.0,0.0,0.0,0.0,0.0,0.0,0.0,0.0,0.0,0.0,0.0,0.0,0.0,0.0,0.0,0.0,0.0,0.0,0.0,0.0,0.0,0.0,0.0,0.0,0.0,0.0,0.0,0.0,0.0,0.0,0.0,0.0,0.0,0.0,0.0,0.0,0.0,0.0,0.0,0.0,0.0,0.0,0.0,0.0,0.0,0.0,0.0,0.0,0.0,0.0,0.0,0.0,0.0,0.0,0.0,0.0,0.0,0.0,0.0,0.0,0.0,0.0,0.0,0.0,0.0,0.0,0.0,0.0,0.0,0.0,0.0,0.0,0.0,0.0,0.0,0.0,0.0,0.0,0.0,0.0,0.0,0.699,0.9082,0.9849,1.0367,1.0764,1.0427,0.9841,0.8983,0.0,0.0,0.0,0.0,0.0,0.0,0.0,0.0,0.0,0.0,0.0,0.0,0.0,0.0,0.0,0.0,0.0,0.0,0.0,0.0,0.0,0.0,0.0,0.0,0.0,0.0,0.0,0.0,0.0,0.0,0.0,0.0,0.0,0.0,0.0,0.0,0.0,0.0,0.0,0.0,0.0,0.0,0.0,0.0,0.0,0.0,0.0,0.0,0.0,0.0,0.0,0.0,0.0,0.0,0.0,0.0,0.0,0.0,0.0,0.0,0.0,0.0,0.0,0.0,0.0,0.0,0.0,0.0,0.0,0.0,0.0,0.0,0.0,0.0,0.0,0.0,0.0,0.0,0.0,0.0,0.0,0.0,0.0,0.0,0.0,0.0,0.0,0.0,0.0,0.0,0.0,0.0,0.0,0.0,0.0,0.0,0.0,0.0,0.0,0.0,0.0,0.0,0.0,0.6968,0.8032,0.9442,1.0024,1.0395,1.0611,1.0302,0.9673,0.8655,0.812,0.0,0.0,0.0,0.0,0.0,0.0,0.0,0.0,0.0,0.0,0.0,0.0,0.0,0.0,0.0,0.0,0.0,0.0,0.0,0.0,0.0,0.0,0.0,0.0,0.0,0.0,0.0,0.0,0.0,0.0,0.0,0.0,0.0,0.0,0.0,0.0,0.0,0.0,0.0,0.0,0.0,0.0,0.0,0.0,0.0,0.0,0.0,0.0,0.0,0.0,0.0,0.0,0.0,0.0,0.0,0.0,0.0,0.0,0.0,0.0,0.0,0.0,0.0,0.0,0.0,0.0,0.0,0.0,0.0,0.0,0.0,0.0,0.0,0.0,0.0,0.0,0.0,0.0,0.0,0.0,0.0,0.0,0.0,0.0,0.0,0.0,0.0,0.0,0.0,0.0,0.0,0.0,0.0,0.0,0.0,0.0,0.0,0.0,0.0,0.0,0.0,0.0,0.8069,0.8747,0.9661,1.0083,1.0283,1.0283,1.0,0.9342,0.8275,0.7327,0.0,0.0,0.0,0.0,0.0,0.0,0.0,0.0,0.0,0.0,0.0,0.0,0.0,0.0,0.0,0.0,0.0,0.0,0.0,0.0,0.0,0.0,0.0,0.0,0.0,0.0,0.0,0.0,0.0,0.0,0.0,0.0,0.0,0.0,0.0,0.0,0.0,0.0,0.0,0.0,0.0,0.0,0.0,0.0,0.0,0.0,0.0,0.0,0.0,0.0,0.0,0.0,0.0,0.0,0.0,0.0,0.0,0.0,0.0,0.0,0.0,0.0,0.0,0.0,0.0,0.0,0.0,0.0,0.0,0.0,0.0,0.0,0.0,0.0,0.0,0.0,0.0,0.0,0.0,0.0,0.0,0.0,0.0,0.0,0.0,0.0,0.0,0.0,0.0,0.0,0.0,0.0,0.0,0.0,0.0,0.0,0.0,0.0,0.0,0.0,0.0,0.0,0.7955,0.8889,1.0108,1.0264,1.0283,1.0283,0.9487,0.8835,0.8503,0.6909,0.0,0.0,0.0,0.0,0.0,0.0,0.0,0.0,0.0,0.0,0.0,0.0,0.0,0.0,0.0,0.0,0.0,0.0,0.0,0.0,0.0,0.0,0.0,0.0,0.0,0.0,0.0,0.0,0.0,0.0,0.0,0.0,0.0,0.0,0.0,0.0,0.0,0.0,0.0,0.0,0.0,0.0,0.0,0.0,0.0,0.0,0.0,0.0,0.0,0.0,0.0,0.0,0.0,0.0,0.0,0.0,0.0,0.0,0.0,0.0,0.0,0.0,0.0,0.0,0.0,0.0,0.0,0.0,0.0,0.0,0.0,0.0,0.0,0.0,0.0,0.0,0.0,0.0,0.0,0.0,0.0,0.0,0.0,0.0,0.0,0.0,0.0,0.0,0.0,0.0,0.0,0.0,0.0,0.0,0.0,0.0,0.0,0.0,0.0,0.0,0.0,0.0,0.7525,0.8477,0.0,1.0083,1.0283,1.0283,0.9721,0.9015,0.8304,0.0,0.0,0.0,0.0,0.0,0.0,0.0,0.0,0.0,0.0,0.0,0.0,0.0,0.0,0.0,0.0,0.0,0.0,0.0,0.0,0.0,0.0,0.0,0.0,0.0,0.0,0.0,0.0,0.0,0.0,0.0,0.0,0.0,0.0,0.0,0.0,0.0,0.0,0.0,0.0,0.0,0.0,0.0,0.0,0.0,0.0,0.0,0.0,0.0,0.0,0.0,0.0,0.0,0.0,0.0,0.0,0.0,0.0,0.0,0.0,0.0,0.0,0.0,0.0,0.0,0.0,0.0,0.0,0.0,0.0,0.0,0.0,0.0,0.0,0.0,0.0,0.0,0.0,0.0,0.0,0.0,0.0,0.0,0.0,0.0,0.0,0.0,0.0,0.0,0.0,0.0,0.0,0.0,0.0,0.0,0.0,0.0,0.0,0.0,0.0,0.0,0.0,0.6002,0.7142,0.8196,0.0,0.992,1.0283,1.0283,0.9652,0.8895,0.8155,0.0,0.0,0.0,0.0,0.0,0.0,0.0,0.0,0.0,0.0,0.0,0.0,0.0,0.0,0.0,0.0,0.0,0.0,0.0,0.0,0.0,0.0,0.0,0.0,0.0,0.0,0.0,0.0,0.0,0.0,0.0,0.0,0.0,0.0,0.0,0.0,0.0,0.0,0.0,0.0,0.0,0.0,0.0,0.0,0.0,0.0,0.0,0.0,0.0,0.0,0.0,0.0,0.0,0.0,0.0,0.0,0.0,0.0,0.0,0.0,0.0,0.0,0.0,0.0,0.0,0.0,0.0,0.0,0.0,0.0,0.0,0.0,0.0,0.0,0.0,0.0,0.0,0.0,0.0,0.0,0.0,0.0,0.0,0.0,0.0,0.0,0.0,0.0,0.0,0.0,0.0,0.0,0.0,0.0,0.0,0.0,0.0,0.0,0.0,0.0,0.0,0.0,0.5494,0.6917,0.8094,0.8917,0.9787,1.0283,1.0283,0.9151,0.8312,0.0,0.0,0.0,0.0,0.0,0.0,0.0,0.0,0.0,0.0,0.0,0.0,0.0,0.0,0.0,0.0,0.0,0.0,0.0,0.0,0.0,0.0,0.0,0.0,0.0,0.0,0.0,0.0,0.0,0.0,0.0,0.0,0.0,0.0,0.0,0.0,0.0,0.0,0.0,0.0,0.0,0.0,0.0,0.0,0.0,0.0,0.0,0.0,0.0,0.0,0.0,0.0,0.0,0.0,0.0,0.0,0.0,0.0,0.0,0.0,0.0,0.0,0.0,0.0,0.0,0.0,0.0,0.0,0.0,0.0,0.0,0.0,0.0,0.0,0.0,0.0,0.0,0.0,0.0,0.0,0.0,0.0,0.0,0.0,0.0,0.0,0.0,0.0,0.0,0.0,0.0,0.0,0.0,0.0,0.0,0.0,0.0,0.0,0.0,0.0,0.0,0.0,0.0,0.4942,0.6657,0.7951,0.8391,0.9552,1.0283,1.0283,0.9385,0.8538,0.7851,0.0,0.0,0.0,0.0,0.0,0.0,0.0,0.0,0.0,0.0,0.0,0.0,0.0,0.0,0.0,0.0,0.0,0.0,0.0,0.0,0.0,0.0,0.0,0.0,0.0,0.0,0.0,0.0,0.0,0.0,0.0,0.0,0.0,0.0,0.0,0.0,0.0,0.0,0.0,0.0,0.0,0.0,0.0,0.0,0.0,0.0,0.0,0.0,0.0,0.0,0.0,0.0,0.0,0.0,0.0,0.0,0.0,0.0,0.0,0.0,0.0,0.0,0.0,0.0,0.0,0.0,0.0,0.0,0.0,0.0,0.0,0.0,0.0,0.0,0.0,0.0,0.0,0.0,0.0,0.0,0.0,0.0,0.0,0.0,0.0,0.0,0.0,0.0,0.0,0.0,0.0,0.0,0.0,0.0,0.0,0.0,0.0,0.0,0.0,0.0,0.0,0.0,0.4538,0.6316,0.7647,0.7989,0.9235,1.0024,1.0024,0.9399,0.8638,0.7749,0.0,0.0,0.0,0.0,0.0,0.0,0.0,0.0,0.0,0.0,0.0,0.0,0.0,0.0,0.0,0.0,0.0,0.0,0.0,0.0,0.0,0.0,0.0,0.0,0.0,0.0,0.0,0.0,0.0,0.0,0.0,0.0,0.0,0.0,0.0,0.0,0.0,0.0,0.0,0.0,0.0,0.0,0.0,0.0,0.0,0.0,0.0,0.0,0.0,0.0,0.0,0.0,0.0,0.0,0.0,0.0,0.0,0.0,0.0,0.0,0.0,0.0,0.0,0.0,0.0,0.0,0.0,0.0,0.0,0.0,0.0,0.0,0.0,0.0,0.0,0.0,0.0,0.0,0.0,0.0,0.0,0.0,0.0,0.0,0.0,0.0,0.0,0.0,0.0,0.0,0.0,0.0,0.0,0.0,0.0,0.0,0.0,0.0,0.0,0.0,0.0,0.0,0.4325,0.5937,0.7215,0.7682,0.8774,0.9498,0.9539,0.9189,0.8599,0.7749,0.0,0.0,0.0,0.0,0.0,0.0,0.0,0.0,0.0,0.0,0.0,0.0,0.0,0.0,0.0,0.0,0.0,0.0,0.0,0.0,0.0,0.0,0.0,0.0,0.0,0.0,0.0,0.0,0.0,0.0,0.0,0.0,0.0,0.0,0.0,0.0,0.0,0.0,0.0,0.0,0.0,0.0,0.0,0.0,0.0,0.0,0.0,0.0,0.0,0.0,0.0,0.0,0.0,0.0,0.0,0.0,0.0,0.0,0.0,0.0,0.3979,0.0,0.0,0.0,0.0,0.0,0.0,0.0,0.0,0.0,0.0,0.0,0.0,0.0,0.0,0.0,0.0,0.0,0.0,0.0,0.0,0.0,0.0,0.0,0.0,0.0,0.0,0.0,0.0,0.0,0.0,0.0,0.0,0.0,0.0,0.0,0.0,0.0,0.0,0.0,0.0,0.0,0.4325,0.5702,0.6784,0.7194,0.8102,0.8784,0.9106,0.8755,0.8286,0.7734,0.6528,0.0,0.0,0.0,0.0,0.0,0.0,0.0,0.0,0.0,0.0,0.0,0.0,0.0,0.0,0.0,0.0,0.0,0.0,0.0,0.0,0.0,0.0,0.0,0.0,0.0,0.0,0.0,0.0,0.0,0.0,0.0,0.0,0.0,0.0,0.0,0.0,0.0,0.0,0.0,0.0,0.0,0.0,0.0,0.0,0.0,0.0,0.0,0.0,0.0,0.0,0.0,0.0,0.0,0.0,0.0,0.0,0.0,0.0,0.0,0.0,0.3883,0.0,0.0,0.0,0.0,0.0,0.0,0.0,0.0,0.0,0.0,0.0,0.0,0.0,0.0,0.0,0.0,0.0,0.0,0.0,0.0,0.0,0.0,0.0,0.0,0.0,0.0,0.0,0.0,0.0,0.0,0.0,0.0,0.0,0.0,0.0,0.0,0.0,0.0,0.0,0.0,0.4345,0.545,0.6351,0.677,0.7579,0.819,0.8352,0.84,0.8193,0.7729,0.6904,0.0,0.0,0.0,0.0,0.0,0.0,0.0,0.0,0.0,0.0,0.0,0.0,0.0,0.0,0.0,0.0,0.0,0.0,0.0,0.0,0.0,0.0,0.0,0.0,0.0,0.0,0.0,0.0,0.0,0.0,0.0,0.0,0.0,0.0,0.0,0.0,0.0,0.0,0.0,0.0,0.0,0.0,0.0,0.0,0.0,0.0,0.0,0.0,0.0,0.0,0.0,0.0,0.0,0.464,0.5057,0.5301,0.5297,0.5329,0.5311,0.4042,0.3503,0.352,0.309,0.0,0.0,0.0,0.0,0.0,0.0,0.0,0.0,0.0,0.0,0.0,0.0,0.0,0.0,0.0,0.0,0.0,0.0,0.0,0.0,0.0,0.0,0.0,0.0,0.0171,0.0519,0.0,0.0,0.0,0.0,0.0,0.0,0.0,0.0,0.0,0.0,0.0,0.0,0.4436,0.5231,0.5955,0.6351,0.7047,0.7479,0.7502,0.7897,0.7978,0.7529,0.7181,0.6814,0.0,0.0,0.0,0.0,0.0,0.0,0.0,0.0,0.0,0.0,0.0,0.0,0.0,0.0,0.0,0.0,0.0,0.0,0.0,0.0,0.0,0.0,0.0,0.0,0.0,0.0,0.0,0.0,0.0,0.0,0.0,0.0,0.6677,0.7185,0.0,0.0,0.0,0.0,0.0,0.0,0.0,0.0,0.0,0.0,0.0,0.0,0.0,0.2975,0.3431,0.3475,0.3526,0.3575,0.4087,0.4502,0.4864,0.4637,0.4553,0.4571,0.4574,0.0,0.4515,0.3362,0.0,0.0,0.0,0.0,0.0,0.0,0.0,0.0,0.0,0.0,0.0,0.0,0.0,0.0,0.0,0.0,0.0,0.0,0.0,0.0,0.0,0.0,-0.2132,-0.1006,-0.0346,0.0192,0.0,0.1478,0.2126,0.2137,0.2414,0.0,0.0,0.0,0.0,0.0,0.0,0.0,0.4681,0.5131,0.554,0.5942,0.6075,0.6289,0.6619,0.7045,0.7083,0.6674,0.661,0.6543,0.6484,0.538,0.0,0.0,0.0,0.0,0.0,0.0,0.0,0.0,0.0,0.0,0.0,0.0,0.0,0.0,0.0,0.0,0.0,0.0,0.0,0.0,0.0,0.0,0.0,0.0,0.0,0.0,0.0,0.0,0.0,0.7142,0.7956,0.8026,0.8477,0.8301,0.0,0.0,0.0,0.0,0.0,0.0,0.0,0.0,0.0,0.2874,0.2698,0.2582,0.2541,0.3631,0.4175,0.4173,0.4836,0.5236,0.5358,0.4995,0.4853,0.4814,0.4305,0.4252,0.4442,0.2887,0.1559,0.0373,0.0,0.0,0.0,0.0,-0.3949,-0.4008,-0.4372,-0.4529,0.0,-0.455,0.0,0.0,0.0,0.0,0.0,0.0,0.0,0.0,0.0,0.0,-0.2776,-0.2211,-0.1784,-0.1217,-0.0175,0.1301,0.24,0.0,0.257,0.2713,0.244,0.0,0.0,0.0,0.0,0.0,0.505,0.5521,0.5875,0.604,0.6105,0.6187,0.6374,0.663,0.6695,0.6514,0.6512,0.6515,0.6515,0.5968,0.5558,0.0,0.0,0.0,0.0,0.0,0.0,0.0,0.0,0.0,0.0,0.0,0.0,0.0,0.0,0.0,0.0,0.0,0.0,0.0,0.0,0.0,0.0,0.0,0.0,0.0,0.0,0.0,0.0,0.843,0.9246,0.9283,1.0068,1.005,0.0,0.0,0.0,0.0,0.0,0.0,0.4523,0.431,0.3914,0.3258,0.2393,0.1732,0.1341,0.2764,0.4016,0.5022,0.5602,0.5888,0.5866,0.5415,0.5213,0.51,0.4204,0.3715,0.3458,0.1684,0.0356,-0.0686,-0.2382,-0.3477,-0.4171,-0.4884,-0.5258,-0.5454,-0.5721,-0.5938,-0.6073,-0.5884,0.0,-0.6162,-0.5602,0.0,0.0,0.0,0.0,-0.4353,-0.3998,-0.3616,-0.3311,-0.3269,-0.3065,-0.2437,-0.0962,0.0723,0.2016,0.0,0.2708,0.2826,0.2521,0.0,0.0,0.0,0.0,0.5366,0.5517,0.592,0.6193,0.6193,0.6163,0.614,0.614,0.6253,0.6305,0.6187,0.6279,0.6336,0.6336,0.6261,0.6046,0.5788,0.0,0.0,0.0,0.0,0.0,0.0,0.0,0.0,0.0,0.0,0.0,0.0,0.0,0.0,0.0,0.0,0.0,0.0,0.0,0.0,0.0,0.0,0.0,0.0,0.0,0.0,0.0,0.0,0.0,1.1081,1.1658,0.0,0.0,0.0,0.0,0.8251,0.7414,0.572,0.2886,0.421,0.5028,0.4969,0.1835,0.0116,0.0077,0.0192,0.2104,0.5835,0.5886,0.5953,0.6069,0.5542,0.5186,0.5,0.4764,0.3412,0.1324,-0.0413,-0.1028,-0.1143,-0.3738,-0.4792,-0.49,-0.539,-0.5961,-0.6503,-0.6459,-0.6298,-0.6257,-0.7267,-0.779,-0.7999,-0.757,-0.7178,0.0,0.0,-0.6305,-0.5681,-0.6037,-0.5054,-0.3963,-0.3944,-0.3613,-0.2887,-0.1564,-0.0741,0.035,0.0,0.2852,0.2938,0.2718,0.0,0.4414,0.4526,0.4985,0.5514,0.6075,0.6176,0.6193,0.6193,0.5924,0.5742,0.5742,0.5852,0.5765,0.5372,0.5703,0.5944,0.5944,0.5568,0.5388,0.5421,0.5012,0.0,0.0,0.0,0.0,0.0,0.0,0.0,0.0,0.0,0.0,0.0,0.0,0.0,0.0,0.0,0.0,0.0,0.0,0.0,0.0,0.0,0.0,0.0,0.0,0.0,0.0,0.0,0.0,1.245,1.3185,0.0,1.1766,1.2056,1.1515,0.9546,0.7473,0.6167,0.5888,0.3313,0.1821,0.1821,0.0655,0.0,0.0,0.0,0.0697,0.213,0.4821,0.613,0.6155,0.6081,0.5297,0.3906,0.355,0.261,0.11,-0.1594,-0.2785,-0.3021,-0.4244,-0.4861,-0.5218,-0.6158,-0.6845,-0.7348,-0.7584,-0.7414,-0.7248,-0.7881,-0.8001,-0.7957,-0.8327,-0.7728,-0.7072,-0.7747,-0.7007,-0.6077,-0.6264,-0.5331,-0.433,-0.4156,-0.3715,-0.3193,-0.2836,-0.1545,0.033,0.2821,0.2816,0.2555,0.2999,0.3889,0.4597,0.4757,0.5554,0.6196,0.6448,0.6597,0.6713,0.6713,0.645,0.6199,0.6051,0.5858,0.5635,0.5322,0.5432,0.5522,0.5522,0.5613,0.5591,0.5328,0.5243,0.473,0.0,0.0,0.0,0.0,0.0,0.0,0.0,0.0,0.0,0.0,0.0,0.0,0.0,0.0,0.0,0.0,0.0,0.0,0.0,0.0,0.0,0.0,0.0,0.0,0.0,0.0,1.2507,1.3016,1.4008,1.4249,1.3182,1.3582,1.2844,1.0295,0.7077,0.519,0.5104,0.1867,0.0,0.0,-0.228,-0.234,-0.0041,0.0,0.0,0.0041,0.2807,0.4517,0.5295,0.5442,0.5156,0.4489,0.3446,0.2521,0.148,-0.206,-0.4338,-0.559,-0.5423,-0.5456,-0.5784,-0.7182,-0.7856,-0.8109,-0.8365,-0.8388,-0.8308,-0.8584,-0.8578,-0.8524,-0.8965,-0.8327,-0.763,-0.8333,-0.7581,-0.6539,-0.6536,-0.5707,-0.4739,-0.4352,-0.3808,-0.343,-0.3554,-0.2144,0.0,0.3001,0.2741,0.2259,0.3159,0.39,0.4543,0.4919,0.5716,0.6421,0.6683,0.6904,0.6979,0.6979,0.6764,0.6508,0.6219,0.5882,0.5591,0.5329,0.5312,0.5312,0.5312,0.5554,0.5582,0.5312,0.5244,0.4689,0.3703,0.0,0.0,0.0,0.0,0.0,0.0,0.0,0.0,0.0,0.0,0.0,0.0,0.0,0.0,0.0,0.0,0.0,0.0,0.0,0.0,0.0,0.0,0.0,1.0091,1.1398,1.2362,1.2786,1.4115,1.4732,1.4083,1.4076,1.3091,1.0585,0.6478,0.2886,0.014,0.0,0.0,0.0,-0.6743,-0.717,-0.0404,-0.0219,-0.0175,-0.0177,-0.0177,0.1057,0.3299,0.3322,0.4599,0.6616,0.4596,0.3261,0.2223,-0.1893,-0.5605,-0.8558,-0.7363,-0.6701,-0.6661,-0.8445,-0.8998,-0.8861,-0.8833,-0.9079,-0.9375,-0.9402,-0.9619,-0.9835,-0.9602,-0.9099,-0.8641,-0.8766,-0.8016,-0.7158,-0.7,-0.6146,-0.513,-0.452,-0.4007,-0.3583,-0.3595,-0.2686,-0.0758,0.288,0.2647,0.216,0.3139,0.3688,0.4248,0.4979,0.5432,0.0,0.6858,0.6979,0.6982,0.6979,0.676,0.647,0.6216,0.5847,0.5554,0.5266,0.5246,0.5281,0.5281,0.5281,0.5246,0.5246,0.4927,0.4199,0.3102,0.0,0.0,0.0,0.0,0.0,0.0,0.0,0.0,0.0,0.0,0.0,0.0,0.0,0.0,0.0,0.0,0.0,0.0,0.0,0.0,0.0,0.0,0.8549,1.0142,1.1555,1.2729,1.3565,1.4322,1.4656,1.4333,1.454,1.4076,1.2596,0.9716,0.5677,0.0286,0.0,0.0,0.0,-0.8056,-1.0818,-0.751,-0.4968,-0.3687,-0.3701,-0.3701,-0.297,-0.1551,-0.0603,0.013,0.091,0.4513,0.3566,-0.078,-0.4302,-0.6847,-0.8396,-0.6973,-0.6891,-0.7767,-0.9025,-0.9791,-1.0171,-0.9569,-0.9198,-0.9013,-0.9316,-0.9537,-0.9701,-0.9895,-0.9378,-0.8748,-0.8678,-0.7595,-0.645,-0.6364,-0.5495,-0.4607,-0.4432,-0.4007,-0.3583,-0.3595,-0.3329,-0.1792,0.2744,0.3331,0.3171,0.3485,0.3938,0.4356,0.457,0.5042,0.0,0.6337,0.6435,0.6559,0.694,0.6473,0.5996,0.5723,0.513,0.4637,0.4361,0.4347,0.4476,0.4794,0.4508,0.4347,0.4347,0.4033,0.3612,0.0,0.0,0.0,0.0,0.0,0.0,0.0,0.0,0.0,0.0,0.0,0.0,0.0,0.0,0.0,0.0,0.0,0.0,0.0,0.0,0.0,0.0,0.6179,0.7748,0.9046,1.0737,1.2154,1.2979,1.3404,1.3642,1.376,1.3735,1.3186,1.184,1.0132,0.7009,0.2102,0.0675,-0.1321,-0.4217,-0.9315,-1.1819,-1.1532,-0.941,-0.7991,-0.7286,-0.7275,-0.6711,-0.562,-0.4433,-0.3355,0.0,0.1145,0.0175,-0.4001,-0.7014,-0.9368,0.0,0.0,0.0,0.0,0.0,-1.1102,-1.1445,-1.0936,-1.0363,-0.9868,-1.0079,-1.0208,-1.0336,-1.0668,-1.0104,-0.9272,-0.9011,-0.7796,-0.6413,-0.5882,-0.507,-0.4347,-0.4136,-0.3836,-0.3447,-0.2957,-0.3239,-0.2335,0.2015,0.2826,0.0,0.3535,0.388,0.4134,0.4345,0.4694,0.5132,0.5741,0.583,0.5956,0.6249,0.5904,0.551,0.5158,0.4745,0.0,0.0,0.0,0.4091,0.4344,0.4121,0.0,0.0,0.0,0.0,0.0,0.0,0.0,0.0,0.2393,0.2364,0.0,0.0,0.0,0.0,0.0,0.0,0.0,0.0,0.0,0.0,0.0,0.0,0.0,0.0,0.0,0.0,0.5433,0.6561,0.738,0.9259,1.0766,1.1349,1.1735,1.2082,1.2475,1.2123,1.1274,0.9772,0.8925,0.731,0.4612,0.0,0.0,0.0,0.0,-1.1392,-1.3448,-1.3228,-1.2301,-1.0681,-1.056,-0.9938,-0.8837,-0.784,-0.617,-0.4123,-0.4209,-0.5387,-0.751,-1.0103,-1.2665,-1.4774,-1.2631,-1.1309,-1.0791,-1.2222,-1.2682,-1.2604,-1.2583,0.0,0.0,-1.131,-1.1329,-1.1435,-1.1698,-1.1052,-1.0118,-0.9492,-0.82,-0.6739,-0.5513,-0.4781,-0.4262,-0.3707,-0.3581,-0.3266,-0.2054,-0.2512,-0.2154,0.1338,0.201,0.2323,0.3399,0.358,0.3751,0.4218,0.4303,0.4522,0.513,0.5216,0.5219,0.5305,0.0,0.0,0.4594,0.4477,0.4265,0.392,0.3934,0.3967,0.3901,0.3934,0.3852,0.3532,0.3886,0.3752,0.3082,0.3509,0.3519,0.3097,0.2755,0.2707,0.0,0.0,0.0,0.0,0.0,0.0,0.0,0.0,0.0,0.0,0.0,0.0,0.0,0.0,0.0,0.3835,0.5254,0.6388,0.6685,0.7682,0.8573,0.9085,1.0331,1.0846,1.009,1.0303,1.0356,1.0039,0.9031,0.7393,0.5082,0.4059,0.0529,-0.606,-0.9416,-1.238,-1.504,-1.5008,-1.4312,-1.2931,0.0,0.0,-0.9911,-0.9697,-0.9003,-0.8037,-0.8578,-0.985,-1.1664,-1.3782,-1.5707,-1.7095,-1.4634,-1.3444,-1.3195,-1.3994,-1.3831,-1.3282,-1.3574,-1.2636,-1.1369,-1.1853,-1.2187,-1.2393,-1.2222,-1.1782,0.0,-0.9177,-0.7847,-0.6606,-0.499,-0.4476,-0.4262,-0.3707,-0.3587,-0.3274,-0.2055,-0.1209,0.009,0.2743,0.3237,0.332,0.358,0.358,0.3624,0.3753,0.3751,0.3966,0.4522,0.4563,0.4781,0.5262,0.4773,0.4397,0.4282,0.3651,0.3228,0.3255,0.3636,0.3674,0.3296,0.3636,0.3653,0.319,0.3264,0.3243,0.3082,0.3199,0.3263,0.3259,0.3088,0.3024,0.0,0.0,0.0,0.0,0.0,0.0,0.0,0.0,0.0,0.0,0.0,0.259,0.3013,0.0,0.3701,0.413,0.4986,0.5615,0.5707,0.6413,0.7234,0.804,0.8339,0.8262,0.7686,0.7654,0.7401,0.6783,0.6225,0.4776,0.2226,0.1861,-0.1249,-0.7846,-1.02,-1.2897,-1.6118,-1.6954,-1.6285,-1.4207,-1.3947,-1.2886,-1.1176,-1.1289,-1.1055,-1.0555,-1.1307,-1.2537,-1.4118,-1.6228,-1.7554,-1.8102,-1.6549,-1.5655,-1.5247,-1.5138,-1.4779,-1.4417,-1.4799,-1.4288,-1.3494,-1.3798,-1.3814,-1.367,-1.3411,-1.2864,-1.1995,-1.0212,-0.8945,-0.7755,-0.6123,-0.5495,-0.5024,-0.4222,-0.379,-0.3257,-0.2053,-0.0849,0.0359,0.1569,0.2783,0.3593,0.3581,0.358,0.358,0.358,0.358,0.3709,0.3965,0.4008,0.4094,0.4401,0.4109,0.3852,0.3767,0.3262,0.298,0.3093,0.3333,0.337,0.321,0.3443,0.3442,0.3192,0.3194,0.3232,0.3351,0.3351,0.3388,0.3463,0.3385,0.3351,0.0,0.0,0.0,0.0,0.0,0.0,0.0,0.0,0.1876,0.2091,0.2477,0.2891,0.3312,0.3622,0.3932,0.4295,0.458,0.4788,0.4788,0.5379,0.6069,0.6857,0.6355,0.5786,0.5392,0.4942,0.4223,0.3153,0.2857,0.1637,-0.0929,-0.1364,-0.4295,-1.0404,-1.1372,-1.3359,-1.6648,-1.8334,-1.7874,-1.5325,-1.558,-1.4723,-1.2901,-1.3118,-1.3052,-1.2788,-1.3729,-1.4774,-1.599,-1.7991,-1.883,-1.8787,-1.82,-1.765,-1.7075,-1.6184,-1.5775,-1.5705,-1.6164,-1.6037,-1.5661,-1.5753,-1.5389,-1.489,-1.4698,-1.4021,-1.3016,-1.1567,-1.0421,-0.9251,-0.7695,-0.6912,-0.6271,-0.5022,-0.415,-0.3315,-0.2359,-0.1026,0.0,0.0,0.1565,0.3049,0.3539,0.3583,0.3583,0.358,0.358,0.358,0.358,0.358,0.358,0.3583,0.3583,0.3522,0.337,0.2986,0.2769,0.2755,0.2817,0.2907,0.3022,0.3229,0.3364,0.3353,0.3355,0.3458,0.358,0.358,0.3593,0.362,0.362,0.362,0.3985,0.2936,0.2144,0.2182,0.2074,0.2089,0.0,0.0,0.2597,0.2632,0.2848,0.3044,0.2968,0.3095,0.3241,0.3415,0.3908,0.4306,0.4423,0.4548,0.4422,0.4014,0.4769,0.4705,0.3235,0.2969,0.2608,0.1941,0.0954,-0.0216,-0.1535,-0.2984,-0.56,-0.9686,-1.1951,-1.4115,-1.6249,-1.8091,-1.8409,-1.719,-1.6706,-1.6228,-1.5744,-1.5779,-1.5762,-1.5775,-1.6964,-1.772,-1.8214,-1.9178,-1.9782,-2.0024,-1.9246,-1.8928,-1.8779,-1.7619,-1.7065,-1.6993,-1.7624,-1.6942,-1.5862,-1.6338,-1.6129,-1.5652,-1.5515,-1.4864,-1.3876,-1.2525,-1.1466,-1.0338,-0.8738,-0.8291,-0.7847,-0.6271,-0.471,-0.3542,-0.3417,-0.1603,0.0,0.0,0.0223,0.1073,0.3231,0.3595,0.3592,0.3581,0.358,0.358,0.358,0.358,0.3583,0.3593,0.3595,0.3583,0.3568,0.2556,0.182,0.1503,0.177,0.1938,0.198,0.3005,0.3553,0.3568,0.3568,0.3573,0.358,0.358,0.3646,0.3768,0.3768,0.3768,0.3716,0.2899,0.0,0.0,0.2457,0.2472,0.2751,0.2815,0.2837,0.292,0.3223,0.3556,0.3623,0.3644,0.3702,0.0,0.3904,0.3891,0.3913,0.3647,0.3331,0.3065,0.2512,0.1889,0.1192,0.1104,0.0263,-0.1695,-0.2272,-0.3226,-0.4704,-0.5771,-0.7543,-1.0214,-1.1768,-1.3772,-1.6347,-1.7459,-1.8113,-1.8309,-1.7696,-1.7343,-1.719,-1.7342,-1.7746,-1.8326,-1.8907,-1.927,-1.9456,-1.9788,-2.0095,-2.0269,-1.9432,-1.9431,-1.9697,-1.811,-1.7754,-1.8117,-1.8235,-1.806,-1.779,-1.7764,-1.7365,-1.6818,-1.6386,-1.5702,-1.4783,-1.3422,-1.2625,-1.1814,-1.0308,-0.9708,-0.9164,-0.7814,-0.6524,-0.5227,-0.3866,-0.2252,-0.0845,-0.0134,0.0,0.076,0.3194,0.3008,0.2549,0.2545,0.3135,0.359,0.359,0.2997,0.2546,0.255,0.255,0.285,0.3524,0.3118,0.2182,0.0656,0.0666,0.0761,0.0759,0.1251,0.1833,0.255,0.255,0.2535,0.2545,0.3249,0.3607,0.3694,0.3938,0.4034,0.3325,0.0,0.0,0.2717,0.2774,0.283,0.2942,0.3,0.2998,0.2863,0.3203,0.3482,0.347,0.3429,0.3507,0.3878,0.3607,0.3352,0.3352,0.2988,0.2495,0.2002,0.08,-0.0178,-0.0711,-0.0888,-0.1902,-0.4239,-0.4546,-0.5406,-0.7126,-0.7721,-0.8882,-1.0697,-1.2195,-1.3884,-1.5696,-1.6941,-1.7876,-1.8515,-1.8167,-1.8129,-1.8385,-1.8675,-1.9215,-1.9892,-1.999,-2.0021,-2.0023,-2.0017,-2.0099,-2.0182,-1.9577,-1.9755,-2.0158,-1.8829,-1.8712,-1.9175,-1.8951,-1.9042,-1.921,-1.8867,-1.834,-1.7723,-1.7149,-1.642,-1.5554,-1.4449,-1.3826,-1.319,-1.1832,-1.1259,-1.0651,-0.9304,-0.8286,-0.701,-0.4748,-0.3018,-0.1587,-0.0268,0.0,0.0537,0.2292,0.2154,0.179,0.179,0.2557,0.3239,0.3557,0.2239,0.1027,0.0401,0.0312,0.0803,0.2016,0.2425,0.1841,0.009,0.0,0.0,0.0,0.0,0.0403,0.1296,0.1311,0.1292,0.1329,0.2164,0.2766,0.3127,0.338,0.3813,0.0,0.0,0.2896,0.29,0.3007,0.3108,0.3075,0.3189,0.3091,0.2372,0.2513,0.2519,0.182,0.1787,0.2077,0.2654,0.2719,0.2717,0.2717,0.2717,0.2046,0.0311,0.0045,-0.0711,0.0,-0.3108,-0.3676,-0.4343,-0.4957,-0.601,-0.7669,-0.8172,-0.9172,-1.0857,-1.3871,-1.4935,-1.3794,-1.6717,-1.7958,-1.755,-1.7846,-1.8544,-1.9555,-1.9958,-2.0118,-2.0088,-2.0107,-1.9989,-1.9817,-1.9805,-1.9804,-1.9834,-1.9935,-2.0028,-2.0125,-2.0194,-2.0235,-2.0227,-2.0104,-1.9761,-1.9369,-1.9225,-1.8726,-1.8107,-1.7768,-1.6954,-1.6095,-1.5655,-1.5018,-1.4251,-1.3264,-1.302,-1.2518,-1.0601,-0.9678,-0.8598,-0.6313,-0.3993,-0.1913,-0.0312,0.0,0.0045,0.009,0.1034,0.1801,0.1801,0.1847,0.2298,0.3433,0.1527,-0.0853,-0.32,-0.343,-0.2968,-0.1741,-0.058,0.0089,0.0,0.0,0.0,0.0,0.0,0.0,0.0045,0.0047,0.0048,0.0048,0.0099,0.0717,0.1856,0.1856,0.2813,0.0,0.0,0.246,0.2581,0.2672,0.2639,0.2292,0.2291,0.2233,0.1981,0.2006,0.2021,0.1772,0.1778,0.1865,0.2079,0.2092,0.2115,0.2087,0.174,0.1115,0.0134,-0.0712,0.0,0.0,0.0,0.0,-0.4913,-0.5176,-0.607,-0.7758,-0.8312,-0.9152,-1.0345,-1.2105,-1.3439,-1.4362,-1.5449,-1.6705,-1.8108,-1.8473,-1.8943,-1.9473,-1.9611,-1.9747,-1.9904,-1.9806,-1.9788,-1.9788,-1.9698,-1.9764,-1.9933,-1.9983,-2.0096,-2.0242,-2.0328,-2.037,-2.0341,-2.016,-1.9973,-1.9728,-1.9327,-1.9057,-1.8771,-1.8188,-1.7648,-1.7036,-1.6215,-1.562,-1.5034,-1.4249,-1.3584,-1.2951,-1.2266,-1.0973,-0.955,-0.8342,-0.6306,-0.4258,-0.2703,-0.1731,-0.1199,-0.1206,-0.0849,-0.0581,-0.0581,0.009,0.018,-0.103,-0.1885,-0.2382,-0.2418,-0.3143,-0.3417,-0.3049,-0.2603,-0.1703,-0.0089,0.0,0.0,0.0,0.0,0.0,0.0,0.0,0.0,0.0,0.0,0.0213,0.0606,0.0604,0.1992,0.1858,0.1996,0.2026,0.2204,0.2229,0.2159,0.1862,0.1808,0.1723,0.1525,0.149,0.142,0.1186,0.1141,0.1236,0.1458,0.1489,0.1487,0.1465,0.1132,0.0505,-0.0604,-0.138,0.0,0.0,0.0,0.0,-0.5216,-0.569,-0.6586,-0.8111,-0.8517,-0.9223,-1.0407,-1.1665,-1.2986,-1.4373,-1.5026,-1.6181,-1.7831,-1.8417,-1.8881,-1.9186,-1.9286,-1.9465,-1.9713,-1.9636,-1.9613,-1.9606,-1.9523,-1.9638,-1.9858,-1.9902,-2.0041,-2.0207,-2.0344,-2.0386,-2.0351,-2.0235,-2.0129,-1.9965,-1.9553,-1.9326,-1.9089,-1.8512,-1.8031,-1.7526,-1.665,-1.6154,-1.5671,-1.4916,-1.4262,-1.3703,-1.3224,-1.2159,-1.0887,-0.9538,-0.7987,-0.6357,-0.4715,-0.3576,-0.2742,-0.2492,-0.2456,-0.246,-0.246,-0.1791,-0.1704,-0.2831,-0.3333,-0.3283,-0.2546,-0.3133,-0.359,-0.359,-0.3597,-0.2826,-0.0981,-0.0313,0.0,0.0,0.0,0.0,0.0,0.0,0.0,0.0,0.0,0.0,0.0,0.0,0.1623,0.1436,0.1516,0.1535,0.1725,0.1741,0.1739,0.1691,0.1681,0.1524,0.0901,0.0784,0.0613,0.0,0.0,0.0147,0.0695,0.077,0.0765,0.0758,0.0743,0.0048,0.0,0.0,0.0,0.0,0.0,0.0,-0.5305,0.0,-0.7478,-0.8639,-0.872,-0.9421,-1.0938,-1.2531,-1.3473,-1.3769,-1.5293,-1.6308,-1.6797,-1.7721,-1.836,-1.8751,-1.9029,-1.9295,-1.9578,-1.9578,-1.9471,-1.9305,-1.9305,-1.9418,-1.9609,-1.975,-1.9881,-2.0031,-2.03,-2.0363,-2.0307,-2.0386,-2.0269,-2.0079,-1.9882,-1.9556,-1.9161,-1.8753,-1.8217,-1.7634,-1.7019,-1.6599,-1.6148,-1.5359,-1.5127,-1.4762,-1.3471,-1.3128,-1.2406,-0.9959,-0.8963,-0.8089,-0.6361,-0.5361,-0.4557,-0.3867,-0.3668,-0.364,-0.364,-0.3597,-0.3184,-0.2053,-0.2911,-0.3592,-0.3581,-0.358,-0.358,-0.358,-0.358,-0.3262,-0.2493,-0.1026,-0.0134,-0.0,0.0,0.0,0.0,0.0,0.0,0.0,0.0,0.0,0.0,0.0,0.1626,0.0126,0.035,0.0412,0.0988,0.1117,0.0931,0.0129,-0.0042,-0.0162,-0.0501,-0.0586,-0.06,0.0,0.0,0.0,-0.0765,-0.0849,0.0,-0.1244,-0.1273,0.0,0.0,0.0,-0.3276,-0.4593,-0.4997,0.0,0.0,-0.6218,-0.7056,-0.8635,-0.872,-0.9421,-1.0938,-1.1795,-1.2538,-1.3264,-1.4918,-1.5966,-1.6429,-1.7183,-1.7687,-1.7995,-1.8312,-1.8717,-1.9159,-1.9159,-1.9214,-1.9305,-1.9305,-1.9418,-1.9609,-1.975,-1.9881,-2.0031,-2.0252,-2.0349,-2.0383,-2.0388,-2.0332,-2.0219,-2.0065,-1.9845,-1.9569,-1.9176,-1.8735,-1.8238,-1.7634,-1.7093,-1.6581,-1.6113,-1.5543,-1.4937,-1.4315,-1.3617,-1.2732,-1.1384,-1.0386,-0.9375,-0.8093,-0.6716,-0.5695,-0.5481,-0.4771,-0.4182,-0.4182,-0.3842,-0.3493,-0.3174,-0.3402,-0.3583,-0.358,-0.358,-0.358,-0.358,-0.358,-0.3534,-0.3306,-0.2909,-0.1879,-0.0089,0.0,0.0,0.0,0.0,0.0,0.0,0.0,0.0,0.0,0.0,0.1626,-0.1057,-0.0903,-0.078,-0.0404,-0.022,-0.0344,-0.0863,-0.0906,-0.0926,-0.1156,-0.1106,0.0,0.0,0.0,0.0,0.0,0.0,0.0,-0.2829,-0.2872,-0.3208,0.0,-0.4078,0.0,-0.5514,-0.5836,-0.627,0.0,-0.6689,-0.7182,-0.8635,-0.872,-0.9421,-1.0938,-1.1505,-1.2419,-1.369,-1.4975,-1.5849,-1.6301,-1.6825,-1.7295,-1.7715,-1.7894,-1.8296,-1.8834,0.0,-1.906,-1.9182,-1.9259,-1.9418,-1.9609,-1.975,-1.9881,-2.0022,-2.0233,-2.0339,-2.0405,-2.043,-2.042,-2.0362,-2.0161,-2.0019,-1.9844,-1.9341,-1.9043,-1.8699,-1.7915,-1.7451,-1.7093,-1.6651,-1.6085,-1.5529,-1.51,-1.4331,-1.3444,-1.2536,-1.1533,-1.0482,-0.9164,-0.7795,-0.6829,-0.6829,-0.5905,-0.5151,-0.5151,-0.4694,-0.4272,-0.3965,-0.3753,-0.358,-0.358,-0.358,-0.358,-0.358,-0.358,-0.358,-0.358,-0.3587,-0.3001,-0.1654,-0.058,0.0,0.0,0.0,0.0,0.0,0.0,0.0,0.0,0.0,0.1232,-0.2172,-0.2117,-0.2021,-0.1964,-0.1858,-0.1734,-0.1489,-0.1401,-0.1373,-0.1486,0.0,-0.1316,-0.1835,0.0,-0.2183,-0.2687,0.0,-0.353,-0.4172,-0.4276,-0.4586,-0.5513,-0.5527,-0.5821,-0.6761,-0.671,-0.6995,-0.7876,-0.7426,-0.7603,-0.8756,-0.8801,-0.95,-1.0938,-1.1579,-1.2701,-1.4392,-1.5093,-1.5707,-1.6246,-1.6581,-1.7027,-1.758,-1.7634,-1.798,-1.8547,-1.8789,0.0,-1.9001,-1.9198,-1.9374,-1.9569,-1.9723,-1.9858,-2.0003,-2.0188,-2.0305,-2.0403,-2.0462,-2.0488,-2.0456,-2.0234,-2.0128,-1.9999,-1.9451,-1.9258,-1.9006,-1.8087,-1.7781,-1.7625,-1.7019,-1.6644,-1.6274,-1.5734,-1.5078,-1.4308,-1.3411,-1.2477,-1.1397,-0.9997,-0.8913,-0.8185,-0.8111,-0.7193,-0.6358,-0.6244,-0.5757,-0.5211,-0.4604,-0.4051,-0.3667,-0.3624,-0.358,-0.358,-0.358,-0.358,-0.358,-0.358,-0.358,-0.3593,-0.3624,-0.1551,-0.0252,-0.0,0.0,0.0,0.0,0.0,0.0,0.0,0.0,0.0671,-0.3294,-0.3339,-0.329,-0.2686,-0.2697,-0.2711,-0.2312,-0.2402,0.0,0.0,0.0,-0.2545,-0.2547,-0.2816,0.0,-0.3692,0.0,0.0,0.0,0.0,-0.5829,0.0,0.0,0.0,0.0,0.0,0.0,0.0,0.0,-0.823,-0.9319,-0.9359,-0.9859,-1.0976,-1.1915,-1.2881,-1.3913,-1.4421,-1.5075,-1.5877,-1.6219,-1.6599,-1.6977,-1.7247,-1.7698,-1.827,-1.831,0.0,-1.901,-1.9035,-1.9166,-1.9365,-1.9559,-1.9723,-1.9847,-2.0002,-2.0161,-2.0332,-2.0394,-2.0451,-2.0488,-2.0453,-2.0277,-2.0052,-1.9836,-1.9505,-1.9089,-1.8597,-1.8241,-1.7907,-1.7367,-1.7126,-1.6805,-1.5844,-1.5264,-1.4706,-1.3927,-1.3026,-1.2157,-1.1525,-1.0838,-1.0243,-0.9842,-0.8839,-0.7821,-0.6974,-0.634,-0.5749,-0.5214,-0.4609,-0.4092,-0.3667,-0.358,-0.358,-0.358,-0.358,-0.358,-0.358,-0.358,-0.3684,-0.3861,-0.2799,-0.1527,-0.0053,0.0,0.0,0.0,0.0,0.0,0.0,0.0,0.0112,-0.457,-0.4566,-0.4491,-0.4132,-0.3948,-0.3772,-0.3325,0.0,0.0,0.0,0.0,-0.3068,-0.3297,0.0,0.0,0.0,0.0,0.0,0.0,0.0,0.0,0.0,0.0,0.0,0.0,0.0,0.0,0.0,0.0,-0.9163,-0.9487,-0.976,-1.0375,-1.1394,-1.1878,-1.2678,-1.3848,-1.429,-1.4814,-1.5448,-1.5862,-1.6301,-1.6823,-1.696,-1.7392,-1.7992,-1.8133,0.0,-1.8613,-1.8887,-1.9052,-1.9166,-1.9485,-1.9682,-1.9823,-1.9954,-2.0134,-2.031,-2.0373,-2.0442,-2.043,-2.001,-2.005,-2.0221,-2.0062,-1.9771,-1.9425,-1.9026,-1.8753,-1.8447,-1.7919,-1.762,-1.726,-1.6433,-1.5614,-1.484,-1.4084,-1.3334,-1.2666,-1.224,-1.174,-1.1212,-1.0685,-0.9949,-0.9147,-0.8427,-0.7811,-0.7144,-0.6313,-0.5928,-0.5288,-0.4134,-0.4007,-0.3924,-0.3624,-0.358,-0.358,-0.358,-0.3649,-0.3773,-0.3901,-0.3622,-0.3132,-0.2334,-0.0823,0.0,0.0,0.0,0.0,0.0,0.0,0.0,-0.5555,-0.5577,-0.548,-0.548,-0.5211,-0.4813,-0.4281,-0.3847,0.0,0.0,-0.3308,-0.3427,-0.3903,0.0,0.0,0.0,0.0,0.0,0.0,0.0,0.0,0.0,0.0,0.0,0.0,0.0,0.0,0.0,0.0,0.0,-0.97,-1.0079,-1.0659,-1.1436,-1.17,-1.2366,-1.3576,-1.411,-1.4564,-1.4975,-1.5418,-1.5945,-1.6549,-1.6651,-1.706,-1.7704,-1.7923,0.0,0.0,-1.8715,-1.8949,-1.9044,-1.9398,-1.963,-1.9764,-1.9912,-2.0088,-2.0251,-2.0352,-2.0303,-2.0104,-1.9482,-1.9788,-2.0302,-1.9728,-1.9564,-1.9494,-1.9044,-1.876,-1.855,-1.8342,-1.7961,-1.7468,-1.6837,-1.5928,-1.4984,-1.4214,-1.3617,-1.3194,-1.2871,-1.2425,-1.1915,-1.1425,-1.0879,-1.034,-0.9737,-0.9191,-0.85,-0.7491,-0.7366,-0.6732,-0.5113,-0.4602,-0.4218,-0.3794,-0.3667,-0.3592,-0.3624,-0.3729,-0.3873,-0.395,-0.4134,-0.428,-0.4478,-0.2148,-0.0781,-0.0447,-0.0447,-0.0448,-0.0448,-0.0448,-0.028,-0.593,-0.6113,-0.6136,-0.6136,-0.6071,-0.5812,-0.4915,0.0,0.0,-0.4204,-0.4007,-0.3924,-0.4207,-0.4544,0.0,0.0,0.0,0.0,0.0,0.0,0.0,0.0,0.0,0.0,0.0,0.0,0.0,0.0,0.0,0.0,-1.0244,-1.0278,-1.0356,-1.0433,-1.133,-1.2037,-1.2525,-1.3496,-1.4149,-1.4564,-1.4975,-1.5367,-1.5726,-1.6145,-1.6722,-1.7344,-1.7383,0.0,0.0,-1.8517,-1.877,-1.9018,-1.9236,-1.9447,-1.9627,-1.9774,-1.9912,-2.005,-2.0241,-1.9831,-1.9231,-1.9205,-1.9749,-2.0079,-1.8352,-1.8334,-1.8772,-1.8181,-1.7661,-1.7472,-1.8333,-1.7999,-1.7224,-1.6433,-1.5902,-1.5367,-1.4613,-1.4117,-1.3828,-1.3795,-1.3378,-1.2908,-1.2425,-1.1987,-1.1308,-1.0297,-0.9737,-0.9199,-0.863,-0.8553,-0.8084,-0.6904,-0.5328,-0.4391,-0.4347,-0.3878,-0.3634,-0.3763,-0.3785,-0.3916,-0.4143,-0.4182,-0.4316,-0.4512,-0.4245,-0.3407,-0.2007,-0.2008,-0.2008,-0.2008,-0.2008,-0.1283,-0.6827,-0.7325,-0.772,-0.772,-0.7358,-0.6842,-0.6009,0.0,-0.4865,-0.4394,-0.435,-0.441,-0.4531,-0.4779,-0.5171,-0.5752,-0.5925,-0.6475,0.0,0.0,0.0,0.0,0.0,0.0,0.0,0.0,0.0,0.0,0.0,0.0,-1.0283,-1.0283,-1.0587,-1.118,-1.159,-1.2168,-1.2865,-1.3555,-1.3993,-1.4149,-1.4783,-1.5271,-1.5613,-1.609,-1.6554,-1.6986,-1.6741,0.0,0.0,-1.7021,-1.7444,-1.8109,-1.8315,-1.8893,-1.9605,-1.9666,-1.9823,-2.0022,-2.0137,-1.9706,-1.902,-1.8573,-1.863,-1.8761,-1.8015,-1.7915,-1.8003,-1.7637,-1.7321,-1.7256,-1.7886,-1.7828,-1.7492,-1.7194,-1.6711,-1.6099,-1.5338,-1.5041,-1.4706,-1.4045,-1.3742,-1.3365,-1.2644,-1.236,-1.1982,-1.126,-1.1003,-1.058,-0.9718,-0.9605,-0.9204,-0.8121,-0.6771,-0.5543,-0.4474,-0.422,-0.3988,-0.3828,-0.3877,-0.4024,-0.4187,-0.4331,-0.4407,-0.4522,-0.4475,-0.4195,-0.3576,-0.3581,-0.3584,-0.3584,-0.3584,-0.3246,-0.733,-0.7953,-0.8474,-0.8474,-0.8056,-0.741,0.0,0.0,-0.5224,-0.4666,-0.4631,-0.473,-0.4809,-0.4971,-0.5273,-0.582,-0.5917,-0.6353,-0.7648,0.0,0.0,0.0,0.0,0.0,0.0,0.0,0.0,0.0,0.0,0.0,-1.0283,-1.0283,-1.0616,-1.1324,-1.1621,-1.2102,-1.2797,-1.3406,-1.3675,-1.3709,-1.4406,-1.4932,-1.5264,-1.5527,-1.5914,-1.6336,-1.5926,0.0,0.0,-1.5959,-1.6449,-1.7168,-1.7372,-1.7992,-1.8813,-1.8875,-1.9016,-1.9221,-1.9319,-1.891,-1.8241,-1.7684,-1.7353,-1.7155,-1.7166,-1.7211,-1.7226,-1.7035,-1.7205,-1.7435,-1.7348,-1.7653,-1.792,-1.7737,-1.7303,-1.6732,-1.5981,-1.5713,-1.5323,-1.4417,-1.4058,-1.3696,-1.3016,-1.2673,-1.2395,-1.2071,-1.1889,-1.1536,-1.0761,-1.0527,-1.0104,-0.9217,-0.8313,-0.7058,-0.5326,-0.4863,-0.4627,-0.4457,-0.4538,-0.471,-0.4881,-0.5056,-0.5117,-0.5117,-0.5126,-0.513,-0.513,-0.514,-0.5144,-0.5146,-0.5196,-0.502,-0.7206,-0.7702,-0.8024,-0.8024,-0.7793,-0.7377,0.0,-0.5834,-0.5346,-0.5142,-0.4888,-0.479,-0.5049,-0.5088,-0.5333,-0.6065,-0.6186,-0.6637,-0.7914,0.0,0.0,0.0,0.0,0.0,0.0,0.0,0.0,0.0,0.0,0.0,-1.0283,-1.0283,-1.0283,-1.0322,-1.1292,-1.1811,-1.1811,-1.2726,-1.3198,-1.3198,-1.3675,-1.4123,-1.4505,-1.4239,-1.4545,0.0,0.0,0.0,0.0,-1.5791,-1.6124,-1.6319,-1.6531,-1.6742,-1.6954,-1.7148,-1.7271,-1.7358,-1.7564,-1.7143,-1.654,-1.6595,-1.607,-1.5435,-1.5432,-1.5927,-1.6464,-1.6276,-1.7211,-1.8009,-1.6823,-1.7549,-1.8452,-1.7847,-1.7491,-1.7118,-1.6448,-1.592,-1.5513,-1.5143,-1.4438,-1.3901,-1.3901,-1.312,-1.2502,-1.2502,-1.2108,-1.1811,-1.1774,-1.1319,-1.0776,-1.0253,-0.9776,-0.8812,-0.7113,-0.5936,-0.5495,-0.5945,-0.5975,-0.6175,-0.6566,-0.6586,-0.6588,-0.6588,-0.6588,-0.6588,-0.6588,-0.6588,-0.6588,-0.6596,-0.6923,-0.6254,-0.676,-0.7528,-0.8194,-0.7881,-0.7514,-0.7104,-0.6515,-0.6012,-0.5567,-0.5185,-0.503,-0.4991,-0.5088,-0.5108,-0.5273,-0.5842,-0.5938,0.0,0.0,0.0,0.0,0.0,0.0,0.0,0.0,0.0,0.0,0.0,0.0,0.0,-1.0283,-1.0611,-1.0797,-1.0797,-1.083,-1.1129,-1.1728,-1.1709,-1.183,-1.2109,-1.2548,-1.292,-1.3294,-1.3464,-1.3822,0.0,0.0,0.0,0.0,-1.3984,-1.4495,-1.536,-1.5513,-1.6034,-1.6724,-1.6921,-1.7099,-1.7241,-1.7358,-1.6943,-1.6391,-1.6547,-1.6061,-1.5397,-1.5402,-1.5533,-1.5629,-1.5375,-1.636,-1.7368,-1.6895,-1.7683,-1.8547,-1.8356,-1.7971,-1.7526,-1.7068,-1.6698,-1.6223,-1.5578,-1.4833,-1.4214,-1.396,-1.3378,-1.2984,-1.2984,-1.2832,-1.265,-1.2324,-1.2132,-1.1715,-1.0852,-1.0273,-0.9182,-0.7151,-0.6654,-0.6328,-0.5996,-0.6436,-0.6649,-0.6622,-0.7047,-0.7047,-0.6588,-0.6588,-0.6588,-0.6588,-0.6588,-0.6721,-0.6928,-0.7056,-0.6985,0.0,-0.7206,-0.7832,-0.7559,-0.7295,-0.6938,-0.6313,-0.5989,-0.5654,-0.52,-0.5108,-0.5108,-0.5108,-0.5108,-0.5239,-0.5617,-0.5828,0.0,0.0,0.0,0.0,0.0,0.0,0.0,0.0,0.0,0.0,0.0,0.0,0.0,-1.0283,-1.0759,-1.1014,-1.1014,-1.0789,-1.0842,-1.1165,-1.1068,-1.1198,-1.1588,-1.1837,-1.2175,-1.2532,-1.2632,-1.2892,0.0,0.0,0.0,0.0,-1.3011,-1.3521,-1.4312,-1.4555,-1.5079,-1.5709,-1.5921,-1.6142,-1.6341,-1.6384,-1.6167,-1.5914,-1.6061,-1.5786,-1.5399,-1.54,-1.5347,-1.5248,-1.5038,-1.5819,-1.6759,-1.6929,-1.7608,-1.8315,-1.8561,-1.827,-1.7822,-1.7383,-1.7035,-1.6609,-1.5996,-1.5256,-1.4658,-1.4406,-1.3868,-1.3452,-1.3452,-1.3295,-1.3088,-1.2797,-1.2615,-1.221,-1.1394,-1.0809,-0.9812,-0.8102,-0.7892,-0.775,-0.7408,-0.7949,-0.8269,-0.819,-0.8561,-0.861,-0.8209,-0.8159,-0.8059,-0.7806,-0.7649,-0.7826,-0.8221,-0.8221,-0.8255,0.0,-0.6689,-0.6997,-0.6968,-0.6963,-0.6743,-0.5945,-0.5754,0.0,-0.519,-0.5108,-0.5117,-0.5151,-0.5132,-0.522,-0.5564,-0.5951,0.0,0.0,0.0,0.0,0.0,0.0,0.0,0.0,0.0,0.0,0.0,0.0,0.0,-1.0283,-1.0759,-1.1003,-1.0966,-1.0984,-1.0755,-1.0301,-1.0669,-1.1046,-1.1439,-1.1468,-1.1692,-1.2058,-1.1757,-1.182,0.0,0.0,0.0,0.0,-1.2749,-1.3087,-1.3328,-1.373,-1.3997,-1.4201,-1.4399,-1.4655,-1.4868,-1.4886,-1.5025,-1.5187,-1.5266,-1.5349,-1.54,-1.54,-1.5353,-1.5265,-1.5138,-1.5583,-1.6251,-1.6934,-1.7394,-1.7845,-1.8455,-1.8391,-1.8052,-1.7454,-1.7076,-1.6738,-1.6402,-1.5681,-1.5127,-1.5097,-1.4438,-1.3901,-1.3901,-1.3486,-1.3198,-1.3198,-1.2832,-1.236,-1.1884,-1.1388,-1.0715,-0.9788,-0.9512,-0.9444,-0.967,-1.0177,-1.0592,-1.0801,-1.0868,-1.0868,-1.0813,-1.0813,-1.0513,-0.9865,-0.9516,-0.964,-1.0201,-1.0225,-0.9956,-0.5376,0.0,-0.6011,-0.5652,-0.557,-0.5516,0.0,-0.5263,-0.5234,-0.5132,0.0,-0.521,-0.5566,-0.5331,-0.5459,-0.6553,-0.6523,0.0,0.0,0.0,0.0,0.0,0.0,0.0,0.0,0.0,0.0,0.0,0.0,-1.0687,-1.0322,-1.0759,-1.0856,-1.0551,-1.022,-1.0119,-1.0295,-0.9658,-0.9509,-0.9915,-1.0187,-1.0468,-1.0813,-1.0749,-1.1021,0.0,0.0,0.0,-1.2238,-1.2561,-1.2844,-1.3113,-1.3514,-1.3789,-1.3997,-1.4197,-1.4413,-1.4623,-1.4832,-1.4929,-1.5011,-1.5229,-1.5349,-1.54,-1.54,-1.5352,-1.5268,-1.5137,-1.5583,-1.6251,-1.6934,-1.7394,-1.7845,-1.8455,-1.8391,-1.8103,-1.7763,-1.7432,-1.7068,-1.6763,-1.6024,-1.5389,-1.515,-1.4438,-1.3901,-1.3901,-1.3486,-1.3198,-1.3198,-1.3088,-1.2873,-1.2395,-1.221,-1.2062,-1.1903,-1.0652,-0.9831,-0.9715,-1.0641,-1.1072,-1.0801,-1.1312,-1.1312,-1.0813,-1.0813,-1.0716,-1.0568,-1.0817,-1.1157,-1.1469,-1.1155,-1.1095,-0.5108,-0.5449,-0.5744,-0.5488,-0.543,-0.543,-0.543,0.0,0.0,0.0,0.0,-0.5244,-0.572,-0.5723,0.0,0.0,0.0,0.0,0.0,0.0,0.0,0.0,0.0,0.0,0.0,0.0,0.0,0.0,0.0,-1.0905,-1.0649,-1.0867,-1.1015,-1.1025,-1.0166,-0.9901,-1.0295,-0.9533,-0.9466,-1.0048,-1.0205,-1.0349,-1.0541,-1.0447,-1.0664,0.0,0.0,0.0,-1.2031,-1.2304,-1.258,-1.2852,-1.3295,-1.3593,-1.3804,-1.4087,-1.4311,-1.4487,-1.4727,-1.4867,-1.4992,-1.522,-1.5321,-1.5362,-1.539,-1.5367,-1.5321,-1.5226,-1.5407,-1.5802,-1.6464,-1.7037,-1.7554,-1.8072,-1.8292,-1.831,-1.8048,-1.7625,-1.7199,-1.6866,-1.632,-1.5815,-1.547,-1.4883,-1.4438,-1.4438,-1.3934,-1.352,-1.352,-1.3329,-1.3019,-1.2538,-1.2502,-1.2535,-1.2579,-1.192,-1.1594,-1.1713,-1.2468,-1.2822,-1.2604,-1.2682,-1.2409,-1.1792,-1.1659,-1.1627,-1.1743,-1.1915,-1.2168,-1.241,-1.2194,-1.2204,-0.519,-0.5547,-0.5867,-0.5734,-0.5754,-0.5803,-0.5803,0.0,0.0,0.0,0.0,0.0,0.0,0.0,0.0,0.0,0.0,0.0,0.0,0.0,0.0,0.0,0.0,0.0,0.0,0.0,0.0,0.0,0.0,-1.1094,-1.1014,-1.0943,-1.1132,-1.1664,-1.0369,-0.9914,-1.0382,-0.987,-0.9933,-1.0605,-1.0677,-1.0656,-1.0583,-1.0496,-1.0594,-1.0849,0.0,0.0,-1.1747,-1.2073,-1.2372,-1.2641,-1.308,-1.3403,-1.3654,-1.402,-1.4259,-1.4398,-1.4649,-1.4847,-1.5028,-1.5229,-1.5303,-1.5309,-1.5378,-1.54,-1.5387,-1.5328,-1.521,-1.5248,-1.5929,-1.6509,-1.7043,-1.7575,-1.8092,-1.8407,-1.8244,-1.7796,-1.7336,-1.696,-1.6615,-1.6266,-1.5926,-1.5441,-1.5104,-1.5104,-1.4406,-1.3901,-1.3901,-1.3486,-1.3078,-1.28,-1.2728,-1.2828,-1.3035,-1.3386,-1.3849,-1.4413,-1.4609,-1.4703,-1.4703,-1.4102,-1.3552,-1.3065,-1.2772,-1.2775,-1.2996,-1.2955,-1.3041,-1.3284,-1.3222,-1.3187,-0.5581,-0.5991,-0.6138,-0.539,-0.5508,-0.5803,-0.5803,0.0,0.0,0.0,0.0,0.0,0.0,0.0,0.0,0.0,0.0,0.0,0.0,0.0,0.0,0.0,0.0,0.0,0.0,0.0,0.0,0.0,0.0,-1.1473,-1.1014,-1.0611,-1.0616,-1.1126,-1.0142,-1.0025,-1.0872,-1.0019,-0.9649,-0.9698,-1.0385,-1.0449,-1.0044,-1.0474,-1.0592,-1.0528,0.0,-1.1549,-1.1416,-1.1974,-1.2372,-1.263,-1.2934,-1.3278,-1.3624,-1.3862,-1.4065,-1.4292,-1.4718,-1.4925,-1.5028,-1.5229,-1.5303,-1.5309,-1.5378,-1.54,-1.54,-1.5387,-1.5248,-1.5251,-1.5937,-1.6092,-1.6359,-1.7439,-1.777,-1.7896,-1.8142,-1.8125,-1.7893,-1.7336,-1.6952,-1.6615,-1.6274,-1.5602,-1.5104,-1.5104,-1.4406,-1.3901,-1.3901,-1.3486,-1.3379,-1.38,-1.3844,-1.4219,-1.5147,-1.5262,-1.5546,-1.6089,-1.5252,-1.4703,-1.4703,-1.4102,-1.3774,-1.3642,-1.3467,-1.3381,-1.3393,-1.4117,-1.4468,-1.4544,-1.4173,-1.403,-0.5312,-0.555,-0.5657,-0.5522,-0.5991,-0.6494,-0.6494,0.0,0.0,0.0,0.0,0.0,0.0,0.0,0.0,0.0,0.0,0.0,0.0,0.0,0.0,0.0,0.0,0.0,0.0,0.0,0.0,0.0,0.0,0.0,-1.1436,-1.0731,-1.0505,-1.0981,-1.0103,-1.0051,-1.0976,-1.0345,-1.0124,-1.0249,-1.0419,-1.0436,-1.0337,-1.0617,-1.0622,-1.0436,0.0,-1.1371,-1.1326,-1.1593,-1.198,-1.2404,-1.2684,-1.299,-1.3303,-1.3624,-1.3997,-1.4389,-1.4567,-1.4766,-1.4973,-1.5143,-1.524,-1.5313,-1.5376,-1.54,-1.54,-1.54,-1.5313,-1.5265,-1.5498,-1.5776,-1.6239,-1.7155,-1.7536,-1.783,-1.8304,-1.831,-1.8023,-1.7431,-1.7175,-1.6901,-1.6402,-1.6001,-1.5696,-1.5507,-1.4944,-1.4564,-1.4564,-1.3993,-1.3801,-1.4362,-1.4224,-1.4532,-1.5605,-1.5693,-1.5932,-1.6484,-1.5976,-1.5517,-1.5186,-1.4601,-1.4143,-1.3821,-1.3621,-1.3623,-1.3848,-1.4478,-1.4897,-1.5127,-1.4901,-1.4874,-0.5122,-0.5185,-0.5239,-0.5791,0.0,-0.687,-0.7178,0.0,0.0,0.0,0.0,0.0,0.0,0.0,0.0,0.0,0.0,0.0,0.0,0.0,0.0,0.0,0.0,0.0,0.0,0.0,0.0,0.0,0.0,0.0,-1.1811,-1.0845,-1.0467,-1.0835,-1.0139,-1.0124,-1.0829,-1.0428,-1.0349,-1.0601,-1.0482,-1.0419,-1.0414,-1.0684,-1.0595,-1.0311,-1.0933,-1.1163,-1.1113,-1.1227,-1.1608,-1.2105,-1.2396,-1.2732,-1.3113,-1.3475,-1.3946,-1.4422,-1.4417,-1.46,-1.4885,-1.503,-1.5158,-1.5274,-1.535,-1.539,-1.54,-1.54,-1.5358,-1.5287,-1.5142,-1.5459,-1.6035,-1.6943,-1.7335,-1.7738,-1.8565,-1.851,-1.8137,-1.7608,-1.7407,-1.7118,-1.6528,-1.6348,-1.6199,-1.5856,-1.5389,-1.5104,-1.5104,-1.4406,-1.4126,-1.4631,-1.4441,-1.4727,-1.5793,-1.5888,-1.6063,-1.649,-1.6515,-1.6287,-1.582,-1.5236,-1.4692,-1.4226,-1.404,-1.4154,-1.4594,-1.5043,-1.538,-1.5642,-1.5642,-1.558,-0.5529,-0.5439,-0.5307,-0.6157,-0.6118,0.0,-0.7379,-0.6995,0.0,-0.8553,0.0,0.0,0.0,0.0,0.0,0.0,0.0,0.0,0.0,0.0,0.0,0.0,0.0,0.0,0.0,0.0,0.0,0.0,0.0,0.0,-1.1811,-1.0845,-1.0322,-1.0356,-1.0293,-1.0288,-1.0356,-0.9886,-0.9677,-0.9712,-1.0496,-1.0387,-0.9518,-1.0398,-1.0491,-0.9976,-1.0834,-1.0932,-1.0519,-1.1066,-1.1468,-1.1772,-1.2105,-1.266,-1.3303,-1.3514,-1.3862,-1.4239,-1.4352,-1.4537,-1.4757,-1.4935,-1.5066,-1.5146,-1.5268,-1.5348,-1.54,-1.54,-1.5397,-1.5346,-1.5152,-1.5038,-1.5385,-1.6922,-1.7123,-1.7357,-1.884,-1.8842,-1.8489,-1.8179,-1.7676,-1.7199,-1.6841,-1.6509,-1.6199,-1.5856,-1.5389,-1.5104,-1.5104,-1.4406,-1.4126,-1.4631,-1.4793,-1.526,-1.6365,-1.6459,-1.6478,-1.6515,-1.6515,-1.6472,-1.6429,-1.5864,-1.5493,-1.5493,-1.5257,-1.5477,-1.6031,-1.6456,-1.6564,-1.643,-1.643,-1.6031,-0.5146,-0.5044,-0.4991,-0.6128,-0.6289,0.0,0.0,-0.7676,-0.7989,0.0,0.0,0.0,0.0,0.0,0.0,0.0,0.0,0.0,0.0,0.0,0.0,0.0,0.0,0.0,0.0,0.0,0.0,0.0,0.0,0.0,-1.1319,-1.0654,-1.0161,-0.9888,-0.9878,-0.9878,-0.9878,-0.9675,-0.949,-0.9236,-0.9562,-0.9638,-0.9477,-1.0167,-1.0173,-0.9644,-1.0498,-1.0709,-1.0421,-1.0664,-1.1022,-1.152,-1.22,-1.2801,-1.3312,-1.3437,-1.3786,-1.4188,-1.4104,-1.4358,-1.4727,-1.4893,-1.5012,-1.5131,-1.5261,-1.5345,-1.54,-1.54,-1.5399,-1.5368,-1.5255,-1.5494,-1.603,-1.7055,-1.7566,-1.8065,-1.8902,-1.8834,-1.8508,-1.8249,-1.7888,-1.7494,-1.7175,-1.7002,-1.6747,-1.6183,-1.596,-1.5775,-1.5573,-1.5006,-1.4857,-1.5437,-1.5674,-1.5951,-1.6453,-1.6515,-1.6515,-1.6515,-1.6515,-1.6515,-1.6515,-1.5914,-1.5588,-1.5588,-1.5148,-1.537,-1.6182,-1.6361,-1.6702,-1.7196,-1.6703,-1.6379,-0.4952,-0.4898,-0.4957,-0.6123,0.0,0.0,-0.7734,-0.8164,-0.8763,0.0,0.0,0.0,0.0,0.0,0.0,0.0,0.0,0.0,0.0,0.0,0.0,0.0,0.0,0.0,0.0,0.0,0.0,0.0,0.0,0.0,0.0,-1.0441,-0.9878,-0.9412,-0.9398,-0.9398,-0.9398,-0.9398,-0.9287,-0.9004,-0.8867,-0.8923,-0.9144,-0.9626,-0.9702,-0.9426,-1.0025,-1.0265,-1.026,-1.0483,-1.0909,-1.1534,-1.2207,-1.2708,-1.3098,-1.3235,-1.3627,-1.4087,-1.3955,-1.4225,-1.4666,-1.4841,-1.4962,-1.5075,-1.5254,-1.5352,-1.54,-1.54,-1.54,-1.5454,-1.5665,-1.6002,-1.6484,-1.7189,-1.789,-1.8538,-1.9072,-1.8878,-1.8556,-1.8371,-1.8048,-1.7681,-1.7368,-1.7288,-1.7068,-1.6394,-1.6293,-1.6163,-1.5848,-1.5389,-1.5351,-1.6009,-1.6211,-1.6409,-1.6737,-1.6752,-1.6674,-1.6515,-1.6515,-1.6515,-1.6515,-1.6095,-1.5864,-1.5864,-1.5472,-1.5678,-1.6598,-1.6598,-1.696,-1.7662,-1.7186,-1.6888,-0.5103,-0.5108,-0.5322,0.0,0.0,0.0,0.0,-0.842,0.0,0.0,0.0,0.0,0.0,0.0,0.0,0.0,0.0,0.0,0.0,0.0,0.0,0.0,0.0,0.0,0.0,0.0,0.0,0.0,0.0,0.0,0.0,-1.0149,-0.9398,-0.9009,-0.8999,-0.8999,-0.8999,-0.8999,-0.8999,-0.8994,-0.8579,-0.8359,-0.8311,-0.8722,-0.9078,-0.9402,-0.9402,-0.9587,-0.9951,-1.0625,-1.1263,-1.1819,-1.2094,-1.2364,-1.263,-1.2906,-1.3386,-1.3899,-1.389,-1.4162,-1.4545,-1.4813,-1.4898,-1.4947,-1.5223,-1.5352,-1.54,-1.54,-1.54,-1.5593,-1.6389,-1.6459,-1.6524,-1.7323,-1.7968,-1.8625,-1.9428,-1.9081,-1.8604,-1.8613,-1.8175,-1.7704,-1.7368,-1.7312,-1.7093,-1.6394,-1.6301,-1.6191,-1.5848,-1.5396,-1.5428,-1.6208,-1.6303,-1.6572,-1.7247,-1.7312,-1.707,-1.6558,-1.6515,-1.6515,-1.6515,-1.6515,-1.6515,-1.6515,-1.6515,-1.6804,-1.7382,-1.7394,-1.7587,-1.7936,-1.7885,-1.7798,-0.4752,-0.5127,0.0,0.0,0.0,0.0,0.0,0.0,0.0,0.0,0.0,0.0,0.0,0.0,0.0,0.0,0.0,0.0,0.0,0.0,0.0,0.0,0.0,0.0,0.0,0.0,0.0,0.0,0.0,0.0,0.0,-0.9487,-0.8999,-0.8579,-0.8564,-0.8564,-0.8564,-0.8564,-0.8564,-0.856,-0.8469,-0.84,-0.8358,-0.8432,-0.8658,-0.8981,-0.9289,-0.9587,-0.9951,-1.0625,-1.1015,-1.1233,-1.1932,-1.2364,-1.263,-1.2906,-1.3295,-1.3715,-1.3847,-1.4074,-1.4344,-1.4667,-1.4813,-1.4924,-1.5108,-1.5237,-1.5342,-1.539,-1.54,-1.5593,-1.6389,-1.6978,-1.753,-1.8248,-1.8983,-1.9543,-1.9593,-1.9298,-1.8936,-1.8652,-1.831,-1.7984,-1.7695,-1.7658,-1.7494,-1.7068,-1.6807,-1.6455,-1.5877,-1.604,-1.6337,-1.6681,-1.715,-1.7548,-1.7839,-1.751,-1.7229,-1.707,-1.6716,-1.6515,-1.6515,-1.6515,-1.6515,-1.6515,-1.6515,-1.6804,-1.7382,-1.7771,-1.8221,-1.8659,-1.8536,-1.8407,-0.5234,0.0,0.0,0.0,0.0,0.0,0.0,0.0,0.0,0.0,0.0,0.0,0.0,0.0,0.0,0.0,0.0,0.0,0.0,0.0,0.0,0.0,0.0,0.0,0.0,0.0,0.0,0.0,0.0,0.0,0.0,-0.8987,-0.8564,-0.8135,-0.812,-0.812,-0.812,-0.812,-0.812,-0.812,-0.812,-0.812,-0.811,-0.8078,-0.8331,-0.8844,-0.9363,-0.979,-1.0141,-1.0674,-1.0961,-1.1111,-1.1782,-1.2263,-1.261,-1.2778,-1.3159,-1.3624,-1.3833,-1.4024,-1.4261,-1.4586,-1.4794,-1.4937,-1.5063,-1.5187,-1.5312,-1.5379,-1.54,-1.5594,-1.6392,-1.7196,-1.7973,-1.8639,-1.9411,-1.9933,-1.9666,-1.9387,-1.9107,-1.8825,-1.845,-1.8154,-1.7992,-1.7869,-1.7681,-1.7344,-1.6901,-1.6495,-1.6209,-1.6473,-1.6929,-1.7549,-1.7987,-1.8281,-1.8401,-1.8138,-1.782,-1.7626,-1.7111,-1.6837,-1.6837,-1.6595,-1.6515,-1.6515,-1.6515,-1.6691,-1.7036,-1.7375,-1.7934,-1.8657,-1.8553,-1.8703,-0.6056,0.0,0.0,0.0,0.0,0.0,0.0,0.0,0.0,0.0,0.0,0.0,0.0,0.0,0.0,0.0,0.0,0.0,0.0,0.0,0.0,0.0,0.0,0.0,0.0,0.0,0.0,0.0,0.0,0.0,0.0,-0.8581,-0.8135,-0.771,-0.77,-0.77,-0.77,-0.77,-0.77,-0.77,-0.77,-0.77,-0.77,-0.77,-0.8109,-0.8844,-0.9549,-1.004,-1.0378,-1.0715,-1.1024,-1.1303,-1.1637,-1.2092,-1.2572,-1.2591,-1.3002,-1.3577,-1.3818,-1.4011,-1.4227,-1.4574,-1.4776,-1.4919,-1.504,-1.5183,-1.5311,-1.5378,-1.54,-1.5594,-1.6391,-1.7136,-1.7876,-1.8648,-1.944,-1.9953,-1.9695,-1.9444,-1.921,-1.9051,-1.8595,-1.8229,-1.8208,-1.7971,-1.7681,-1.7344,-1.6747,-1.643,-1.6713,-1.6795,-1.7287,-1.8568,-1.8755,-1.8841,-1.8955,-1.893,-1.8696,-1.8217,-1.7666,-1.7347,-1.7312,-1.6795,-1.6515,-1.6515,-1.6515,-1.6515,-1.6515,-1.6616,-1.72,-1.8204,-1.8304,-1.8869,0.0,-0.5871,0.0,0.0,0.0,0.0,0.0,0.0,0.0,0.0,0.0,0.0,0.0,0.0,0.0,0.0,0.0,0.0,0.0,0.0,0.0,0.0,0.0,0.0,0.0,0.0,0.0,0.0,0.0,0.0,-0.8563,-0.8113,-0.7793,-0.7705,-0.77,-0.77,-0.77,-0.77,-0.77,0.0,-0.77,-0.77,-0.77,-0.77,-0.8109,-0.8816,-0.9316,-0.9686,-1.0021,-1.036,-1.0709,-1.1001,-1.131,-1.1767,-1.2312,-1.2514,-1.2818,-1.3201,-1.373,-1.3927,-1.4024,-1.4413,-1.4697,-1.4912,-1.4922,-1.5105,-1.5313,-1.5384,-1.54,-1.5594,-1.6391,-1.6735,-1.7234,-1.8691,-1.9649,-2.018,-1.9953,-1.9792,-1.9565,-1.9216,-1.8815,-1.845,-1.8229,-1.7971,-1.7681,-1.7344,-1.6952,-1.6806,-1.7136,-1.7332,-1.7787,-1.862,-1.9166,-1.9489,-1.9515,-1.9125,-1.8848,-1.8734,-1.8217,-1.7747,-1.7312,-1.6795,-1.6515,-1.6515,-1.6515,-1.6515,-1.6515,-1.7413,-1.7965,-1.8223,-1.907,-1.9585,0.0,0.0,0.0,0.0,0.0,0.0,0.0,0.0,0.0,0.0,0.0,0.0,0.0,0.0,0.0,0.0,0.0,0.0,0.0,0.0,0.0,0.0,0.0,0.0,0.0,0.0,0.0,0.0,0.0,-0.8324,-0.8066,-0.7822,-0.77,-0.77,-0.77,-0.77,-0.77,-0.77,-0.77,-0.77,-0.77,-0.77,-0.77,-0.7894,-0.828,-0.8816,-0.9235,-0.9587,-0.9925,-1.026,-1.0612,-1.092,-1.1196,-1.1659,-1.2231,-1.2494,-1.2778,-1.3086,-1.37,-1.3904,-1.3969,-1.4375,-1.4686,-1.4903,-1.4898,-1.5095,-1.5307,-1.5338,-1.5377,-1.5498,-1.5918,-1.6311,-1.6919,-1.8181,-1.9035,-1.9656,-1.9936,-1.9847,-1.9638,-1.9429,-1.9064,-1.8715,-1.843,-1.807,-1.7681,-1.7344,-1.7002,-1.7032,-1.7641,-1.7705,-1.8096,-1.9069,-1.948,-1.9682,-1.9682,-1.9442,-1.9288,-1.9288,-1.8772,-1.8373,-1.8059,-1.7544,-1.7034,-1.6515,-1.6515,-1.6515,-1.6515,-1.7388,-1.7947,-1.8223,-1.9051,-1.956,0.0,0.0,0.0,0.0,0.0,0.0,0.0,0.0,0.0,0.0,0.0,0.0,0.0,0.0,0.0,0.0,0.0,0.0,0.0,0.0,0.0,0.0,0.0,0.0,0.0,0.0,0.0,0.0,0.0,-0.77,-0.77,-0.77,-0.77,-0.77,-0.77,-0.77,-0.77,-0.77,-0.77,-0.77,-0.77,-0.77,-0.7695,-0.8033,-0.8388,-0.8739,-0.9068,-0.9449,-0.9848,-1.0103,-1.0483,-1.092,-1.115,-1.1601,-1.2177,-1.2475,-1.2732,-1.3016,-1.3676,-1.3904,-1.3969,-1.4375,-1.4665,-1.4868,-1.4886,-1.5076,-1.5272,-1.5288,-1.535,-1.54,-1.54,-1.6,-1.6803,-1.7609,-1.8303,-1.903,-1.9869,-1.9823,-1.9627,-1.9627,-1.9259,-1.8852,-1.8575,-1.8125,-1.7712,-1.7424,-1.7207,-1.7359,-1.8204,-1.8135,-1.8418,-1.9591,-1.9682,-1.9682,-1.9682,-1.9682,-1.9682,-1.9682,-1.9288,-1.9006,-1.8893,-1.8458,-1.7787,-1.6795,-1.6884,-1.7029,-1.7132,-1.7721,-1.8161,-1.8538,-1.9048,-1.9491,0.0,0.0,0.0,0.0,0.0,0.0,0.0,0.0,0.0,0.0,0.0,0.0,0.0,0.0,0.0,0.0,0.0,0.0,0.0,0.0,0.0,0.0,0.0,0.0,0.0,0.0,0.0,0.0,-0.7759,-0.77,-0.77,-0.77,-0.77,-0.77,-0.77,-0.77,-0.77,-0.77,-0.77,-0.77,-0.77,-0.77,-0.77,-0.7754,-0.8004,-0.8365,-0.8426,-0.8833,-0.9481,-0.9502,-1.0059,-1.0897,-1.0944,-1.1317,-1.1918,-1.2416,-1.263,-1.2764,-1.3613,-1.3904,-1.3969,-1.4375,-1.4592,-1.4756,-1.4859,-1.5011,-1.5147,-1.5266,-1.5345,-1.54,-1.54,-1.6002,-1.6801,-1.761,-1.8313,-1.9076,-2.0051,-2.0001,-1.9764,-1.9764,-1.9179,-1.8575,-1.829,-1.8005,-1.778,-1.7735,-1.7995,-1.8323,-1.8683,-1.8999,-1.9326,-1.9671,-1.9682,-1.9682,-1.9682,-1.9682,-1.9682,-1.9682,-1.9646,-1.9369,-1.893,-1.881,-1.8496,-1.79,-1.8454,-1.9023,-1.9622,-2.0182,-2.0198,-1.9751,-2.0322,-2.0281,-0.4854,-0.5947,-0.7044,0.0,0.0,0.0,0.0,0.0,0.0,0.0,0.0,0.0,0.0,0.0,0.0,0.0,0.0,0.0,0.0,0.0,0.0,0.0,0.0,0.0,0.0,0.0,0.0,0.0,-0.77,-0.77,-0.77,-0.77,-0.77,-0.77,-0.77,-0.77,-0.77,-0.77,-0.77,-0.77,-0.77,-0.77,-0.77,-0.77,-0.7923,-0.8285,-0.8285,-0.8584,-0.9095,-0.9316,-0.9739,-1.0327,-1.0739,-1.1141,-1.1579,-1.2167,-1.2475,-1.2689,-1.3344,-1.3715,-1.3955,-1.4236,-1.4497,-1.4727,-1.4859,-1.4964,-1.5076,-1.5251,-1.5321,-1.5467,-1.5986,-1.6362,-1.6895,-1.8078,-1.8642,-1.9171,-2.0094,-1.998,-1.9647,-1.9536,-1.9021,-1.8566,-1.845,-1.807,-1.7946,-1.8352,-1.8418,-1.8645,-1.9337,-1.9421,-1.9492,-1.9687,-1.9682,-1.9682,-1.9682,-1.9682,-1.9682,-1.9682,-1.9682,-1.9603,-1.9369,-1.9361,-1.9419,-1.9563,-1.8908,-1.8885,-1.9544,-2.0069,-2.0232,-1.9998,-2.0532,-2.0446,-0.4911,-0.5601,-0.6289,0.0,0.0,0.0,0.0,0.0,0.0,0.0,0.0,0.0,0.0,0.0,0.0,0.0,0.0,0.0,0.0,0.0,0.0,0.0,0.0,0.0,0.0,0.0,0.0,0.0,-0.77,-0.77,-0.77,-0.77,-0.77,-0.77,-0.77,-0.77,-0.77,-0.77,-0.77,-0.77,-0.77,-0.77,-0.77,-0.77,-0.7865,-0.8148,-0.8148,-0.8336,-0.8712,-0.9095,-0.9518,-0.9995,-1.0653,-1.1118,-1.1483,-1.2016,-1.2332,-1.2572,-1.3107,-1.3522,-1.3835,-1.4105,-1.4407,-1.4687,-1.485,-1.4925,-1.5018,-1.5242,-1.5298,-1.5468,-1.618,-1.6476,-1.6927,-1.8263,-1.8801,-1.9239,-2.0007,-1.9896,-1.9577,-1.935,-1.8912,-1.8604,-1.8652,-1.8334,-1.8293,-1.8902,-1.906,-1.9312,-1.9839,-1.9933,-1.9886,-1.9737,-1.9775,-1.9811,-1.9726,-1.9682,-1.9682,-1.9682,-1.9682,-1.9682,-1.9682,-1.9682,-1.9929,-2.0445,-1.9356,-1.9157,-2.0024,-2.0428,-2.0657,-2.0678,-2.0738,-2.0547,-0.3745,-0.4298,0.0,0.0,0.0,0.0,0.0,0.0,0.0,0.0,0.0,0.0,0.0,0.0,0.0,0.0,0.0,0.0,0.0,0.0,0.0,0.0,0.0,0.0,0.0,0.0,0.0,0.0,-0.77,-0.77,-0.77,-0.77,-0.77,-0.77,-0.77,-0.77,-0.77,-0.77,-0.77,-0.77,-0.77,-0.77,-0.77,-0.77,-0.7695,-0.7725,-0.7725,-0.7952,-0.8342,-0.8684,-0.9395,-1.0307,-1.0733,-1.1263,-1.1819,-1.2086,-1.2218,-1.2324,-1.3054,-1.34,-1.3604,-1.4047,-1.4341,-1.4556,-1.4823,-1.4894,-1.4955,-1.5229,-1.5298,-1.5331,-1.5438,-1.6027,-1.6829,-1.7731,-1.853,-1.9234,-1.9727,-1.9811,-1.9682,-1.9356,-1.8912,-1.8633,-1.8762,-1.8826,-1.8936,-1.9248,-2.0289,-2.0761,-1.9997,-2.0844,-2.103,-1.9846,-2.0027,-2.0124,-1.9711,-1.9682,-1.9682,-1.9682,-1.9682,-1.9682,-1.9682,-1.9682,-1.9741,-1.9742,-2.0303,-2.1205,-2.2521,-2.2527,-2.257,-2.2508,-2.1355,-2.0802,-0.373,-0.42,0.0,0.0,0.0,0.0,0.0,0.0,0.0,0.0,0.0,0.0,0.0,0.0,0.0,0.0,0.0,0.0,0.0,0.0,0.0,0.0,0.0,0.0,0.0,0.0,0.0,0.0,0.0,-0.77,-0.77,-0.77,-0.77,-0.77,-0.77,-0.77,-0.77,-0.77,-0.77,-0.77,-0.77,-0.77,-0.77,-0.77,-0.77,-0.77,-0.77,-0.7783,-0.7947,-0.8545,-0.9018,-0.9454,-1.0501,-1.1031,-1.1286,-1.1768,-1.2052,-1.2251,-1.2697,-1.3082,-1.3432,-1.3867,-1.414,-1.438,-1.4776,-1.4904,-1.4956,-1.5213,-1.5302,-1.5435,-1.607,-1.6415,-1.6946,-1.834,-1.9198,-1.9697,-1.9777,-1.9726,-1.9604,-1.935,-1.9058,-1.8834,-1.8807,-1.8645,-1.892,-2.0094,-2.0644,-2.0946,-2.0981,-2.1121,-2.091,-2.0158,-1.9965,-1.9846,-1.9718,-1.9682,-1.9682,-1.9682,-1.9682,-1.9682,-1.9682,-1.9682,-1.9682,-1.9682,-2.0774,-2.1575,-2.2046,-2.248,-2.2681,-2.2701,-2.2228,-2.1785,-0.3421,0.0,0.0,0.0,0.0,0.0,0.0,0.0,0.0,0.0,0.0,0.0,0.0,0.0,0.0,0.0,0.0,0.0,0.0,0.0,0.0,0.0,0.0,0.0,0.0,0.0,0.0,0.0,0.0,0.0,-0.77,-0.77,-0.77,-0.77,-0.77,-0.77,-0.77,-0.7564,-0.7564,-0.7695,-0.7569,-0.7564,-0.77,-0.77,-0.77,-0.77,-0.77,-0.77,-0.7754,-0.8489,-0.886,-0.9087,-1.0266,-1.0859,-1.1071,-1.1475,-1.1868,-1.2238,-1.2522,-1.2919,-1.337,-1.3774,-1.4047,-1.4289,-1.4766,-1.4904,-1.4956,-1.5213,-1.5301,-1.5448,-1.6096,-1.6629,-1.7285,-1.8402,-1.9307,-1.9908,-1.9811,-1.9685,-1.9541,-1.9344,-1.9143,-1.8992,-1.8963,-1.8985,-1.9345,-2.0382,-2.0974,-2.1378,-2.1568,-2.1376,-2.0983,-2.0374,-2.0062,-1.9846,-1.9718,-1.9682,-1.9682,-1.9682,-1.9682,-1.9682,-1.9682,-1.9682,-1.9682,-1.9682,-2.1014,-2.1695,-2.1695,-2.2347,-2.2797,-2.3009,-2.2536,-2.2014,0.0,0.0,0.0,0.0,0.0,0.0,0.0,0.0,0.0,0.0,0.0,0.0,0.0,0.0,0.0,0.0,0.0,0.0,0.0,0.0,0.0,0.0,0.0,0.0,0.0,0.0,0.0,0.0,-0.7725,-0.7725,-0.77,-0.77,-0.77,-0.77,-0.77,-0.77,-0.77,-0.7305,-0.7305,-0.7666,-0.7275,-0.728,-0.7671,-0.7671,-0.7695,-0.77,-0.77,-0.77,-0.7754,-0.8489,-0.8979,-0.9371,-1.0103,-1.0753,-1.1303,-1.1303,-1.1681,-1.2238,-1.2494,-1.2893,-1.3353,-1.376,-1.4033,-1.4277,-1.4747,-1.4904,-1.4956,-1.5213,-1.5307,-1.5317,-1.538,-1.6587,-1.7801,-1.7795,-1.8821,-1.9802,-1.98,-1.9685,-1.9541,-1.9344,-1.9134,-1.9069,-1.9243,-1.9868,-2.0261,-2.0018,-2.1269,-2.2093,-2.1655,-2.1612,-2.1259,-2.0408,-2.0306,-2.0151,-1.9754,-1.9718,-1.9718,-1.9682,-1.9682,-1.9682,-1.9682,-1.9682,-1.9682,-1.9682,-2.0991,-2.1672,-2.1695,-2.2403,-2.3016,-2.3551,-2.2317,-2.139,-0.3157,0.0,0.0,0.0,0.0,0.0,0.0,0.0,0.0,0.0,0.0,0.0,0.0,0.0,0.0,0.0,0.0,0.0,0.0,0.0,0.0,0.0,0.0,0.0,0.0,0.0,0.0,0.0,-0.828,-0.801,-0.7725,-0.77,-0.77,-0.77,-0.77,-0.77,-0.77,-0.7305,-0.7148,-0.7246,-0.685,-0.688,-0.7275,-0.7275,-0.7437,-0.77,-0.77,-0.77,-0.7754,-0.8489,-0.8866,-0.9033,-1.0033,-1.0653,-1.1024,-1.1242,-1.1557,-1.1982,-1.2435,-1.2687,-1.2885,-1.3481,-1.3818,-1.4074,-1.4541,-1.4776,-1.4947,-1.5165,-1.526,-1.5323,-1.5383,-1.6588,-1.7802,-1.7794,-1.8896,-1.9913,-1.9813,-1.9685,-1.9541,-1.9344,-1.9252,-1.9164,-1.898,-1.8914,-1.9022,-1.9416,-2.0475,-2.1243,-2.1303,-2.1491,-2.1399,-2.0854,-2.0797,-2.0506,-1.9747,-1.9972,-2.0,-1.9718,-1.9682,-1.9682,-1.9682,-1.9682,-1.9682,-1.9682,-2.0543,-2.1223,-2.1695,-2.2797,-2.3421,-2.3595,-2.277,-2.206,-0.3662,0.0,0.0,0.0,0.0,0.0,0.0,0.0,0.0,0.0,0.0,0.0,0.0,0.0,0.0,0.0,0.0,0.0,0.0,0.0,0.0,0.0,0.0,0.0,0.0,-0.9575,-0.9182,-0.8634,-0.8421,-0.8119,-0.7729,-0.77,-0.77,-0.77,-0.77,-0.7632,-0.7437,-0.7059,-0.6935,-0.7084,-0.6514,-0.6643,-0.7344,-0.7178,-0.731,-0.77,-0.77,-0.77,-0.7754,-0.8359,-0.8684,-0.8893,-0.9816,-1.049,-1.092,-1.1071,-1.1497,-1.2024,-1.2455,-1.2668,-1.2855,-1.3418,-1.3745,-1.3993,-1.446,-1.4738,-1.4947,-1.5175,-1.5268,-1.5322,-1.5383,-1.659,-1.7805,-1.7805,-1.8887,-1.9901,-1.9823,-1.9625,-1.9433,-1.932,-1.9305,-1.9193,-1.8868,-1.8844,-1.8977,-1.9268,-1.9968,-2.0526,-2.0678,-2.068,-2.0662,-2.0535,-2.0376,-2.0094,-1.9724,-1.9902,-1.9937,-1.9718,-1.9682,-1.9682,-1.9682,-1.9682,-1.9682,-1.9682,-2.0363,-2.1036,-2.1695,-2.2719,-2.334,-2.3595,-2.3238,-2.2718,-0.4308,-0.4377,0.0,0.0,0.0,0.0,-0.5584,-0.5644,0.0,0.0,0.0,0.0,0.0,0.0,0.0,0.0,0.0,0.0,0.0,0.0,0.0,0.0,0.0,0.0,-0.9894,-0.9655,-0.9209,-0.8477,-0.8342,-0.8119,-0.7729,-0.77,-0.77,-0.77,-0.77,-0.75,-0.7114,-0.6695,-0.6665,-0.6965,-0.6183,-0.6435,-0.7544,-0.7187,-0.728,-0.77,-0.77,-0.77,-0.7725,-0.8148,-0.85,-0.8871,-0.9575,-1.0273,-1.0897,-1.0897,-1.143,-1.219,-1.2455,-1.2741,-1.3025,-1.341,-1.37,-1.3984,-1.4429,-1.4719,-1.4956,-1.5213,-1.529,-1.5307,-1.5375,-1.6519,-1.768,-1.7777,-1.8774,-1.9709,-1.9771,-1.9549,-1.9329,-1.9305,-1.9274,-1.9171,-1.8833,-1.9202,-1.9446,-1.9166,-1.9562,-1.9875,-1.9875,-1.9642,-1.9543,-1.9761,-1.9468,-1.9329,-1.9589,-1.9649,-1.9679,-1.9718,-1.9682,-1.9682,-1.9682,-1.9682,-1.9682,-1.9682,-2.0363,-2.0999,-2.159,-2.2248,-2.2847,-2.3393,-2.3366,-2.3047,-0.5475,-0.5489,-0.5465,-0.5145,0.0,0.0,0.0,-0.481,0.0,0.0,0.0,0.0,0.0,0.0,0.0,0.0,0.0,0.0,0.0,0.0,0.0,0.0,0.0,0.0,-1.034,-1.0247,-0.9919,-0.9235,-0.8645,-0.8119,-0.7729,-0.77,-0.77,-0.77,-0.77,-0.75,-0.7114,-0.6695,-0.6366,-0.6125,-0.5644,-0.589,-0.673,-0.6669,-0.7008,-0.77,-0.77,-0.77,-0.7725,-0.8148,-0.85,-0.8844,-0.9316,-1.0065,-1.0897,-1.0897,-1.1324,-1.1926,-1.2197,-1.2443,-1.2732,-1.3016,-1.3475,-1.3956,-1.4267,-1.4614,-1.4956,-1.5213,-1.526,-1.5251,-1.5371,-1.607,-1.6929,-1.7632,-1.8407,-1.9134,-1.9681,-1.966,-1.949,-1.9335,-1.9166,-1.8975,-1.8698,-1.8564,-1.84,-1.8127,-1.8682,-1.9113,-1.9113,-1.9563,-1.9689,-1.9137,-1.9289,-1.9299,-1.8932,-1.9223,-1.9519,-1.9688,-1.9682,-1.9682,-1.9682,-1.9682,-1.9682,-1.9682,-2.0363,-2.0774,-2.0909,-2.1567,-2.1949,-2.2084,-2.2059,-2.1744,-0.6157,-0.6094,-0.604,-0.5798,0.0,0.0,0.0,0.0,-0.5094,0.0,0.0,0.0,0.0,0.0,0.0,0.0,0.0,0.0,0.0,0.0,0.0,0.0,0.0,0.0,-1.017,-1.0297,-1.0046,-0.917,-0.8612,-0.8119,-0.7729,-0.77,-0.77,-0.77,-0.75,-0.7216,-0.6815,-0.6397,-0.6095,-0.5882,-0.5491,-0.5824,-0.6781,-0.6605,-0.6948,-0.77,-0.77,-0.77,-0.7725,-0.7923,-0.8331,-0.8844,-0.9235,-0.9791,-1.0407,-1.0763,-1.1187,-1.1601,-1.2045,-1.2392,-1.2649,-1.2906,-1.3419,-1.3956,-1.4222,-1.4644,-1.5078,-1.5248,-1.5248,-1.5228,-1.5367,-1.5945,-1.6718,-1.7588,-1.8238,-1.8855,-1.9632,-1.9612,-1.9418,-1.932,-1.9033,-1.8752,-1.8632,-1.8371,-1.8112,-1.7847,-1.8115,-1.8352,-1.8352,-1.8659,-1.8826,-1.8619,-1.8624,-1.859,-1.8463,-1.8827,-1.9102,-1.9201,-1.9503,-1.9682,-1.9682,-1.9682,-1.9682,-1.9682,-2.0026,-2.0198,-2.0198,-2.0535,-2.1036,-2.1702,-2.1717,-2.1376,0.0,0.0,0.0,0.0,0.0,-0.5554,0.0,0.0,0.0,-0.5851,0.0,0.0,0.0,0.0,0.0,0.0,0.0,0.0,0.0,0.0,0.0,0.0,0.0,0.0,0.0,-0.9757,-0.9521,-0.8788,-0.8328,-0.8013,-0.7826,-0.7754,-0.77,-0.77,-0.7378,-0.6999,-0.6518,-0.6187,-0.5944,-0.5797,-0.5463,-0.5855,-0.6875,-0.6605,-0.6854,-0.7476,-0.7539,-0.7569,-0.7569,-0.7569,-0.8018,-0.8739,-0.9122,-0.955,-1.0001,-1.0653,-1.1071,-1.1386,-1.1932,-1.2304,-1.258,-1.2842,-1.3401,-1.4025,-1.4334,-1.478,-1.5209,-1.5282,-1.5248,-1.5228,-1.5347,-1.5811,-1.6458,-1.7308,-1.7899,-1.8501,-1.935,-1.942,-1.9305,-1.9305,-1.8912,-1.8594,-1.8594,-1.833,-1.8048,-1.7825,-1.7811,-1.7811,-1.7811,-1.7811,-1.787,-1.8086,-1.7797,-1.7705,-1.7991,-1.8212,-1.844,-1.8687,-1.9203,-1.9555,-1.9682,-1.9682,-1.9682,-1.9682,-1.9682,-1.9682,-1.9682,-1.9682,-2.0243,-2.1313,-2.1448,-2.122,0.0,0.0,0.0,0.0,-0.6645,0.0,0.0,0.0,-0.4905,-0.4319,0.0,0.0,0.0,0.0,0.0,0.0,0.0,0.0,0.0,0.0,0.0,0.0,0.0,0.0,0.0,-0.8178,-0.7955,-0.8481,-0.7782,-0.7586,-0.8187,-0.7894,-0.77,-0.77,-0.7661,-0.726,-0.6518,-0.6453,-0.6064,-0.5372,-0.5312,-0.5554,-0.6037,-0.6366,-0.6548,-0.6669,-0.7025,-0.7178,-0.7178,-0.7178,-0.7623,-0.8393,-0.8739,-0.9466,-1.0371,-1.0763,-1.1071,-1.1348,-1.1725,-1.2024,-1.2291,-1.2561,-1.3385,-1.4336,-1.471,-1.4996,-1.5209,-1.5282,-1.5248,-1.5218,-1.5289,-1.533,-1.5536,-1.6294,-1.6971,-1.7639,-1.8403,-1.8957,-1.9305,-1.9305,-1.8912,-1.8594,-1.8594,-1.8187,-1.7833,-1.7803,-1.7811,-1.7811,-1.7811,-1.7811,-1.7692,-1.7436,-1.7106,-1.7064,-1.7362,-1.7121,-1.7428,-1.8627,-1.8777,-1.9076,-1.966,-1.9682,-1.9682,-1.9682,-1.9682,-1.9682,-1.9682,-1.9682,-1.9765,-1.9929,-2.0543,-2.046,0.0,0.0,0.0,0.0,0.0,0.0,-0.5464,0.0,-0.5083,0.0,0.0,0.0,0.0,0.0,0.0,0.0,0.0,0.0,0.0,0.0,0.0,0.0,0.0,0.0,0.0,0.0,0.0,0.0,-0.717,-0.7036,-0.7584,-0.7223,-0.7101,-0.7334,-0.6889,-0.6496,-0.6156,-0.5913,-0.5644,-0.5312,-0.5312,-0.552,-0.59,-0.6066,-0.6283,-0.6532,-0.6926,-0.7114,-0.7114,-0.7344,-0.7787,-0.8342,-0.8684,-0.9212,-0.9906,-1.0619,-1.0961,-1.1134,-1.1637,-1.1968,-1.2296,-1.2918,-1.366,-1.4381,-1.4785,-1.504,-1.5209,-1.5282,-1.5248,-1.5218,-1.528,-1.5253,-1.5392,-1.6117,-1.6864,-1.7594,-1.8263,-1.8979,-1.9433,-1.932,-1.8912,-1.8594,-1.8594,-1.8154,-1.7811,-1.7811,-1.7811,-1.7811,-1.7811,-1.7627,-1.7526,-1.7572,-1.6952,-1.6653,-1.6991,-1.683,-1.7107,-1.8048,-1.8852,-1.9398,-1.9675,-1.9682,-1.9682,-1.9682,-1.9682,-1.9682,-1.9682,-1.9682,-1.9682,-1.9697,-1.9981,-1.9797,-0.77,0.0,0.0,0.0,0.0,0.0,0.0,0.0,0.0,0.0,0.0,0.0,0.0,0.0,0.0,0.0,0.0,0.0,0.0,0.0,0.0,0.0,0.0,0.0,0.0,0.0,0.0,0.0,0.0,-0.6307,-0.7046,-0.6704,-0.6638,-0.6917,-0.6374,-0.6002,-0.5917,-0.5528,-0.5321,-0.5312,-0.5197,-0.541,-0.5907,-0.58,-0.5959,-0.6364,-0.6677,-0.6867,-0.6965,-0.7378,-0.7826,-0.8342,-0.8684,-0.9041,-0.9528,-1.0521,-1.0897,-1.0991,-1.1593,-1.2024,-1.2439,-1.3242,-1.3864,-1.4381,-1.4785,-1.504,-1.5209,-1.5282,-1.5248,-1.5218,-1.528,-1.5253,-1.5319,-1.58,-1.6702,-1.7548,-1.7913,-1.8785,-1.9456,-1.9252,-1.8948,-1.8669,-1.8517,-1.8112,-1.7811,-1.7811,-1.7811,-1.7811,-1.7811,-1.7581,-1.7502,-1.7658,-1.6926,-1.6509,-1.6659,-1.6523,-1.6801,-1.7645,-1.8957,-1.9682,-1.9682,-1.9682,-1.9682,-1.9682,-1.9682,-1.9682,-1.9682,-1.9682,-1.9682,-1.9682,-1.9682,-1.9486,0.0,0.0,0.0,-0.6645,0.0,0.0,0.0,0.0,-0.5645,0.0,0.0,0.0,0.0,0.0,0.0,0.0,0.0,0.0,0.0,0.0,0.0,0.0,0.0,0.0,0.0,0.0,0.0,0.0,0.0,0.0,-0.691,-0.6697,-0.6511,-0.652,-0.6483,-0.6305,-0.5917,-0.5565,-0.5366,-0.5309,-0.4957,-0.5199,-0.5891,-0.5575,-0.5601,-0.5941,-0.6059,-0.6281,-0.6544,-0.6965,-0.7593,-0.8342,-0.8684,-0.9041,-0.9528,-1.0521,-1.0897,-1.0991,-1.1593,-1.2161,-1.27,-1.3291,-1.3864,-1.4381,-1.4785,-1.504,-1.5209,-1.5282,-1.5248,-1.5218,-1.528,-1.5253,-1.5162,-1.4992,-1.6149,-1.7238,-1.7006,-1.8179,-1.9252,-1.9052,-1.8993,-1.8825,-1.831,-1.7984,-1.7811,-1.7811,-1.7811,-1.7811,-1.7811,-1.7789,-1.765,-1.7344,-1.701,-1.6659,-1.6348,-1.6034,-1.6353,-1.7608,-1.8957,-1.9682,-1.9682,-1.9682,-1.9682,-1.9682,-1.9682,-1.9682,-1.9682,-1.9682,-1.9682,-1.9682,-1.9682,-1.9682,0.0,0.0,-0.7559,-0.7012,0.0,0.0,0.0,0.0,0.0,0.0,0.0,0.0,0.0,0.0,0.0,0.0,0.0,0.0,0.0,0.0,0.0,0.0,0.0,0.0,0.0,0.0,0.0,0.0,-0.4298,0.0,0.0,-0.532,-0.5306,-0.5764,-0.5526,-0.53,-0.5185,-0.5051,-0.4897,-0.4699,-0.4599,-0.4761,-0.5153,-0.486,-0.5004,-0.5466,-0.5921,-0.6244,-0.6548,-0.7225,-0.7652,-0.7947,-0.8573,-0.8899,-0.9143,-1.0172,-1.0581,-1.0653,-1.1257,-1.1965,-1.2681,-1.3152,-1.3692,-1.4243,-1.465,-1.4908,-1.5079,-1.5149,-1.518,-1.5218,-1.528,-1.5253,-1.5153,-1.4945,-1.5788,-1.6687,-1.6863,-1.7858,-1.88,-1.9127,-1.8957,-1.8669,-1.8498,-1.8091,-1.7811,-1.7811,-1.7811,-1.7811,-1.7811,-1.7408,-1.7256,-1.7604,-1.6747,-1.6266,-1.6607,-1.6493,-1.6756,-1.763,-1.8545,-1.9233,-1.9667,-1.9682,-1.9682,-1.9682,-1.9682,-1.9682,-1.9682,-1.9682,-1.9682,-1.9682,-1.9682,-1.9522,-0.77,-0.77,0.0,-0.7202,-0.6875,0.0,-0.5935,0.0,0.0,0.0,0.0,0.0,0.0,0.0,0.0,0.0,0.0,0.0,0.0,0.0,0.0,0.0,0.0,0.0,0.0,0.0,-0.3498,-0.4295,0.0,0.0,0.0,0.0,-0.4647,-0.5175,-0.4948,-0.4857,-0.4993,-0.4758,-0.4615,-0.4528,-0.4349,-0.4475,-0.4851,-0.4446,-0.4615,-0.53,-0.5569,-0.5852,-0.6154,-0.6955,-0.7298,-0.741,-0.8134,-0.8484,-0.8761,-0.9957,-1.0543,-1.0825,-1.152,-1.2123,-1.2689,-1.3177,-1.3693,-1.4168,-1.455,-1.482,-1.5019,-1.5142,-1.519,-1.5218,-1.528,-1.521,-1.5084,-1.4937,-1.5544,-1.6289,-1.6785,-1.7623,-1.8476,-1.909,-1.8957,-1.8688,-1.8489,-1.8166,-1.7905,-1.7803,-1.7811,-1.7811,-1.7811,-1.7416,-1.724,-1.7408,-1.6765,-1.6413,-1.6615,-1.6663,-1.6891,-1.7316,-1.8216,-1.8897,-1.9323,-1.9563,-1.9682,-1.9682,-1.9682,-1.9682,-1.9682,-1.9682,-1.9682,-1.9682,-1.9682,-1.9406]}]]